| time (UTC) | temp C | wind direction | speed KPH | gust KPH | rain 1hr cm | rain 24hr cm | rain mn cm | humidity % | barometer mb |
| 20260831092712 | 22 | 232 | 3.2 | 6.4 | 0.00 | 0.00 | 0.00 | 93 | 1008.4 |
| 20260831092621 | 22 | 232 | 3.2 | 6.4 | 0.00 | 0.00 | 0.00 | 93 | 1008.5 |
| 20260831092457 | 22 | 232 | 3.2 | 6.4 | 0.00 | 0.00 | 0.00 | 93 | 1008.6 |
| 20260831092402 | 22 | 232 | 3.2 | 6.4 | 0.00 | 0.00 | 0.00 | 93 | 1008.5 |
| 20260831092307 | 22 | 232 | 3.2 | 6.4 | 0.00 | 0.00 | 0.00 | 93 | 1008.5 |
| 20260831092231 | 22 | 232 | 3.2 | 4.8 | 0.00 | 0.00 | 0.00 | 93 | 1008.5 |
| 20260831092112 | 22 | 232 | 3.2 | 4.8 | 0.00 | 0.00 | 0.00 | 93 | 1008.5 |
| 20260831092017 | 22 | 232 | 3.2 | 6.4 | 0.00 | 0.00 | 0.00 | 93 | 1008.5 |
| 20260831091905 | 22 | 232 | 3.2 | 6.4 | 0.00 | 0.00 | 0.00 | 93 | 1008.5 |
| 20260831091810 | 22 | 232 | 1.6 | 8.0 | 0.00 | 0.00 | 0.00 | 93 | 1008.5 |
| 20260831091655 | 22 | 232 | 3.2 | 8.0 | 0.00 | 0.00 | 0.00 | 93 | 1008.6 |
| 20260831091600 | 22 | 232 | 3.2 | 8.0 | 0.00 | 0.00 | 0.00 | 93 | 1008.6 |
| 20260831091505 | 22 | 232 | 3.2 | 8.0 | 0.00 | 0.00 | 0.00 | 93 | 1008.6 |
| 20260831091410 | 22 | 232 | 3.2 | 8.0 | 0.00 | 0.00 | 0.00 | 93 | 1008.6 |
| 20260831091259 | 22 | 232 | 4.8 | 8.0 | 0.00 | 0.00 | 0.00 | 93 | 1008.6 |
| 20260831091204 | 22 | 232 | 4.8 | 8.0 | 0.00 | 0.00 | 0.00 | 93 | 1008.5 |
| 20260831091107 | 22 | 238 | 4.8 | 8.0 | 0.00 | 0.00 | 0.00 | 93 | 1008.5 |
| 20260831091032 | 22 | 238 | 4.8 | 8.0 | 0.00 | 0.00 | 0.00 | 93 | 1008.6 |
| 20260831090915 | 22 | 255 | 4.8 | 9.7 | 0.00 | 0.00 | 0.00 | 93 | 1008.6 |
| 20260831090759 | 22 | 256 | 4.8 | 9.7 | 0.00 | 0.00 | 0.00 | 93 | 1008.6 |
| 20260831090704 | 22 | 257 | 3.2 | 9.7 | 0.00 | 0.00 | 0.00 | 93 | 1008.6 |
| 20260831090633 | 22 | 261 | 3.2 | 9.7 | 0.00 | 0.00 | 0.00 | 93 | 1008.6 |
| 20260831090517 | 22 | 265 | 3.2 | 9.7 | 0.00 | 0.00 | 0.00 | 93 | 1008.7 |
| 20260831090441 | 22 | 265 | 1.6 | 9.7 | 0.00 | 0.00 | 0.00 | 93 | 1008.7 |
| 20260831090258 | 22 | 265 | 3.2 | 9.7 | 0.00 | 0.00 | 0.00 | 93 | 1008.6 |
| 20260831090203 | 22 | 265 | 3.2 | 9.7 | 0.00 | 0.00 | 0.00 | 93 | 1008.7 |
| 20260831090107 | 22 | 265 | 3.2 | 9.7 | 0.00 | 0.00 | 0.00 | 93 | 1008.7 |
| 20260831085956 | 22 | 242 | 3.2 | 6.4 | 0.00 | 0.00 | 0.00 | 93 | 1008.7 |
| 20260831085901 | 22 | 242 | 3.2 | 6.4 | 0.00 | 0.00 | 0.00 | 93 | 1008.6 |
| 20260831085805 | 22 | 242 | 3.2 | 6.4 | 0.00 | 0.00 | 0.00 | 93 | 1008.6 |
| 20260831085710 | 22 | 240 | 3.2 | 6.4 | 0.00 | 0.00 | 0.00 | 93 | 1008.6 |
| 20260831085555 | 22 | 240 | 3.2 | 6.4 | 0.00 | 0.00 | 0.00 | 93 | 1008.4 |
| 20260831085500 | 22 | 240 | 4.8 | 6.4 | 0.00 | 0.00 | 0.00 | 93 | 1008.4 |
| 20260831085408 | 22 | 240 | 4.8 | 8.0 | 0.00 | 0.00 | 0.00 | 93 | 1008.4 |
| 20260831085313 | 22 | 241 | 4.8 | 8.0 | 0.00 | 0.00 | 0.00 | 93 | 1008.4 |
| 20260831085158 | 22 | 241 | 3.2 | 8.0 | 0.00 | 0.00 | 0.00 | 93 | 1008.4 |
| 20260831085103 | 22 | 241 | 3.2 | 8.0 | 0.00 | 0.00 | 0.00 | 92 | 1008.4 |
| 20260831085008 | 22 | 244 | 3.2 | 8.0 | 0.00 | 0.00 | 0.00 | 92 | 1008.4 |
| 20260831084913 | 22 | 244 | 3.2 | 8.0 | 0.00 | 0.00 | 0.00 | 92 | 1008.4 |
| 20260831084802 | 22 | 244 | 3.2 | 8.0 | 0.00 | 0.00 | 0.00 | 92 | 1008.4 |
| 20260831084706 | 22 | 244 | 4.8 | 8.0 | 0.00 | 0.00 | 0.00 | 92 | 1008.4 |
| 20260831084631 | 22 | 244 | 4.8 | 8.0 | 0.00 | 0.00 | 0.00 | 92 | 1008.4 |
| 20260831084516 | 22 | 234 | 4.8 | 6.4 | 0.00 | 0.00 | 0.00 | 92 | 1008.3 |
| 20260831084354 | 22 | 234 | 4.8 | 6.4 | 0.00 | 0.00 | 0.00 | 92 | 1008.4 |
| 20260831084259 | 22 | 235 | 3.2 | 6.4 | 0.00 | 0.00 | 0.00 | 92 | 1008.4 |
| 20260831084224 | 22 | 234 | 3.2 | 4.8 | 0.00 | 0.00 | 0.00 | 92 | 1008.5 |
| 20260831084131 | 22 | 234 | 3.2 | 4.8 | 0.00 | 0.00 | 0.00 | 92 | 1008.5 |
| 20260831083955 | 22 | 234 | 3.2 | 4.8 | 0.00 | 0.00 | 0.00 | 92 | 1008.5 |
| 20260831083920 | 22 | 235 | 3.2 | 4.8 | 0.00 | 0.00 | 0.00 | 92 | 1008.5 |
| 20260831083758 | 22 | 235 | 3.2 | 4.8 | 0.00 | 0.00 | 0.00 | 92 | 1008.5 |
| 20260831083703 | 22 | 235 | 3.2 | 4.8 | 0.00 | 0.00 | 0.00 | 92 | 1008.5 |
| 20260831083608 | 22 | 234 | 3.2 | 6.4 | 0.00 | 0.00 | 0.00 | 92 | 1008.5 |
| 20260831083518 | 22 | 234 | 1.6 | 6.4 | 0.00 | 0.00 | 0.00 | 92 | 1008.4 |
| 20260831083356 | 22 | 234 | 1.6 | 6.4 | 0.00 | 0.00 | 0.00 | 92 | 1008.5 |
| 20260831083301 | 22 | 234 | 1.6 | 6.4 | 0.00 | 0.00 | 0.00 | 92 | 1008.5 |
| 20260831083204 | 22 | 234 | 3.2 | 8.0 | 0.00 | 0.00 | 0.00 | 92 | 1008.4 |
| 20260831083109 | 22 | 234 | 3.2 | 8.0 | 0.00 | 0.00 | 0.00 | 92 | 1008.4 |
| 20260831083034 | 22 | 234 | 1.6 | 11.3 | 0.00 | 0.00 | 0.00 | 92 | 1008.5 |
| 20260831082902 | 22 | 234 | 3.2 | 11.3 | 0.00 | 0.00 | 0.00 | 92 | 1008.4 |
| 20260831082807 | 22 | 234 | 3.2 | 11.3 | 0.00 | 0.00 | 0.00 | 92 | 1008.4 |
| 20260831082712 | 22 | 234 | 3.2 | 11.3 | 0.00 | 0.00 | 0.00 | 92 | 1008.4 |
| 20260831082618 | 22 | 234 | 4.8 | 11.3 | 0.00 | 0.00 | 0.00 | 92 | 1008.3 |
| 20260831082456 | 22 | 234 | 4.8 | 11.3 | 0.00 | 0.00 | 0.00 | 92 | 1008.3 |
| 20260831082401 | 22 | 234 | 6.4 | 11.3 | 0.00 | 0.00 | 0.00 | 92 | 1008.2 |
| 20260831082310 | 22 | 234 | 6.4 | 11.3 | 0.00 | 0.00 | 0.00 | 92 | 1008.2 |
| 20260831082155 | 22 | 236 | 4.8 | 11.3 | 0.00 | 0.00 | 0.00 | 92 | 1008.2 |
| 20260831082119 | 22 | 229 | 4.8 | 11.3 | 0.00 | 0.00 | 0.00 | 92 | 1008.2 |
| 20260831082003 | 22 | 229 | 4.8 | 12.9 | 0.00 | 0.00 | 0.00 | 92 | 1008.2 |
| 20260831081907 | 22 | 229 | 4.8 | 12.9 | 0.00 | 0.00 | 0.00 | 92 | 1008.2 |
| 20260831081811 | 22 | 238 | 4.8 | 12.9 | 0.00 | 0.00 | 0.00 | 92 | 1008.2 |
| 20260831081700 | 22 | 238 | 4.8 | 12.9 | 0.00 | 0.00 | 0.00 | 92 | 1008.2 |
| 20260831081605 | 22 | 238 | 4.8 | 12.9 | 0.00 | 0.00 | 0.00 | 91 | 1008.2 |
| 20260831081510 | 22 | 237 | 4.8 | 12.9 | 0.00 | 0.00 | 0.00 | 92 | 1008.1 |
| 20260831081415 | 22 | 237 | 4.8 | 12.9 | 0.00 | 0.00 | 0.00 | 91 | 1008.1 |
| 20260831081320 | 22 | 237 | 6.4 | 12.9 | 0.00 | 0.00 | 0.00 | 92 | 1008.1 |
| 20260831081158 | 22 | 258 | 8.0 | 12.9 | 0.00 | 0.00 | 0.00 | 92 | 1008.2 |
| 20260831081123 | 22 | 234 | 8.0 | 12.9 | 0.00 | 0.00 | 0.00 | 92 | 1008.2 |
| 20260831081027 | 22 | 240 | 8.0 | 12.9 | 0.00 | 0.00 | 0.00 | 92 | 1008.2 |
| 20260831080855 | 22 | 232 | 6.4 | 12.9 | 0.00 | 0.00 | 0.00 | 91 | 1008.1 |
| 20260831080819 | 22 | 269 | 8.0 | 12.9 | 0.00 | 0.00 | 0.00 | 92 | 1008.2 |
| 20260831080703 | 22 | 217 | 8.0 | 12.9 | 0.00 | 0.00 | 0.00 | 92 | 1008.2 |
| 20260831080608 | 22 | 242 | 8.0 | 12.9 | 0.00 | 0.00 | 0.00 | 92 | 1008.2 |
| 20260831080513 | 22 | 251 | 8.0 | 12.9 | 0.00 | 0.00 | 0.00 | 92 | 1008.3 |
| 20260831080357 | 22 | 257 | 8.0 | 12.9 | 0.00 | 0.00 | 0.00 | 92 | 1008.2 |
| 20260831080306 | 22 | 255 | 8.0 | 14.5 | 0.00 | 0.00 | 0.00 | 92 | 1008.2 |
| 20260831080210 | 22 | 230 | 8.0 | 14.5 | 0.00 | 0.00 | 0.00 | 91 | 1008.1 |
| 20260831080115 | 22 | 246 | 6.4 | 14.5 | 0.00 | 0.00 | 0.00 | 91 | 1008.2 |
| 20260831080019 | 22 | 252 | 6.4 | 14.5 | 0.00 | 0.00 | 0.00 | 91 | 1008.2 |
| 20260831075903 | 22 | 249 | 6.4 | 14.5 | 0.00 | 0.00 | 0.00 | 91 | 1008.2 |
| 20260831075807 | 22 | 238 | 8.0 | 14.5 | 0.00 | 0.00 | 0.00 | 91 | 1008.2 |
| 20260831075656 | 22 | 236 | 8.0 | 14.5 | 0.00 | 0.00 | 0.00 | 91 | 1008.2 |
| 20260831075601 | 22 | 227 | 8.0 | 14.5 | 0.00 | 0.00 | 0.00 | 91 | 1008.2 |
| 20260831075506 | 22 | 219 | 8.0 | 14.5 | 0.00 | 0.00 | 0.00 | 91 | 1008.2 |
| 20260831075410 | 22 | 232 | 8.0 | 14.5 | 0.00 | 0.00 | 0.00 | 91 | 1008.2 |
| 20260831075315 | 22 | 227 | 6.4 | 11.3 | 0.00 | 0.00 | 0.00 | 91 | 1008.3 |
| 20260831075241 | 22 | 253 | 8.0 | 12.9 | 0.00 | 0.00 | 0.00 | 91 | 1008.3 |
| 20260831075058 | 22 | 237 | 6.4 | 12.9 | 0.00 | 0.00 | 0.00 | 91 | 1008.3 |
| 20260831075026 | 22 | 217 | 6.4 | 12.9 | 0.00 | 0.00 | 0.00 | 91 | 1008.3 |
| 20260831074910 | 22 | 215 | 4.8 | 12.9 | 0.00 | 0.00 | 0.00 | 91 | 1008.3 |
| 20260831074755 | 22 | 236 | 6.4 | 12.9 | 0.00 | 0.00 | 0.00 | 91 | 1008.3 |
| 20260831074659 | 22 | 236 | 6.4 | 12.9 | 0.00 | 0.00 | 0.00 | 91 | 1008.3 |
| 20260831074624 | 22 | 232 | 6.4 | 12.9 | 0.00 | 0.00 | 0.00 | 91 | 1008.4 |
| 20260831074528 | 22 | 238 | 6.4 | 12.9 | 0.00 | 0.00 | 0.00 | 91 | 1008.4 |
| 20260831074432 | 22 | 242 | 6.4 | 12.9 | 0.00 | 0.00 | 0.00 | 91 | 1008.3 |
| 20260831074300 | 22 | 233 | 6.4 | 11.3 | 0.00 | 0.00 | 0.00 | 91 | 1008.3 |
| 20260831074225 | 22 | 240 | 6.4 | 11.3 | 0.00 | 0.00 | 0.00 | 91 | 1008.3 |
| 20260831074129 | 22 | 243 | 6.4 | 11.3 | 0.00 | 0.00 | 0.00 | 91 | 1008.3 |
| 20260831074012 | 22 | 253 | 6.4 | 11.3 | 0.00 | 0.00 | 0.00 | 91 | 1008.3 |
| 20260831073857 | 22 | 229 | 6.4 | 8.0 | 0.00 | 0.00 | 0.00 | 91 | 1008.3 |
| 20260831073802 | 22 | 229 | 4.8 | 8.0 | 0.00 | 0.00 | 0.00 | 91 | 1008.4 |
| 20260831073707 | 22 | 227 | 4.8 | 8.0 | 0.00 | 0.00 | 0.00 | 91 | 1008.4 |
| 20260831073555 | 22 | 227 | 4.8 | 8.0 | 0.00 | 0.00 | 0.00 | 91 | 1008.4 |
| 20260831073520 | 22 | 227 | 4.8 | 8.0 | 0.00 | 0.00 | 0.00 | 91 | 1008.4 |
| 20260831073358 | 22 | 225 | 4.8 | 8.0 | 0.00 | 0.00 | 0.00 | 91 | 1008.4 |
| 20260831073303 | 22 | 225 | 4.8 | 8.0 | 0.00 | 0.00 | 0.00 | 91 | 1008.4 |
| 20260831073228 | 22 | 225 | 4.8 | 8.0 | 0.00 | 0.00 | 0.00 | 91 | 1008.4 |
| 20260831073132 | 22 | 221 | 4.8 | 8.0 | 0.00 | 0.00 | 0.00 | 91 | 1008.4 |
| 20260831073013 | 22 | 221 | 4.8 | 8.0 | 0.00 | 0.00 | 0.00 | 91 | 1008.3 |
| 20260831072901 | 22 | 242 | 4.8 | 9.7 | 0.00 | 0.00 | 0.00 | 90 | 1008.5 |
| 20260831072806 | 22 | 241 | 4.8 | 9.7 | 0.00 | 0.00 | 0.00 | 90 | 1008.5 |
| 20260831072711 | 22 | 241 | 4.8 | 9.7 | 0.00 | 0.00 | 0.00 | 90 | 1008.4 |
| 20260831072616 | 22 | 246 | 4.8 | 9.7 | 0.00 | 0.00 | 0.00 | 90 | 1008.5 |
| 20260831072454 | 22 | 240 | 4.8 | 9.7 | 0.00 | 0.00 | 0.00 | 90 | 1008.5 |
| 20260831072419 | 22 | 243 | 6.4 | 9.7 | 0.00 | 0.00 | 0.00 | 90 | 1008.4 |
| 20260831072307 | 22 | 229 | 6.4 | 9.7 | 0.00 | 0.00 | 0.00 | 90 | 1008.4 |
| 20260831072212 | 22 | 229 | 6.4 | 9.7 | 0.00 | 0.00 | 0.00 | 90 | 1008.4 |
| 20260831072057 | 22 | 229 | 6.4 | 9.7 | 0.00 | 0.00 | 0.00 | 90 | 1008.4 |
| 20260831072002 | 22 | 234 | 6.4 | 9.7 | 0.00 | 0.00 | 0.00 | 90 | 1008.4 |
| 20260831071907 | 22 | 236 | 6.4 | 9.7 | 0.00 | 0.00 | 0.00 | 90 | 1008.4 |
| 20260831071812 | 22 | 235 | 6.4 | 9.7 | 0.00 | 0.00 | 0.00 | 90 | 1008.5 |
| 20260831071701 | 22 | 240 | 6.4 | 12.9 | 0.00 | 0.00 | 0.00 | 90 | 1008.5 |
| 20260831071605 | 22 | 205 | 6.4 | 12.9 | 0.00 | 0.00 | 0.00 | 90 | 1008.5 |
| 20260831071510 | 22 | 233 | 6.4 | 12.9 | 0.00 | 0.00 | 0.00 | 90 | 1008.5 |
| 20260831071355 | 22 | 237 | 6.4 | 12.9 | 0.00 | 0.00 | 0.00 | 90 | 1008.6 |
| 20260831071300 | 22 | 237 | 6.4 | 12.9 | 0.00 | 0.00 | 0.00 | 90 | 1008.6 |
| 20260831071205 | 22 | 259 | 6.4 | 12.9 | 0.00 | 0.00 | 0.00 | 90 | 1008.6 |
| 20260831071114 | 22 | 224 | 6.4 | 12.9 | 0.00 | 0.00 | 0.00 | 90 | 1008.6 |
| 20260831071018 | 22 | 244 | 6.4 | 12.9 | 0.00 | 0.00 | 0.00 | 90 | 1008.6 |
| 20260831070856 | 22 | 234 | 6.4 | 16.1 | 0.00 | 0.00 | 0.00 | 90 | 1008.6 |
| 20260831070821 | 22 | 248 | 6.4 | 16.1 | 0.00 | 0.00 | 0.00 | 90 | 1008.6 |
| 20260831070705 | 22 | 250 | 6.4 | 16.1 | 0.00 | 0.00 | 0.00 | 90 | 1008.6 |
| 20260831070610 | 22 | 239 | 6.4 | 16.1 | 0.00 | 0.00 | 0.00 | 90 | 1008.6 |
| 20260831070459 | 22 | 223 | 6.4 | 16.1 | 0.00 | 0.00 | 0.00 | 90 | 1008.5 |
| 20260831070404 | 22 | 214 | 8.0 | 16.1 | 0.00 | 0.00 | 0.00 | 90 | 1008.4 |
| 20260831070309 | 22 | 213 | 9.7 | 16.1 | 0.00 | 0.00 | 0.00 | 90 | 1008.4 |
| 20260831070212 | 22 | 234 | 8.0 | 16.1 | 0.00 | 0.00 | 0.00 | 90 | 1008.5 |
| 20260831070057 | 22 | 213 | 6.4 | 12.9 | 0.00 | 0.00 | 0.00 | 90 | 1008.4 |
| 20260831070001 | 22 | 229 | 8.0 | 12.9 | 0.00 | 0.00 | 0.00 | 90 | 1008.5 |
| 20260831065910 | 22 | 233 | 8.0 | 12.9 | 0.00 | 0.00 | 0.00 | 90 | 1008.5 |
| 20260831065812 | 22 | 234 | 8.0 | 12.9 | 0.00 | 0.00 | 0.00 | 90 | 1008.5 |
| 20260831065657 | 22 | 257 | 6.4 | 12.9 | 0.00 | 0.00 | 0.00 | 90 | 1008.6 |
| 20260831065602 | 22 | 222 | 6.4 | 12.9 | 0.00 | 0.00 | 0.00 | 90 | 1008.6 |
| 20260831065507 | 22 | 223 | 8.0 | 12.9 | 0.00 | 0.00 | 0.00 | 90 | 1008.6 |
| 20260831065411 | 22 | 224 | 8.0 | 12.9 | 0.00 | 0.00 | 0.00 | 90 | 1008.6 |
| 20260831065300 | 22 | 224 | 8.0 | 12.9 | 0.00 | 0.00 | 0.00 | 90 | 1008.6 |
| 20260831065225 | 22 | 220 | 8.0 | 9.7 | 0.00 | 0.00 | 0.00 | 90 | 1008.6 |
| 20260831065106 | 22 | 221 | 6.4 | 11.3 | 0.00 | 0.00 | 0.00 | 90 | 1008.6 |
| 20260831065011 | 22 | 219 | 4.8 | 11.3 | 0.00 | 0.00 | 0.00 | 90 | 1008.7 |
| 20260831064916 | 23 | 240 | 6.4 | 11.3 | 0.00 | 0.00 | 0.00 | 90 | 1008.7 |
| 20260831064759 | 23 | 230 | 6.4 | 11.3 | 0.00 | 0.00 | 0.00 | 90 | 1008.7 |
| 20260831064704 | 23 | 241 | 6.4 | 11.3 | 0.00 | 0.00 | 0.00 | 90 | 1008.7 |
| 20260831064633 | 23 | 221 | 6.4 | 11.3 | 0.00 | 0.00 | 0.00 | 89 | 1008.7 |
| 20260831064537 | 23 | 220 | 6.4 | 11.3 | 0.00 | 0.00 | 0.00 | 89 | 1008.6 |
| 20260831064354 | 23 | 219 | 8.0 | 11.3 | 0.00 | 0.00 | 0.00 | 89 | 1008.6 |
| 20260831064259 | 23 | 211 | 8.0 | 11.3 | 0.00 | 0.00 | 0.00 | 89 | 1008.7 |
| 20260831064203 | 23 | 217 | 8.0 | 11.3 | 0.00 | 0.00 | 0.00 | 89 | 1008.8 |
| 20260831064107 | 23 | 207 | 6.4 | 11.3 | 0.00 | 0.00 | 0.00 | 89 | 1008.8 |
| 20260831063956 | 23 | 223 | 6.4 | 9.7 | 0.00 | 0.00 | 0.00 | 89 | 1008.8 |
| 20260831063900 | 23 | 214 | 6.4 | 9.7 | 0.00 | 0.00 | 0.00 | 89 | 1008.8 |
| 20260831063805 | 23 | 222 | 6.4 | 9.7 | 0.00 | 0.00 | 0.00 | 89 | 1008.8 |
| 20260831063709 | 23 | 214 | 4.8 | 8.0 | 0.00 | 0.00 | 0.00 | 89 | 1008.8 |
| 20260831063633 | 23 | 211 | 4.8 | 12.9 | 0.00 | 0.00 | 0.00 | 89 | 1008.9 |
| 20260831063516 | 23 | 211 | 4.8 | 12.9 | 0.00 | 0.00 | 0.00 | 89 | 1008.9 |
| 20260831063420 | 23 | 223 | 4.8 | 12.9 | 0.00 | 0.00 | 0.00 | 89 | 1008.9 |
| 20260831063258 | 23 | 243 | 6.4 | 12.9 | 0.00 | 0.00 | 0.00 | 89 | 1008.9 |
| 20260831063207 | 23 | 248 | 6.4 | 12.9 | 0.00 | 0.00 | 0.00 | 89 | 1008.9 |
| 20260831063112 | 23 | 223 | 6.4 | 12.9 | 0.00 | 0.00 | 0.00 | 89 | 1008.9 |
| 20260831063037 | 23 | 221 | 6.4 | 12.9 | 0.00 | 0.00 | 0.00 | 89 | 1008.9 |
| 20260831062854 | 23 | 225 | 6.4 | 12.9 | 0.00 | 0.00 | 0.00 | 89 | 1008.8 |
| 20260831062759 | 23 | 241 | 6.4 | 11.3 | 0.00 | 0.00 | 0.00 | 89 | 1008.8 |
| 20260831062704 | 23 | 234 | 6.4 | 12.9 | 0.00 | 0.00 | 0.00 | 89 | 1008.8 |
| 20260831062613 | 23 | 234 | 6.4 | 12.9 | 0.00 | 0.00 | 0.00 | 89 | 1008.8 |
| 20260831062539 | 23 | 229 | 6.4 | 12.9 | 0.00 | 0.00 | 0.00 | 89 | 1008.8 |
| 20260831062355 | 23 | 216 | 4.8 | 12.9 | 0.00 | 0.00 | 0.00 | 89 | 1008.9 |
| 20260831062300 | 23 | 236 | 4.8 | 12.9 | 0.00 | 0.00 | 0.00 | 89 | 1009.0 |
| 20260831062204 | 23 | 236 | 6.4 | 12.9 | 0.00 | 0.00 | 0.00 | 89 | 1009.0 |
| 20260831062129 | 23 | 250 | 6.4 | 12.9 | 0.00 | 0.00 | 0.00 | 89 | 1009.0 |
| 20260831062013 | 23 | 255 | 8.0 | 12.9 | 0.00 | 0.00 | 0.00 | 89 | 1009.0 |
| 20260831061902 | 23 | 240 | 9.7 | 12.9 | 0.00 | 0.00 | 0.00 | 89 | 1008.9 |
| 20260831061807 | 23 | 231 | 8.0 | 14.5 | 0.00 | 0.00 | 0.00 | 89 | 1008.9 |
| 20260831061712 | 23 | 261 | 6.4 | 14.5 | 0.00 | 0.00 | 0.00 | 89 | 1008.9 |
| 20260831061556 | 23 | 211 | 4.8 | 12.9 | 0.00 | 0.00 | 0.00 | 89 | 1009.0 |
| 20260831061501 | 23 | 237 | 6.4 | 12.9 | 0.00 | 0.00 | 0.00 | 89 | 1009.0 |
| 20260831061426 | 23 | 247 | 8.0 | 12.9 | 0.00 | 0.00 | 0.00 | 89 | 1009.0 |
| 20260831061254 | 23 | 236 | 6.4 | 12.9 | 0.00 | 0.00 | 0.00 | 89 | 1009.1 |
| 20260831061159 | 23 | 235 | 4.8 | 12.9 | 0.00 | 0.00 | 0.00 | 89 | 1009.1 |
| 20260831061123 | 23 | 234 | 4.8 | 12.9 | 0.00 | 0.00 | 0.00 | 89 | 1009.0 |
| 20260831061007 | 23 | 244 | 6.4 | 12.9 | 0.00 | 0.00 | 0.00 | 89 | 1009.0 |
| 20260831060912 | 23 | 249 | 6.4 | 12.9 | 0.00 | 0.00 | 0.00 | 88 | 1009.0 |
| 20260831060757 | 23 | 263 | 6.4 | 12.9 | 0.00 | 0.00 | 0.00 | 88 | 1008.9 |
| 20260831060706 | 23 | 232 | 4.8 | 12.9 | 0.00 | 0.00 | 0.00 | 88 | 1008.9 |
| 20260831060611 | 23 | 242 | 4.8 | 12.9 | 0.00 | 0.00 | 0.00 | 88 | 1009.0 |
| 20260831060516 | 23 | 247 | 6.4 | 12.9 | 0.00 | 0.00 | 0.00 | 88 | 1009.0 |
| 20260831060354 | 23 | 250 | 6.4 | 12.9 | 0.00 | 0.00 | 0.00 | 88 | 1009.0 |
| 20260831060259 | 23 | 236 | 8.0 | 12.9 | 0.00 | 0.00 | 0.00 | 88 | 1008.9 |
| 20260831060204 | 23 | 239 | 8.0 | 12.9 | 0.00 | 0.00 | 0.00 | 88 | 1008.9 |
| 20260831060112 | 23 | 236 | 6.4 | 16.1 | 0.00 | 0.00 | 0.00 | 88 | 1008.9 |
| 20260831055957 | 23 | 232 | 6.4 | 17.7 | 0.00 | 0.00 | 0.00 | 88 | 1009.0 |
| 20260831055902 | 23 | 244 | 8.0 | 17.7 | 0.00 | 0.00 | 0.00 | 88 | 1008.9 |
| 20260831055807 | 23 | 223 | 8.0 | 17.7 | 0.00 | 0.00 | 0.00 | 88 | 1008.9 |
| 20260831055712 | 23 | 247 | 6.4 | 17.7 | 0.00 | 0.00 | 0.00 | 88 | 1009.0 |
| 20260831055556 | 23 | 234 | 6.4 | 17.7 | 0.00 | 0.00 | 0.00 | 88 | 1009.0 |
| 20260831055525 | 23 | 236 | 8.0 | 17.7 | 0.00 | 0.00 | 0.00 | 88 | 1009.0 |
| 20260831055428 | 23 | 234 | 9.7 | 17.7 | 0.00 | 0.00 | 0.00 | 88 | 1009.0 |
| 20260831055311 | 23 | 238 | 9.7 | 17.7 | 0.00 | 0.00 | 0.00 | 88 | 1009.0 |
| 20260831055216 | 23 | 220 | 8.0 | 14.5 | 0.00 | 0.00 | 0.00 | 88 | 1009.0 |
| 20260831055120 | 23 | 209 | 6.4 | 14.5 | 0.00 | 0.00 | 0.00 | 88 | 1008.9 |
| 20260831055004 | 23 | 239 | 6.4 | 14.5 | 0.00 | 0.00 | 0.00 | 88 | 1009.1 |
| 20260831054929 | 23 | 234 | 8.0 | 14.5 | 0.00 | 0.00 | 0.00 | 88 | 1009.1 |
| 20260831054812 | 23 | 246 | 9.7 | 14.5 | 0.00 | 0.00 | 0.00 | 88 | 1009.1 |
| 20260831054701 | 23 | 244 | 9.7 | 12.9 | 0.00 | 0.00 | 0.00 | 88 | 1009.1 |
| 20260831054606 | 23 | 228 | 8.0 | 12.9 | 0.00 | 0.00 | 0.00 | 88 | 1009.1 |
| 20260831054511 | 23 | 229 | 8.0 | 12.9 | 0.00 | 0.00 | 0.00 | 88 | 1009.1 |
| 20260831054356 | 23 | 232 | 8.0 | 14.5 | 0.00 | 0.00 | 0.00 | 88 | 1009.1 |
| 20260831054301 | 23 | 230 | 6.4 | 14.5 | 0.00 | 0.00 | 0.00 | 88 | 1009.2 |
| 20260831054205 | 23 | 251 | 4.8 | 17.7 | 0.00 | 0.00 | 0.00 | 88 | 1009.2 |
| 20260831054134 | 23 | 236 | 3.2 | 17.7 | 0.00 | 0.00 | 0.00 | 88 | 1009.2 |
| 20260831054017 | 23 | 236 | 4.8 | 17.7 | 0.00 | 0.00 | 0.00 | 88 | 1009.2 |
| 20260831053901 | 23 | 236 | 6.4 | 17.7 | 0.00 | 0.00 | 0.00 | 88 | 1009.1 |
| 20260831053806 | 23 | 236 | 6.4 | 17.7 | 0.00 | 0.00 | 0.00 | 88 | 1009.1 |
| 20260831053731 | 23 | 235 | 6.4 | 17.7 | 0.00 | 0.00 | 0.00 | 87 | 1009.1 |
| 20260831053555 | 23 | 238 | 8.0 | 17.7 | 0.00 | 0.00 | 0.00 | 88 | 1009.2 |
| 20260831053520 | 23 | 234 | 9.7 | 17.7 | 0.00 | 0.00 | 0.00 | 87 | 1009.1 |
| 20260831053407 | 23 | 222 | 8.0 | 12.9 | 0.00 | 0.00 | 0.00 | 87 | 1009.1 |
| 20260831053312 | 23 | 229 | 8.0 | 12.9 | 0.00 | 0.00 | 0.00 | 87 | 1009.2 |
| 20260831053237 | 23 | 257 | 4.8 | 11.3 | 0.00 | 0.00 | 0.00 | 87 | 1009.4 |
| 20260831053141 | 23 | 244 | 4.8 | 11.3 | 0.00 | 0.00 | 0.00 | 87 | 1009.4 |
| 20260831052958 | 23 | 236 | 4.8 | 11.3 | 0.00 | 0.00 | 0.00 | 87 | 1009.5 |
| 20260831052922 | 23 | 232 | 4.8 | 11.3 | 0.00 | 0.00 | 0.00 | 87 | 1009.5 |
| 20260831052806 | 23 | 233 | 4.8 | 11.3 | 0.00 | 0.00 | 0.00 | 87 | 1009.5 |
| 20260831052655 | 23 | 246 | 4.8 | 11.3 | 0.00 | 0.00 | 0.00 | 87 | 1009.5 |
| 20260831052620 | 23 | 245 | 4.8 | 11.3 | 0.00 | 0.00 | 0.00 | 87 | 1009.5 |
| 20260831052458 | 23 | 252 | 4.8 | 11.3 | 0.00 | 0.00 | 0.00 | 87 | 1009.5 |
| 20260831052402 | 23 | 236 | 4.8 | 11.3 | 0.00 | 0.00 | 0.00 | 87 | 1009.5 |
| 20260831052307 | 23 | 237 | 6.4 | 11.3 | 0.00 | 0.00 | 0.00 | 87 | 1009.5 |
| 20260831052212 | 23 | 259 | 6.4 | 14.5 | 0.00 | 0.00 | 0.00 | 87 | 1009.5 |
| 20260831052101 | 23 | 248 | 8.0 | 14.5 | 0.00 | 0.00 | 0.00 | 87 | 1009.5 |
| 20260831052005 | 23 | 227 | 8.0 | 14.5 | 0.00 | 0.00 | 0.00 | 87 | 1009.5 |
| 20260831051910 | 23 | 248 | 8.0 | 14.5 | 0.00 | 0.00 | 0.00 | 87 | 1009.5 |
| 20260831051755 | 23 | 237 | 6.4 | 14.5 | 0.00 | 0.00 | 0.00 | 87 | 1009.5 |
| 20260831051719 | 23 | 250 | 6.4 | 14.5 | 0.00 | 0.00 | 0.00 | 87 | 1009.5 |
| 20260831051623 | 23 | 234 | 8.0 | 14.5 | 0.00 | 0.00 | 0.00 | 87 | 1009.5 |
| 20260831051507 | 23 | 239 | 9.7 | 14.5 | 0.00 | 0.00 | 0.00 | 87 | 1009.5 |
| 20260831051356 | 23 | 235 | 8.0 | 16.1 | 0.00 | 0.00 | 0.00 | 87 | 1009.6 |
| 20260831051321 | 23 | 240 | 6.4 | 14.5 | 0.00 | 0.00 | 0.00 | 87 | 1009.6 |
| 20260831051157 | 23 | 233 | 6.4 | 14.5 | 0.00 | 0.00 | 0.00 | 87 | 1009.7 |
| 20260831051102 | 23 | 234 | 6.4 | 14.5 | 0.00 | 0.00 | 0.00 | 87 | 1009.7 |
| 20260831051007 | 23 | 234 | 9.7 | 14.5 | 0.00 | 0.00 | 0.00 | 87 | 1009.7 |
| 20260831050912 | 23 | 250 | 9.7 | 14.5 | 0.00 | 0.00 | 0.00 | 87 | 1009.6 |
| 20260831050801 | 23 | 267 | 8.0 | 14.5 | 0.00 | 0.00 | 0.00 | 87 | 1009.7 |
| 20260831050706 | 23 | 252 | 8.0 | 14.5 | 0.00 | 0.00 | 0.00 | 87 | 1009.7 |
| 20260831050611 | 23 | 259 | 8.0 | 14.5 | 0.00 | 0.00 | 0.00 | 87 | 1009.7 |
| 20260831050456 | 23 | 232 | 6.4 | 14.5 | 0.00 | 0.00 | 0.00 | 87 | 1009.7 |
| 20260831050401 | 23 | 236 | 8.0 | 14.5 | 0.00 | 0.00 | 0.00 | 87 | 1009.8 |
| 20260831050304 | 23 | 250 | 9.7 | 14.5 | 0.00 | 0.00 | 0.00 | 87 | 1009.7 |
| 20260831050233 | 23 | 241 | 8.0 | 14.5 | 0.00 | 0.00 | 0.00 | 87 | 1009.7 |
| 20260831050110 | 23 | 265 | 8.0 | 14.5 | 0.00 | 0.00 | 0.00 | 87 | 1009.7 |
| 20260831050015 | 23 | 231 | 6.4 | 14.5 | 0.00 | 0.00 | 0.00 | 87 | 1009.7 |
| 20260831045859 | 23 | 242 | 6.4 | 14.5 | 0.00 | 0.00 | 0.00 | 86 | 1009.8 |
| 20260831045824 | 23 | 272 | 8.0 | 14.5 | 0.00 | 0.00 | 0.00 | 86 | 1009.8 |
| 20260831045708 | 23 | 268 | 8.0 | 14.5 | 0.00 | 0.00 | 0.00 | 86 | 1009.8 |
| 20260831045613 | 23 | 271 | 8.0 | 14.5 | 0.00 | 0.00 | 0.00 | 86 | 1009.8 |
| 20260831045502 | 23 | 265 | 8.0 | 14.5 | 0.00 | 0.00 | 0.00 | 86 | 1009.8 |
| 20260831045407 | 23 | 254 | 6.4 | 14.5 | 0.00 | 0.00 | 0.00 | 86 | 1009.9 |
| 20260831045312 | 23 | 275 | 6.4 | 14.5 | 0.00 | 0.00 | 0.00 | 86 | 1009.9 |
| 20260831045217 | 23 | 261 | 6.4 | 14.5 | 0.00 | 0.00 | 0.00 | 86 | 1009.9 |
| 20260831045055 | 23 | 290 | 9.7 | 14.5 | 0.00 | 0.00 | 0.00 | 86 | 1009.9 |
| 20260831045000 | 23 | 267 | 9.7 | 14.5 | 0.00 | 0.00 | 0.00 | 86 | 1009.9 |
| 20260831044908 | 23 | 267 | 8.0 | 14.5 | 0.00 | 0.00 | 0.00 | 86 | 1009.9 |
| 20260831044813 | 23 | 249 | 8.0 | 14.5 | 0.00 | 0.00 | 0.00 | 86 | 1009.9 |
| 20260831044658 | 23 | 257 | 8.0 | 12.9 | 0.00 | 0.00 | 0.00 | 86 | 1010.0 |
| 20260831044603 | 23 | 360 | 8.0 | 12.9 | 0.00 | 0.00 | 0.00 | 86 | 1009.9 |
| 20260831044508 | 23 | 222 | 8.0 | 12.9 | 0.00 | 0.00 | 0.00 | 86 | 1009.9 |
| 20260831044357 | 23 | 260 | 8.0 | 14.5 | 0.00 | 0.00 | 0.00 | 86 | 1010.0 |
| 20260831044322 | 23 | 297 | 6.4 | 14.5 | 0.00 | 0.00 | 0.00 | 86 | 1009.9 |
| 20260831044206 | 23 | 254 | 6.4 | 14.5 | 0.00 | 0.00 | 0.00 | 86 | 1009.9 |
| 20260831044111 | 23 | 242 | 8.0 | 14.5 | 0.00 | 0.00 | 0.00 | 86 | 1009.9 |
| 20260831043956 | 23 | 236 | 8.0 | 14.5 | 0.00 | 0.00 | 0.00 | 86 | 1010.0 |
| 20260831043921 | 23 | 281 | 6.4 | 14.5 | 0.00 | 0.00 | 0.00 | 86 | 1010.0 |
| 20260831043824 | 23 | 248 | 6.4 | 14.5 | 0.00 | 0.00 | 0.00 | 86 | 1010.0 |
| 20260831043708 | 23 | 250 | 8.0 | 20.9 | 0.00 | 0.00 | 0.00 | 86 | 1010.0 |
| 20260831043617 | 23 | 253 | 9.7 | 20.9 | 0.00 | 0.00 | 0.00 | 86 | 1010.0 |
| 20260831043455 | 23 | 262 | 6.4 | 20.9 | 0.00 | 0.00 | 0.00 | 86 | 1010.1 |
| 20260831043419 | 24 | 263 | 6.4 | 20.9 | 0.00 | 0.00 | 0.00 | 86 | 1010.1 |
| 20260831043323 | 24 | 261 | 8.0 | 20.9 | 0.00 | 0.00 | 0.00 | 86 | 1010.1 |
| 20260831043206 | 24 | 246 | 9.7 | 20.9 | 0.00 | 0.00 | 0.00 | 86 | 1010.1 |
| 20260831043111 | 24 | 229 | 6.4 | 20.9 | 0.00 | 0.00 | 0.00 | 86 | 1010.1 |
| 20260831043000 | 24 | 260 | 8.0 | 20.9 | 0.00 | 0.00 | 0.00 | 86 | 1010.0 |
| 20260831042925 | 24 | 224 | 12.9 | 20.9 | 0.00 | 0.00 | 0.00 | 86 | 1009.9 |
| 20260831042809 | 24 | 293 | 11.3 | 20.9 | 0.00 | 0.00 | 0.00 | 86 | 1009.9 |
| 20260831042734 | 24 | 296 | 9.7 | 17.7 | 0.00 | 0.00 | 0.00 | 86 | 1009.9 |
| 20260831042558 | 24 | 261 | 11.3 | 20.9 | 0.00 | 0.00 | 0.00 | 85 | 1009.9 |
| 20260831042503 | 24 | 291 | 11.3 | 20.9 | 0.00 | 0.00 | 0.00 | 85 | 1009.9 |
| 20260831042408 | 24 | 252 | 11.3 | 20.9 | 0.00 | 0.00 | 0.00 | 85 | 1009.9 |
| 20260831042257 | 24 | 257 | 8.0 | 20.9 | 0.00 | 0.00 | 0.00 | 85 | 1009.9 |
| 20260831042202 | 24 | 247 | 8.0 | 20.9 | 0.00 | 0.00 | 0.00 | 85 | 1010.0 |
| 20260831042127 | 24 | 240 | 9.7 | 20.9 | 0.00 | 0.00 | 0.00 | 85 | 1010.0 |
| 20260831042011 | 24 | 276 | 9.7 | 20.9 | 0.00 | 0.00 | 0.00 | 85 | 1010.0 |
| 20260831041915 | 24 | 254 | 11.3 | 20.9 | 0.00 | 0.00 | 0.00 | 85 | 1010.0 |
| 20260831041819 | 24 | 296 | 11.3 | 20.9 | 0.00 | 0.00 | 0.00 | 85 | 1010.0 |
| 20260831041702 | 24 | 252 | 11.3 | 20.9 | 0.00 | 0.00 | 0.00 | 85 | 1010.0 |
| 20260831041627 | 24 | 253 | 8.0 | 17.7 | 0.00 | 0.00 | 0.00 | 85 | 1010.0 |
| 20260831041513 | 24 | 255 | 9.7 | 17.7 | 0.00 | 0.00 | 0.00 | 85 | 1010.0 |
| 20260831041358 | 24 | 269 | 9.7 | 17.7 | 0.00 | 0.00 | 0.00 | 85 | 1010.0 |
| 20260831041323 | 24 | 284 | 8.0 | 17.7 | 0.00 | 0.00 | 0.00 | 85 | 1009.9 |
| 20260831041207 | 24 | 261 | 8.0 | 17.7 | 0.00 | 0.00 | 0.00 | 85 | 1009.9 |
| 20260831041112 | 24 | 290 | 11.3 | 17.7 | 0.00 | 0.00 | 0.00 | 85 | 1009.9 |
| 20260831041017 | 24 | 259 | 9.7 | 17.7 | 0.00 | 0.00 | 0.00 | 85 | 1009.9 |
| 20260831040904 | 24 | 268 | 8.0 | 19.3 | 0.00 | 0.00 | 0.00 | 85 | 1010.0 |
| 20260831040809 | 24 | 235 | 8.0 | 19.3 | 0.00 | 0.00 | 0.00 | 85 | 1010.0 |
| 20260831040654 | 24 | 244 | 9.7 | 19.3 | 0.00 | 0.00 | 0.00 | 85 | 1010.0 |
| 20260831040558 | 24 | 252 | 11.3 | 19.3 | 0.00 | 0.00 | 0.00 | 85 | 1010.0 |
| 20260831040523 | 24 | 283 | 9.7 | 19.3 | 0.00 | 0.00 | 0.00 | 85 | 1010.0 |
| 20260831040407 | 24 | 254 | 8.0 | 19.3 | 0.00 | 0.00 | 0.00 | 85 | 1010.0 |
| 20260831040256 | 24 | 265 | 9.7 | 19.3 | 0.00 | 0.00 | 0.00 | 84 | 1009.9 |
| 20260831040201 | 24 | 252 | 9.7 | 19.3 | 0.00 | 0.00 | 0.00 | 84 | 1009.9 |
| 20260831040106 | 24 | 294 | 8.0 | 19.3 | 0.00 | 0.00 | 0.00 | 84 | 1009.9 |
| 20260831040011 | 24 | 255 | 6.4 | 19.3 | 0.00 | 0.00 | 0.00 | 84 | 1009.9 |
| 20260831035855 | 24 | 360 | 9.7 | 19.3 | 0.00 | 0.00 | 0.00 | 84 | 1009.9 |
| 20260831035800 | 24 | 254 | 11.3 | 19.3 | 0.00 | 0.00 | 0.00 | 84 | 1009.8 |
| 20260831035708 | 24 | 236 | 12.9 | 19.3 | 0.00 | 0.00 | 0.00 | 84 | 1009.8 |
| 20260831035613 | 24 | 261 | 12.9 | 19.3 | 0.00 | 0.00 | 0.00 | 84 | 1009.8 |
| 20260831035537 | 24 | 246 | 11.3 | 19.3 | 0.00 | 0.00 | 0.00 | 84 | 1009.9 |
| 20260831035355 | 24 | 245 | 8.0 | 19.3 | 0.00 | 0.00 | 0.00 | 84 | 1009.9 |
| 20260831035300 | 24 | 298 | 8.0 | 19.3 | 0.00 | 0.00 | 0.00 | 84 | 1009.8 |
| 20260831035224 | 24 | 222 | 11.3 | 19.3 | 0.00 | 0.00 | 0.00 | 84 | 1009.9 |
| 20260831035108 | 24 | 271 | 11.3 | 19.3 | 0.00 | 0.00 | 0.00 | 84 | 1009.8 |
| 20260831035016 | 24 | 259 | 11.3 | 19.3 | 0.00 | 0.00 | 0.00 | 84 | 1009.8 |
| 20260831034859 | 24 | 263 | 11.3 | 17.7 | 0.00 | 0.00 | 0.00 | 84 | 1009.8 |
| 20260831034824 | 24 | 270 | 11.3 | 20.9 | 0.00 | 0.00 | 0.00 | 84 | 1009.8 |
| 20260831034707 | 24 | 257 | 12.9 | 20.9 | 0.00 | 0.00 | 0.00 | 84 | 1009.8 |
| 20260831034612 | 24 | 254 | 11.3 | 20.9 | 0.00 | 0.00 | 0.00 | 84 | 1009.8 |
| 20260831034457 | 24 | 281 | 8.0 | 20.9 | 0.00 | 0.00 | 0.00 | 84 | 1009.9 |
| 20260831034402 | 24 | 269 | 9.7 | 20.9 | 0.00 | 0.00 | 0.00 | 84 | 1009.9 |
| 20260831034310 | 24 | 230 | 8.0 | 20.9 | 0.00 | 0.00 | 0.00 | 84 | 1009.9 |
| 20260831034212 | 24 | 280 | 11.3 | 20.9 | 0.00 | 0.00 | 0.00 | 84 | 1009.9 |
| 20260831034056 | 24 | 267 | 12.9 | 20.9 | 0.00 | 0.00 | 0.00 | 84 | 1009.8 |
| 20260831034001 | 24 | 267 | 11.3 | 20.9 | 0.00 | 0.00 | 0.00 | 83 | 1009.8 |
| 20260831033905 | 24 | 273 | 9.7 | 17.7 | 0.00 | 0.00 | 0.00 | 83 | 1009.8 |
| 20260831033810 | 25 | 238 | 11.3 | 17.7 | 0.00 | 0.00 | 0.00 | 83 | 1009.8 |
| 20260831033719 | 25 | 242 | 8.0 | 17.7 | 0.00 | 0.00 | 0.00 | 83 | 1009.8 |
| 20260831033603 | 25 | 251 | 9.7 | 17.7 | 0.00 | 0.00 | 0.00 | 83 | 1009.9 |
| 20260831033508 | 25 | 281 | 8.0 | 17.7 | 0.00 | 0.00 | 0.00 | 83 | 1009.9 |
| 20260831033413 | 25 | 265 | 8.0 | 17.7 | 0.00 | 0.00 | 0.00 | 83 | 1009.8 |
| 20260831033257 | 25 | 235 | 8.0 | 14.5 | 0.00 | 0.00 | 0.00 | 83 | 1009.8 |
| 20260831033202 | 25 | 277 | 8.0 | 14.5 | 0.00 | 0.00 | 0.00 | 83 | 1009.8 |
| 20260831033126 | 25 | 223 | 8.0 | 14.5 | 0.00 | 0.00 | 0.00 | 83 | 1009.9 |
| 20260831032954 | 25 | 251 | 8.0 | 14.5 | 0.00 | 0.00 | 0.00 | 83 | 1009.9 |
| 20260831032859 | 25 | 231 | 8.0 | 14.5 | 0.00 | 0.00 | 0.00 | 83 | 1009.9 |
| 20260831032804 | 25 | 251 | 6.4 | 14.5 | 0.00 | 0.00 | 0.00 | 82 | 1010.0 |
| 20260831032709 | 25 | 265 | 6.4 | 16.1 | 0.00 | 0.00 | 0.00 | 82 | 1010.0 |
| 20260831032554 | 25 | 254 | 8.0 | 16.1 | 0.00 | 0.00 | 0.00 | 82 | 1010.0 |
| 20260831032459 | 25 | 259 | 8.0 | 16.1 | 0.00 | 0.00 | 0.00 | 82 | 1009.9 |
| 20260831032407 | 25 | 276 | 8.0 | 16.1 | 0.00 | 0.00 | 0.00 | 82 | 1009.9 |
| 20260831032312 | 25 | 252 | 8.0 | 16.1 | 0.00 | 0.00 | 0.00 | 82 | 1009.9 |
| 20260831032217 | 25 | 253 | 6.4 | 16.1 | 0.00 | 0.00 | 0.00 | 82 | 1009.8 |
| 20260831032055 | 25 | 242 | 6.4 | 16.1 | 0.00 | 0.00 | 0.00 | 82 | 1009.8 |
| 20260831032020 | 25 | 240 | 8.0 | 16.1 | 0.00 | 0.00 | 0.00 | 82 | 1009.8 |
| 20260831031904 | 25 | 270 | 9.7 | 16.1 | 0.00 | 0.00 | 0.00 | 82 | 1009.8 |
| 20260831031813 | 25 | 244 | 9.7 | 16.1 | 0.00 | 0.00 | 0.00 | 82 | 1009.8 |
| 20260831031658 | 25 | 247 | 11.3 | 17.7 | 0.00 | 0.00 | 0.00 | 82 | 1009.7 |
| 20260831031622 | 25 | 245 | 11.3 | 17.7 | 0.00 | 0.00 | 0.00 | 82 | 1009.7 |
| 20260831031506 | 25 | 273 | 8.0 | 19.3 | 0.00 | 0.00 | 0.00 | 82 | 1009.7 |
| 20260831031431 | 25 | 273 | 8.0 | 19.3 | 0.00 | 0.00 | 0.00 | 82 | 1009.7 |
| 20260831031315 | 25 | 244 | 6.4 | 19.3 | 0.00 | 0.00 | 0.00 | 82 | 1009.7 |
| 20260831031218 | 25 | 228 | 9.7 | 19.3 | 0.00 | 0.00 | 0.00 | 81 | 1009.7 |
| 20260831031122 | 25 | 261 | 11.3 | 19.3 | 0.00 | 0.00 | 0.00 | 81 | 1009.8 |
| 20260831031010 | 25 | 267 | 9.7 | 19.3 | 0.00 | 0.00 | 0.00 | 81 | 1009.8 |
| 20260831030854 | 25 | 261 | 8.0 | 19.3 | 0.00 | 0.00 | 0.00 | 81 | 1009.7 |
| 20260831030819 | 25 | 252 | 9.7 | 19.3 | 0.00 | 0.00 | 0.00 | 81 | 1009.7 |
| 20260831030657 | 25 | 256 | 11.3 | 20.9 | 0.00 | 0.00 | 0.00 | 81 | 1009.7 |
| 20260831030602 | 25 | 236 | 9.7 | 20.9 | 0.00 | 0.00 | 0.00 | 81 | 1009.7 |
| 20260831030507 | 25 | 247 | 8.0 | 20.9 | 0.00 | 0.00 | 0.00 | 81 | 1009.6 |
| 20260831030416 | 25 | 268 | 9.7 | 20.9 | 0.00 | 0.00 | 0.00 | 81 | 1009.6 |
| 20260831030300 | 25 | 259 | 9.7 | 20.9 | 0.00 | 0.00 | 0.00 | 81 | 1009.6 |
| 20260831030205 | 25 | 228 | 8.0 | 20.9 | 0.00 | 0.00 | 0.00 | 81 | 1009.6 |
| 20260831030110 | 25 | 227 | 8.0 | 20.9 | 0.00 | 0.00 | 0.00 | 81 | 1009.6 |
| 20260831030015 | 25 | 232 | 9.7 | 20.9 | 0.00 | 0.00 | 0.00 | 81 | 1009.6 |
| 20260831025940 | 25 | 254 | 11.3 | 20.9 | 0.00 | 0.00 | 0.00 | 81 | 1009.5 |
| 20260831025756 | 25 | 259 | 9.7 | 16.1 | 0.00 | 0.00 | 0.00 | 81 | 1009.4 |
| 20260831025725 | 25 | 292 | 9.7 | 14.5 | 0.00 | 0.00 | 0.00 | 80 | 1009.5 |
| 20260831025609 | 25 | 236 | 8.0 | 14.5 | 0.00 | 0.00 | 0.00 | 80 | 1009.5 |
| 20260831025454 | 25 | 244 | 6.4 | 14.5 | 0.00 | 0.00 | 0.00 | 80 | 1009.5 |
| 20260831025359 | 25 | 241 | 8.0 | 19.3 | 0.00 | 0.00 | 0.00 | 80 | 1009.5 |
| 20260831025306 | 25 | 242 | 8.0 | 20.9 | 0.00 | 0.00 | 0.00 | 80 | 1009.4 |
| 20260831025229 | 25 | 225 | 9.7 | 20.9 | 0.00 | 0.00 | 0.00 | 80 | 1009.4 |
| 20260831025057 | 25 | 227 | 11.3 | 20.9 | 0.00 | 0.00 | 0.00 | 80 | 1009.5 |
| 20260831025002 | 25 | 215 | 11.3 | 22.5 | 0.00 | 0.00 | 0.00 | 79 | 1009.5 |
| 20260831024907 | 25 | 251 | 9.7 | 22.5 | 0.00 | 0.00 | 0.00 | 79 | 1009.5 |
| 20260831024812 | 25 | 236 | 9.7 | 22.5 | 0.00 | 0.00 | 0.00 | 79 | 1009.5 |
| 20260831024656 | 25 | 264 | 14.5 | 22.5 | 0.00 | 0.00 | 0.00 | 79 | 1009.5 |
| 20260831024600 | 25 | 254 | 16.1 | 22.5 | 0.00 | 0.00 | 0.00 | 79 | 1009.6 |
| 20260831024524 | 25 | 285 | 14.5 | 22.5 | 0.00 | 0.00 | 0.00 | 79 | 1009.6 |
| 20260831024412 | 25 | 248 | 12.9 | 22.5 | 0.00 | 0.00 | 0.00 | 79 | 1009.6 |
| 20260831024317 | 25 | 232 | 12.9 | 22.5 | 0.00 | 0.00 | 0.00 | 79 | 1009.6 |
| 20260831024155 | 25 | 237 | 14.5 | 22.5 | 0.00 | 0.00 | 0.00 | 79 | 1009.6 |
| 20260831024100 | 25 | 251 | 12.9 | 22.5 | 0.00 | 0.00 | 0.00 | 78 | 1009.6 |
| 20260831024005 | 25 | 250 | 11.3 | 20.9 | 0.00 | 0.00 | 0.00 | 78 | 1009.6 |
| 20260831023909 | 25 | 234 | 9.7 | 20.9 | 0.00 | 0.00 | 0.00 | 78 | 1009.6 |
| 20260831023758 | 25 | 250 | 9.7 | 20.9 | 0.00 | 0.00 | 0.00 | 78 | 1009.7 |
| 20260831023703 | 25 | 255 | 11.3 | 24.1 | 0.00 | 0.00 | 0.00 | 78 | 1009.7 |
| 20260831023607 | 26 | 217 | 11.3 | 24.1 | 0.00 | 0.00 | 0.00 | 78 | 1009.7 |
| 20260831023532 | 26 | 216 | 9.7 | 24.1 | 0.00 | 0.00 | 0.00 | 78 | 1009.7 |
| 20260831023355 | 26 | 237 | 12.9 | 24.1 | 0.00 | 0.00 | 0.00 | 77 | 1009.7 |
| 20260831023300 | 26 | 253 | 14.5 | 24.1 | 0.00 | 0.00 | 0.00 | 77 | 1009.7 |
| 20260831023209 | 26 | 242 | 12.9 | 24.1 | 0.00 | 0.00 | 0.00 | 77 | 1009.7 |
| 20260831023054 | 26 | 232 | 12.9 | 24.1 | 0.00 | 0.00 | 0.00 | 77 | 1009.7 |
| 20260831022959 | 26 | 222 | 14.5 | 24.1 | 0.00 | 0.00 | 0.00 | 77 | 1009.7 |
| 20260831022924 | 26 | 284 | 14.5 | 24.1 | 0.00 | 0.00 | 0.00 | 77 | 1009.7 |
| 20260831022807 | 26 | 225 | 12.9 | 20.9 | 0.00 | 0.00 | 0.00 | 77 | 1009.7 |
| 20260831022712 | 26 | 259 | 9.7 | 20.9 | 0.00 | 0.00 | 0.00 | 76 | 1009.7 |
| 20260831022601 | 26 | 252 | 11.3 | 20.9 | 0.00 | 0.00 | 0.00 | 76 | 1009.7 |
| 20260831022506 | 26 | 231 | 12.9 | 20.9 | 0.00 | 0.00 | 0.00 | 76 | 1009.7 |
| 20260831022411 | 26 | 245 | 14.5 | 20.9 | 0.00 | 0.00 | 0.00 | 76 | 1009.7 |
| 20260831022256 | 26 | 265 | 12.9 | 20.9 | 0.00 | 0.00 | 0.00 | 76 | 1009.7 |
| 20260831022200 | 26 | 247 | 9.7 | 20.9 | 0.00 | 0.00 | 0.00 | 76 | 1009.7 |
| 20260831022104 | 26 | 224 | 9.7 | 20.9 | 0.00 | 0.00 | 0.00 | 76 | 1009.6 |
| 20260831022029 | 26 | 242 | 11.3 | 20.9 | 0.00 | 0.00 | 0.00 | 76 | 1009.6 |
| 20260831021857 | 26 | 238 | 9.7 | 22.5 | 0.00 | 0.00 | 0.00 | 75 | 1009.7 |
| 20260831021801 | 26 | 224 | 9.7 | 22.5 | 0.00 | 0.00 | 0.00 | 75 | 1009.7 |
| 20260831021726 | 26 | 268 | 11.3 | 22.5 | 0.00 | 0.00 | 0.00 | 75 | 1009.6 |
| 20260831021610 | 26 | 228 | 11.3 | 22.5 | 0.00 | 0.00 | 0.00 | 75 | 1009.6 |
| 20260831021515 | 26 | 274 | 9.7 | 22.5 | 0.00 | 0.00 | 0.00 | 75 | 1009.6 |
| 20260831021359 | 26 | 289 | 11.3 | 22.5 | 0.00 | 0.00 | 0.00 | 75 | 1009.6 |
| 20260831021308 | 26 | 263 | 12.9 | 22.5 | 0.00 | 0.00 | 0.00 | 75 | 1009.6 |
| 20260831021213 | 26 | 233 | 12.9 | 22.5 | 0.00 | 0.00 | 0.00 | 75 | 1009.5 |
| 20260831021117 | 26 | 220 | 12.9 | 22.5 | 0.00 | 0.00 | 0.00 | 75 | 1009.5 |
| 20260831020955 | 26 | 261 | 9.7 | 22.5 | 0.00 | 0.00 | 0.00 | 75 | 1009.5 |
| 20260831020859 | 26 | 267 | 11.3 | 24.1 | 0.00 | 0.00 | 0.00 | 75 | 1009.6 |
| 20260831020824 | 26 | 265 | 12.9 | 24.1 | 0.00 | 0.00 | 0.00 | 74 | 1009.5 |
| 20260831020708 | 26 | 257 | 11.3 | 24.1 | 0.00 | 0.00 | 0.00 | 74 | 1009.5 |
| 20260831020617 | 26 | 236 | 9.7 | 24.1 | 0.00 | 0.00 | 0.00 | 74 | 1009.4 |
| 20260831020455 | 26 | 225 | 12.9 | 24.1 | 0.00 | 0.00 | 0.00 | 74 | 1009.5 |
| 20260831020400 | 26 | 289 | 12.9 | 24.1 | 0.00 | 0.00 | 0.00 | 74 | 1009.5 |
| 20260831020324 | 26 | 241 | 12.9 | 24.1 | 0.00 | 0.00 | 0.00 | 74 | 1009.4 |
| 20260831020208 | 26 | 265 | 14.5 | 24.1 | 0.00 | 0.00 | 0.00 | 74 | 1009.4 |
| 20260831020112 | 26 | 252 | 12.9 | 24.1 | 0.00 | 0.00 | 0.00 | 74 | 1009.5 |
| 20260831020001 | 26 | 258 | 12.9 | 24.1 | 0.00 | 0.00 | 0.00 | 74 | 1009.6 |
| 20260831015906 | 26 | 238 | 14.5 | 24.1 | 0.00 | 0.00 | 0.00 | 74 | 1009.5 |
| 20260831015811 | 27 | 273 | 14.5 | 25.7 | 0.00 | 0.00 | 0.00 | 74 | 1009.5 |
| 20260831015715 | 27 | 260 | 16.1 | 25.7 | 0.00 | 0.00 | 0.00 | 74 | 1009.6 |
| 20260831015640 | 27 | 257 | 16.1 | 25.7 | 0.00 | 0.00 | 0.00 | 74 | 1009.7 |
| 20260831015457 | 27 | 269 | 16.1 | 25.7 | 0.00 | 0.00 | 0.00 | 73 | 1009.6 |
| 20260831015402 | 27 | 225 | 14.5 | 25.7 | 0.00 | 0.00 | 0.00 | 74 | 1009.6 |
| 20260831015311 | 27 | 250 | 14.5 | 25.7 | 0.00 | 0.00 | 0.00 | 73 | 1009.6 |
| 20260831015216 | 27 | 266 | 14.5 | 25.7 | 0.00 | 0.00 | 0.00 | 74 | 1009.8 |
| 20260831015100 | 27 | 232 | 14.5 | 25.7 | 0.00 | 0.00 | 0.00 | 74 | 1009.7 |
| 20260831015004 | 27 | 236 | 14.5 | 33.8 | 0.00 | 0.00 | 0.00 | 74 | 1009.8 |
| 20260831014909 | 27 | 283 | 16.1 | 33.8 | 0.00 | 0.00 | 0.00 | 74 | 1009.8 |
| 20260831014754 | 27 | 254 | 16.1 | 33.8 | 0.00 | 0.00 | 0.00 | 74 | 1009.6 |
| 20260831014703 | 27 | 238 | 16.1 | 33.8 | 0.00 | 0.00 | 0.00 | 74 | 1009.7 |
| 20260831014608 | 27 | 255 | 17.7 | 33.8 | 0.00 | 0.00 | 0.00 | 75 | 1009.7 |
| 20260831014533 | 27 | 243 | 16.1 | 33.8 | 0.00 | 0.00 | 0.00 | 75 | 1009.6 |
| 20260831014357 | 27 | 274 | 17.7 | 33.8 | 0.00 | 0.00 | 0.00 | 76 | 1009.5 |
| 20260831014302 | 27 | 235 | 20.9 | 33.8 | 0.00 | 0.00 | 0.00 | 76 | 1009.5 |
| 20260831014228 | 26 | 227 | 19.3 | 33.8 | 0.00 | 0.00 | 0.00 | 77 | 1009.6 |
| 20260831014132 | 26 | 259 | 17.7 | 29.0 | 0.00 | 0.00 | 0.00 | 78 | 1009.6 |
| 20260831014019 | 26 | 243 | 17.7 | 29.0 | 0.00 | 0.00 | 0.00 | 79 | 1009.6 |
| 20260831013857 | 26 | 231 | 16.1 | 22.5 | 0.00 | 0.00 | 0.00 | 80 | 1009.5 |
| 20260831013802 | 26 | 256 | 12.9 | 16.1 | 0.00 | 0.00 | 0.00 | 81 | 1009.5 |
| 20260831013707 | 26 | 244 | 12.9 | 17.7 | 0.00 | 0.00 | 0.00 | 82 | 1009.5 |
| 20260831013611 | 26 | 243 | 11.3 | 16.1 | 0.00 | 0.00 | 0.00 | 82 | 1009.5 |
| 20260831013456 | 26 | 236 | 8.0 | 14.5 | 0.00 | 0.00 | 0.00 | 83 | 1009.5 |
| 20260831013425 | 26 | 221 | 8.0 | 16.1 | 0.00 | 0.00 | 0.00 | 83 | 1009.5 |
| 20260831013309 | 26 | 248 | 9.7 | 16.1 | 0.00 | 0.00 | 0.00 | 83 | 1009.5 |
| 20260831013154 | 26 | 206 | 9.7 | 16.1 | 0.00 | 0.00 | 0.00 | 83 | 1009.4 |
| 20260831013058 | 26 | 221 | 8.0 | 16.1 | 0.00 | 0.00 | 0.00 | 83 | 1009.4 |
| 20260831013003 | 26 | 217 | 6.4 | 16.1 | 0.00 | 0.00 | 0.00 | 83 | 1009.4 |
| 20260831012927 | 26 | 216 | 8.0 | 16.1 | 0.00 | 0.00 | 0.00 | 83 | 1009.4 |
| 20260831012754 | 26 | 211 | 9.7 | 16.1 | 0.00 | 0.00 | 0.00 | 83 | 1009.2 |
| 20260831012659 | 26 | 215 | 11.3 | 16.1 | 0.00 | 0.00 | 0.00 | 83 | 1009.2 |
| 20260831012624 | 26 | 226 | 11.3 | 16.1 | 0.00 | 0.00 | 0.00 | 83 | 1009.2 |
| 20260831012508 | 26 | 234 | 9.7 | 16.1 | 0.00 | 0.00 | 0.00 | 83 | 1009.2 |
| 20260831012433 | 26 | 212 | 9.7 | 16.1 | 0.00 | 0.00 | 0.00 | 83 | 1009.1 |
| 20260831012256 | 26 | 192 | 9.7 | 17.7 | 0.00 | 0.00 | 0.00 | 83 | 1009.1 |
| 20260831012201 | 26 | 225 | 9.7 | 17.7 | 0.00 | 0.00 | 0.00 | 83 | 1009.0 |
| 20260831012126 | 26 | 209 | 9.7 | 17.7 | 0.00 | 0.00 | 0.00 | 83 | 1009.1 |
| 20260831011954 | 26 | 226 | 11.3 | 17.7 | 0.00 | 0.00 | 0.00 | 83 | 1009.1 |
| 20260831011919 | 26 | 220 | 11.3 | 17.7 | 0.00 | 0.00 | 0.00 | 83 | 1009.2 |
| 20260831011803 | 26 | 221 | 11.3 | 17.7 | 0.00 | 0.00 | 0.00 | 82 | 1009.1 |
| 20260831011708 | 26 | 231 | 11.3 | 17.7 | 0.00 | 0.00 | 0.00 | 82 | 1009.1 |
| 20260831011633 | 26 | 201 | 11.3 | 17.7 | 0.00 | 0.00 | 0.00 | 82 | 1009.1 |
| 20260831011517 | 26 | 209 | 11.3 | 17.7 | 0.00 | 0.00 | 0.00 | 82 | 1009.1 |
| 20260831011357 | 26 | 207 | 11.3 | 16.1 | 0.00 | 0.00 | 0.00 | 82 | 1009.1 |
| 20260831011306 | 26 | 213 | 11.3 | 16.1 | 0.00 | 0.00 | 0.00 | 82 | 1009.1 |
| 20260831011211 | 26 | 235 | 11.3 | 16.1 | 0.00 | 0.00 | 0.00 | 82 | 1009.1 |
| 20260831011055 | 26 | 221 | 11.3 | 16.1 | 0.00 | 0.00 | 0.00 | 82 | 1009.1 |
| 20260831011000 | 26 | 225 | 11.3 | 16.1 | 0.00 | 0.00 | 0.00 | 82 | 1009.1 |
| 20260831010904 | 26 | 213 | 11.3 | 16.1 | 0.00 | 0.00 | 0.00 | 82 | 1009.1 |
| 20260831010807 | 26 | 203 | 9.7 | 16.1 | 0.00 | 0.00 | 0.00 | 82 | 1009.1 |
| 20260831010656 | 27 | 219 | 8.0 | 16.1 | 0.00 | 0.00 | 0.00 | 82 | 1009.1 |
| 20260831010621 | 27 | 231 | 9.7 | 16.1 | 0.00 | 0.00 | 0.00 | 82 | 1009.1 |
| 20260831010523 | 27 | 208 | 9.7 | 16.1 | 0.00 | 0.00 | 0.00 | 82 | 1009.1 |
| 20260831010405 | 27 | 223 | 9.7 | 16.1 | 0.00 | 0.00 | 0.00 | 82 | 1009.1 |
| 20260831010310 | 27 | 200 | 11.3 | 16.1 | 0.00 | 0.00 | 0.00 | 82 | 1009.1 |
| 20260831010155 | 27 | 216 | 11.3 | 17.7 | 0.00 | 0.00 | 0.00 | 82 | 1009.1 |
| 20260831010100 | 27 | 211 | 11.3 | 16.1 | 0.00 | 0.00 | 0.00 | 82 | 1009.1 |
| 20260831010009 | 27 | 214 | 9.7 | 16.1 | 0.00 | 0.00 | 0.00 | 82 | 1009.1 |
| 20260831005934 | 27 | 215 | 9.7 | 16.1 | 0.00 | 0.00 | 0.00 | 82 | 1009.0 |
| 20260831005758 | 27 | 191 | 9.7 | 16.1 | 0.00 | 0.00 | 0.00 | 82 | 1009.0 |
| 20260831005703 | 27 | 192 | 8.0 | 16.1 | 0.00 | 0.00 | 0.00 | 82 | 1009.0 |
| 20260831005608 | 27 | 180 | 9.7 | 16.1 | 0.00 | 0.00 | 0.00 | 82 | 1009.0 |
| 20260831005512 | 27 | 174 | 11.3 | 16.1 | 0.00 | 0.00 | 0.00 | 82 | 1009.0 |
| 20260831005401 | 27 | 175 | 11.3 | 17.7 | 0.00 | 0.00 | 0.00 | 82 | 1008.9 |
| 20260831005327 | 27 | 195 | 9.7 | 17.7 | 0.00 | 0.00 | 0.00 | 82 | 1008.8 |
| 20260831005231 | 27 | 169 | 11.3 | 17.7 | 0.00 | 0.00 | 0.00 | 82 | 1008.8 |
| 20260831005134 | 27 | 173 | 12.9 | 17.7 | 0.00 | 0.00 | 0.00 | 81 | 1008.9 |
| 20260831004958 | 27 | 173 | 12.9 | 17.7 | 0.00 | 0.00 | 0.00 | 81 | 1008.8 |
| 20260831004903 | 27 | 171 | 12.9 | 17.7 | 0.00 | 0.00 | 0.00 | 81 | 1008.8 |
| 20260831004808 | 27 | 194 | 12.9 | 17.7 | 0.00 | 0.00 | 0.00 | 81 | 1008.8 |
| 20260831004733 | 27 | 157 | 12.9 | 17.7 | 0.00 | 0.00 | 0.00 | 81 | 1008.8 |
| 20260831004600 | 27 | 198 | 12.9 | 17.7 | 0.00 | 0.00 | 0.00 | 81 | 1008.8 |
| 20260831004505 | 27 | 175 | 11.3 | 17.7 | 0.00 | 0.00 | 0.00 | 81 | 1008.9 |
| 20260831004410 | 27 | 186 | 11.3 | 17.7 | 0.00 | 0.00 | 0.00 | 81 | 1008.9 |
| 20260831004255 | 27 | 188 | 11.3 | 16.1 | 0.00 | 0.00 | 0.00 | 81 | 1008.9 |
| 20260831004200 | 27 | 201 | 9.7 | 16.1 | 0.00 | 0.00 | 0.00 | 81 | 1008.9 |
| 20260831004105 | 27 | 182 | 8.0 | 16.1 | 0.00 | 0.00 | 0.00 | 81 | 1009.0 |
| 20260831003954 | 27 | 194 | 6.4 | 16.1 | 0.00 | 0.00 | 0.00 | 81 | 1009.0 |
| 20260831003859 | 27 | 190 | 9.7 | 16.1 | 0.00 | 0.00 | 0.00 | 80 | 1009.0 |
| 20260831003804 | 27 | 183 | 9.7 | 16.1 | 0.00 | 0.00 | 0.00 | 80 | 1009.1 |
| 20260831003709 | 27 | 190 | 11.3 | 16.1 | 0.00 | 0.00 | 0.00 | 80 | 1009.1 |
| 20260831003613 | 27 | 203 | 11.3 | 16.1 | 0.00 | 0.00 | 0.00 | 80 | 1009.1 |
| 20260831003517 | 27 | 190 | 11.3 | 16.1 | 0.00 | 0.00 | 0.00 | 80 | 1009.1 |
| 20260831003405 | 27 | 188 | 9.7 | 16.1 | 0.00 | 0.00 | 0.00 | 80 | 1009.1 |
| 20260831003310 | 27 | 197 | 11.3 | 16.1 | 0.00 | 0.00 | 0.00 | 80 | 1009.1 |
| 20260831003215 | 27 | 207 | 12.9 | 16.1 | 0.00 | 0.00 | 0.00 | 80 | 1009.2 |
| 20260831003059 | 27 | 187 | 12.9 | 20.9 | 0.00 | 0.00 | 0.00 | 80 | 1009.1 |
| 20260831003023 | 27 | 202 | 11.3 | 20.9 | 0.00 | 0.00 | 0.00 | 80 | 1009.1 |
| 20260831002927 | 27 | 196 | 9.7 | 20.9 | 0.00 | 0.00 | 0.00 | 80 | 1009.1 |
| 20260831002811 | 27 | 206 | 8.0 | 20.9 | 0.00 | 0.00 | 0.00 | 80 | 1009.1 |
| 20260831002700 | 27 | 191 | 9.7 | 20.9 | 0.00 | 0.00 | 0.00 | 80 | 1009.0 |
| 20260831002605 | 27 | 199 | 11.3 | 20.9 | 0.00 | 0.00 | 0.00 | 79 | 1009.1 |
| 20260831002510 | 27 | 197 | 12.9 | 20.9 | 0.00 | 0.00 | 0.00 | 79 | 1009.1 |
| 20260831002355 | 27 | 203 | 14.5 | 20.9 | 0.00 | 0.00 | 0.00 | 79 | 1008.9 |
| 20260831002259 | 27 | 197 | 14.5 | 20.9 | 0.00 | 0.00 | 0.00 | 79 | 1008.9 |
| 20260831002224 | 27 | 207 | 12.9 | 19.3 | 0.00 | 0.00 | 0.00 | 79 | 1008.9 |
| 20260831002112 | 27 | 202 | 12.9 | 22.5 | 0.00 | 0.00 | 0.00 | 79 | 1008.9 |
| 20260831002018 | 27 | 197 | 12.9 | 22.5 | 0.00 | 0.00 | 0.00 | 79 | 1008.9 |
| 20260831001855 | 27 | 197 | 12.9 | 22.5 | 0.00 | 0.00 | 0.00 | 79 | 1008.9 |
| 20260831001800 | 27 | 207 | 12.9 | 24.1 | 0.00 | 0.00 | 0.00 | 79 | 1009.0 |
| 20260831001705 | 27 | 190 | 9.7 | 22.5 | 0.00 | 0.00 | 0.00 | 79 | 1009.0 |
| 20260831001630 | 27 | 194 | 8.0 | 22.5 | 0.00 | 0.00 | 0.00 | 79 | 1009.0 |
| 20260831001458 | 28 | 205 | 9.7 | 22.5 | 0.00 | 0.00 | 0.00 | 78 | 1008.9 |
| 20260831001403 | 28 | 219 | 11.3 | 22.5 | 0.00 | 0.00 | 0.00 | 78 | 1009.0 |
| 20260831001328 | 28 | 220 | 11.3 | 22.5 | 0.00 | 0.00 | 0.00 | 78 | 1009.0 |
| 20260831001212 | 28 | 215 | 11.3 | 22.5 | 0.00 | 0.00 | 0.00 | 78 | 1008.8 |
| 20260831001057 | 28 | 198 | 14.5 | 22.5 | 0.00 | 0.00 | 0.00 | 78 | 1008.8 |
| 20260831001002 | 28 | 223 | 14.5 | 22.5 | 0.00 | 0.00 | 0.00 | 78 | 1008.9 |
| 20260831000907 | 28 | 196 | 12.9 | 20.9 | 0.00 | 0.00 | 0.00 | 78 | 1008.9 |
| 20260831000756 | 28 | 202 | 12.9 | 20.9 | 0.00 | 0.00 | 0.00 | 78 | 1008.9 |
| 20260831000700 | 28 | 197 | 12.9 | 20.9 | 0.00 | 0.00 | 0.00 | 78 | 1008.9 |
| 20260831000605 | 28 | 210 | 12.9 | 20.9 | 0.00 | 0.00 | 0.00 | 78 | 1008.8 |
| 20260831000510 | 28 | 186 | 12.9 | 20.9 | 0.00 | 0.00 | 0.00 | 78 | 1008.8 |
| 20260831000355 | 28 | 219 | 14.5 | 19.3 | 0.00 | 0.00 | 0.00 | 78 | 1008.8 |
| 20260831000300 | 28 | 204 | 12.9 | 19.3 | 0.00 | 0.00 | 0.00 | 78 | 1008.8 |
| 20260831000211 | 28 | 201 | 12.9 | 19.3 | 0.00 | 0.00 | 0.00 | 78 | 1008.8 |
| 20260831000133 | 28 | 177 | 11.3 | 19.3 | 0.00 | 0.00 | 0.00 | 78 | 1008.8 |
| 20260831000037 | 28 | 192 | 11.3 | 19.3 | 0.00 | 0.00 | 0.00 | 78 | 1008.7 |
| 20260830235854 | 28 | 204 | 11.3 | 19.3 | 0.00 | 0.00 | 0.00 | 78 | 1008.8 |
| 20260830235704 | 28 | 138 | 9.7 | 19.3 | 0.00 | 0.00 | 0.00 | 78 | 1008.8 |
| 20260830235609 | 28 | 184 | 9.7 | 14.5 | 0.00 | 0.00 | 0.00 | 78 | 1008.8 |
| 20260830235518 | 28 | 186 | 11.3 | 14.5 | 0.00 | 0.00 | 0.00 | 78 | 1008.8 |
| 20260830235356 | 28 | 182 | 11.3 | 14.5 | 0.00 | 0.00 | 0.00 | 78 | 1008.8 |
| 20260830235321 | 28 | 188 | 9.7 | 14.5 | 0.00 | 0.00 | 0.00 | 78 | 1008.8 |
| 20260830235205 | 28 | 204 | 9.7 | 11.3 | 0.00 | 0.00 | 0.00 | 78 | 1008.9 |
| 20260830235110 | 28 | 182 | 8.0 | 11.3 | 0.00 | 0.00 | 0.00 | 78 | 1008.9 |
| 20260830235034 | 28 | 185 | 8.0 | 12.9 | 0.00 | 0.00 | 0.00 | 78 | 1008.9 |
| 20260830234902 | 28 | 178 | 8.0 | 12.9 | 0.00 | 0.00 | 0.00 | 78 | 1009.0 |
| 20260830234807 | 28 | 182 | 8.0 | 16.1 | 0.00 | 0.00 | 0.00 | 77 | 1009.0 |
| 20260830234712 | 28 | 187 | 6.4 | 16.1 | 0.00 | 0.00 | 0.00 | 77 | 1009.0 |
| 20260830234557 | 28 | 163 | 6.4 | 16.1 | 0.00 | 0.00 | 0.00 | 77 | 1008.9 |
| 20260830234502 | 28 | 173 | 9.7 | 16.1 | 0.00 | 0.00 | 0.00 | 77 | 1009.0 |
| 20260830234406 | 28 | 171 | 9.7 | 17.7 | 0.00 | 0.00 | 0.00 | 77 | 1009.0 |
| 20260830234315 | 28 | 188 | 9.7 | 17.7 | 0.00 | 0.00 | 0.00 | 77 | 1008.9 |
| 20260830234219 | 28 | 198 | 9.7 | 17.7 | 0.00 | 0.00 | 0.00 | 77 | 1009.0 |
| 20260830234123 | 28 | 190 | 11.3 | 17.7 | 0.00 | 0.00 | 0.00 | 77 | 1009.1 |
| 20260830234007 | 28 | 189 | 11.3 | 17.7 | 0.00 | 0.00 | 0.00 | 77 | 1009.1 |
| 20260830233911 | 28 | 196 | 11.3 | 17.7 | 0.00 | 0.00 | 0.00 | 77 | 1009.0 |
| 20260830233816 | 28 | 192 | 9.7 | 17.7 | 0.00 | 0.00 | 0.00 | 77 | 1009.1 |
| 20260830233721 | 28 | 194 | 11.3 | 17.7 | 0.00 | 0.00 | 0.00 | 77 | 1009.1 |
| 20260830233558 | 28 | 233 | 11.3 | 17.7 | 0.00 | 0.00 | 0.00 | 77 | 1009.1 |
| 20260830233507 | 28 | 208 | 9.7 | 17.7 | 0.00 | 0.00 | 0.00 | 77 | 1009.1 |
| 20260830233412 | 28 | 202 | 8.0 | 16.1 | 0.00 | 0.00 | 0.00 | 77 | 1009.0 |
| 20260830233317 | 28 | 197 | 9.7 | 16.1 | 0.00 | 0.00 | 0.00 | 77 | 1009.0 |
| 20260830233201 | 28 | 208 | 11.3 | 16.1 | 0.00 | 0.00 | 0.00 | 77 | 1008.9 |
| 20260830233126 | 28 | 196 | 11.3 | 16.1 | 0.00 | 0.00 | 0.00 | 78 | 1008.9 |
| 20260830233010 | 28 | 231 | 12.9 | 16.1 | 0.00 | 0.00 | 0.00 | 77 | 1008.9 |
| 20260830232858 | 28 | 161 | 12.9 | 16.1 | 0.00 | 0.00 | 0.00 | 77 | 1008.9 |
| 20260830232803 | 28 | 198 | 12.9 | 16.1 | 0.00 | 0.00 | 0.00 | 77 | 1008.9 |
| 20260830232708 | 28 | 179 | 12.9 | 17.7 | 0.00 | 0.00 | 0.00 | 77 | 1008.9 |
| 20260830232613 | 28 | 191 | 11.3 | 19.3 | 0.00 | 0.00 | 0.00 | 78 | 1008.9 |
| 20260830232518 | 28 | 196 | 11.3 | 19.3 | 0.00 | 0.00 | 0.00 | 77 | 1008.9 |
| 20260830232356 | 28 | 193 | 11.3 | 19.3 | 0.00 | 0.00 | 0.00 | 77 | 1008.9 |
| 20260830232306 | 28 | 202 | 12.9 | 19.3 | 0.00 | 0.00 | 0.00 | 77 | 1008.9 |
| 20260830232210 | 28 | 176 | 12.9 | 19.3 | 0.00 | 0.00 | 0.00 | 77 | 1008.9 |
| 20260830232055 | 28 | 206 | 9.7 | 19.3 | 0.00 | 0.00 | 0.00 | 77 | 1008.9 |
| 20260830232020 | 28 | 172 | 11.3 | 19.3 | 0.00 | 0.00 | 0.00 | 77 | 1008.8 |
| 20260830231904 | 28 | 186 | 12.9 | 19.3 | 0.00 | 0.00 | 0.00 | 77 | 1008.9 |
| 20260830231808 | 28 | 180 | 12.9 | 19.3 | 0.00 | 0.00 | 0.00 | 77 | 1008.9 |
| 20260830231657 | 28 | 191 | 9.7 | 16.1 | 0.00 | 0.00 | 0.00 | 78 | 1008.9 |
| 20260830231602 | 28 | 173 | 9.7 | 12.9 | 0.00 | 0.00 | 0.00 | 78 | 1009.0 |
| 20260830231507 | 28 | 190 | 9.7 | 12.9 | 0.00 | 0.00 | 0.00 | 78 | 1009.0 |
| 20260830231411 | 28 | 190 | 8.0 | 12.9 | 0.00 | 0.00 | 0.00 | 77 | 1009.1 |
| 20260830231316 | 28 | 194 | 8.0 | 16.1 | 0.00 | 0.00 | 0.00 | 78 | 1009.1 |
| 20260830231154 | 28 | 186 | 8.0 | 16.1 | 0.00 | 0.00 | 0.00 | 77 | 1009.2 |
| 20260830231103 | 28 | 209 | 8.0 | 16.1 | 0.00 | 0.00 | 0.00 | 78 | 1009.2 |
| 20260830231028 | 28 | 199 | 8.0 | 16.1 | 0.00 | 0.00 | 0.00 | 77 | 1009.2 |
| 20260830230912 | 28 | 194 | 8.0 | 16.1 | 0.00 | 0.00 | 0.00 | 77 | 1009.3 |
| 20260830230818 | 28 | 193 | 8.0 | 16.1 | 0.00 | 0.00 | 0.00 | 77 | 1009.2 |
| 20260830230656 | 28 | 188 | 8.0 | 16.1 | 0.00 | 0.00 | 0.00 | 77 | 1009.2 |
| 20260830230601 | 28 | 186 | 9.7 | 16.1 | 0.00 | 0.00 | 0.00 | 76 | 1009.2 |
| 20260830230521 | 28 | 193 | 11.3 | 17.7 | 0.00 | 0.00 | 0.00 | 76 | 1009.1 |
| 20260830230409 | 28 | 199 | 11.3 | 17.7 | 0.00 | 0.00 | 0.00 | 76 | 1009.1 |
| 20260830230254 | 28 | 187 | 9.7 | 22.5 | 0.00 | 0.00 | 0.00 | 76 | 1009.1 |
| 20260830230158 | 28 | 184 | 9.7 | 22.5 | 0.00 | 0.00 | 0.00 | 76 | 1009.1 |
| 20260830230007 | 28 | 198 | 9.7 | 22.5 | 0.00 | 0.00 | 0.00 | 75 | 1009.0 |
| 20260830225912 | 28 | 180 | 8.0 | 22.5 | 0.00 | 0.00 | 0.00 | 76 | 1008.9 |
| 20260830225821 | 28 | 180 | 9.7 | 22.5 | 0.00 | 0.00 | 0.00 | 76 | 1008.9 |
| 20260830225704 | 28 | 187 | 11.3 | 22.5 | 0.00 | 0.00 | 0.00 | 75 | 1009.0 |
| 20260830225609 | 28 | 186 | 12.9 | 22.5 | 0.00 | 0.00 | 0.00 | 76 | 1009.0 |
| 20260830225454 | 28 | 205 | 12.9 | 22.5 | 0.00 | 0.00 | 0.00 | 75 | 1008.9 |
| 20260830225359 | 28 | 188 | 11.3 | 19.3 | 0.00 | 0.00 | 0.00 | 76 | 1009.0 |
| 20260830225305 | 28 | 204 | 9.7 | 19.3 | 0.00 | 0.00 | 0.00 | 75 | 1008.9 |
| 20260830225212 | 28 | 198 | 9.7 | 19.3 | 0.00 | 0.00 | 0.00 | 76 | 1008.9 |
| 20260830225056 | 28 | 186 | 12.9 | 19.3 | 0.00 | 0.00 | 0.00 | 76 | 1008.9 |
| 20260830225021 | 28 | 191 | 14.5 | 20.9 | 0.00 | 0.00 | 0.00 | 76 | 1009.0 |
| 20260830224905 | 28 | 184 | 14.5 | 20.9 | 0.00 | 0.00 | 0.00 | 76 | 1009.0 |
| 20260830224810 | 28 | 189 | 14.5 | 20.9 | 0.00 | 0.00 | 0.00 | 76 | 1009.0 |
| 20260830224715 | 28 | 200 | 12.9 | 20.9 | 0.00 | 0.00 | 0.00 | 75 | 1008.9 |
| 20260830224558 | 28 | 196 | 11.3 | 20.9 | 0.00 | 0.00 | 0.00 | 75 | 1008.9 |
| 20260830224523 | 28 | 194 | 12.9 | 20.9 | 0.00 | 0.00 | 0.00 | 75 | 1008.9 |
| 20260830224411 | 28 | 179 | 12.9 | 20.9 | 0.00 | 0.00 | 0.00 | 75 | 1008.9 |
| 20260830224316 | 28 | 189 | 12.9 | 20.9 | 0.00 | 0.00 | 0.00 | 75 | 1009.1 |
| 20260830224241 | 28 | 198 | 11.3 | 20.9 | 0.00 | 0.00 | 0.00 | 75 | 1009.1 |
| 20260830224058 | 28 | 143 | 12.9 | 20.9 | 0.00 | 0.00 | 0.00 | 75 | 1008.9 |
| 20260830224023 | 28 | 196 | 12.9 | 20.9 | 0.00 | 0.00 | 0.00 | 74 | 1009.0 |
| 20260830223907 | 29 | 194 | 12.9 | 20.9 | 0.00 | 0.00 | 0.00 | 75 | 1009.0 |
| 20260830223832 | 29 | 198 | 12.9 | 20.9 | 0.00 | 0.00 | 0.00 | 75 | 1008.9 |
| 20260830223659 | 29 | 208 | 16.1 | 20.9 | 0.00 | 0.00 | 0.00 | 75 | 1008.9 |
| 20260830223603 | 29 | 192 | 14.5 | 20.9 | 0.00 | 0.00 | 0.00 | 75 | 1008.9 |
| 20260830223508 | 29 | 190 | 12.9 | 20.9 | 0.00 | 0.00 | 0.00 | 75 | 1008.9 |
| 20260830223433 | 29 | 190 | 9.7 | 19.3 | 0.00 | 0.00 | 0.00 | 76 | 1008.9 |
| 20260830223316 | 29 | 200 | 9.7 | 19.3 | 0.00 | 0.00 | 0.00 | 76 | 1008.9 |
| 20260830223154 | 28 | 171 | 12.9 | 19.3 | 0.00 | 0.00 | 0.00 | 75 | 1009.0 |
| 20260830223103 | 29 | 198 | 12.9 | 19.3 | 0.00 | 0.00 | 0.00 | 75 | 1008.9 |
| 20260830223008 | 29 | 171 | 11.3 | 19.3 | 0.00 | 0.00 | 0.00 | 75 | 1008.9 |
| 20260830222912 | 29 | 188 | 9.7 | 20.9 | 0.00 | 0.00 | 0.00 | 76 | 1009.0 |
| 20260830222757 | 28 | 151 | 9.7 | 20.9 | 0.00 | 0.00 | 0.00 | 76 | 1008.9 |
| 20260830222702 | 28 | 198 | 9.7 | 20.9 | 0.00 | 0.00 | 0.00 | 76 | 1008.9 |
| 20260830222626 | 28 | 177 | 11.3 | 20.9 | 0.00 | 0.00 | 0.00 | 76 | 1008.9 |
| 20260830222510 | 28 | 191 | 12.9 | 20.9 | 0.00 | 0.00 | 0.00 | 76 | 1008.9 |
| 20260830222439 | 28 | 166 | 12.9 | 20.9 | 0.00 | 0.00 | 0.00 | 76 | 1008.9 |
| 20260830222256 | 28 | 222 | 16.1 | 20.9 | 0.00 | 0.00 | 0.00 | 76 | 1008.8 |
| 20260830222201 | 28 | 186 | 16.1 | 20.9 | 0.00 | 0.00 | 0.00 | 76 | 1008.9 |
| 20260830222106 | 28 | 184 | 12.9 | 20.9 | 0.00 | 0.00 | 0.00 | 75 | 1008.9 |
| 20260830222010 | 28 | 193 | 9.7 | 19.3 | 0.00 | 0.00 | 0.00 | 76 | 1008.9 |
| 20260830221855 | 28 | 184 | 9.7 | 19.3 | 0.00 | 0.00 | 0.00 | 77 | 1008.9 |
| 20260830221803 | 28 | 180 | 12.9 | 19.3 | 0.00 | 0.00 | 0.00 | 76 | 1008.9 |
| 20260830221707 | 28 | 184 | 12.9 | 20.9 | 0.00 | 0.00 | 0.00 | 77 | 1008.9 |
| 20260830221612 | 28 | 189 | 11.3 | 17.7 | 0.00 | 0.00 | 0.00 | 77 | 1009.0 |
| 20260830221457 | 28 | 180 | 12.9 | 17.7 | 0.00 | 0.00 | 0.00 | 77 | 1009.0 |
| 20260830221402 | 28 | 186 | 11.3 | 17.7 | 0.00 | 0.00 | 0.00 | 77 | 1009.0 |
| 20260830221307 | 28 | 194 | 11.3 | 17.7 | 0.00 | 0.00 | 0.00 | 78 | 1009.0 |
| 20260830221216 | 28 | 165 | 11.3 | 17.7 | 0.00 | 0.00 | 0.00 | 78 | 1009.1 |
| 20260830221141 | 28 | 169 | 12.9 | 17.7 | 0.00 | 0.00 | 0.00 | 77 | 1009.1 |
| 20260830220958 | 28 | 216 | 11.3 | 17.7 | 0.00 | 0.00 | 0.00 | 77 | 1009.1 |
| 20260830220923 | 28 | 193 | 11.3 | 17.7 | 0.00 | 0.00 | 0.00 | 77 | 1009.1 |
| 20260830220807 | 28 | 180 | 12.9 | 17.7 | 0.00 | 0.00 | 0.00 | 78 | 1009.1 |
| 20260830220712 | 28 | 193 | 12.9 | 19.3 | 0.00 | 0.00 | 0.00 | 77 | 1009.1 |
| 20260830220600 | 28 | 196 | 11.3 | 19.3 | 0.00 | 0.00 | 0.00 | 77 | 1009.2 |
| 20260830220505 | 28 | 217 | 11.3 | 19.3 | 0.00 | 0.00 | 0.00 | 77 | 1009.1 |
| 20260830220410 | 28 | 194 | 11.3 | 19.3 | 0.00 | 0.00 | 0.00 | 77 | 1009.1 |
| 20260830220255 | 28 | 168 | 12.9 | 19.3 | 0.00 | 0.00 | 0.00 | 76 | 1009.2 |
| 20260830220200 | 28 | 182 | 12.9 | 19.3 | 0.00 | 0.00 | 0.00 | 77 | 1009.1 |
| 20260830220105 | 28 | 198 | 14.5 | 19.3 | 0.00 | 0.00 | 0.00 | 76 | 1009.2 |
| 20260830215954 | 28 | 188 | 14.5 | 19.3 | 0.00 | 0.00 | 0.00 | 76 | 1009.2 |
| 20260830215858 | 28 | 191 | 12.9 | 19.3 | 0.00 | 0.00 | 0.00 | 76 | 1009.2 |
| 20260830215803 | 28 | 182 | 12.9 | 19.3 | 0.00 | 0.00 | 0.00 | 76 | 1009.2 |
| 20260830215707 | 28 | 194 | 11.3 | 19.3 | 0.00 | 0.00 | 0.00 | 76 | 1009.2 |
| 20260830215632 | 28 | 211 | 9.7 | 19.3 | 0.00 | 0.00 | 0.00 | 76 | 1009.2 |
| 20260830215515 | 28 | 169 | 11.3 | 20.9 | 0.00 | 0.00 | 0.00 | 76 | 1009.3 |
| 20260830215359 | 28 | 202 | 12.9 | 20.9 | 0.00 | 0.00 | 0.00 | 76 | 1009.3 |
| 20260830215307 | 28 | 205 | 12.9 | 20.9 | 0.00 | 0.00 | 0.00 | 76 | 1009.3 |
| 20260830215232 | 28 | 192 | 14.5 | 20.9 | 0.00 | 0.00 | 0.00 | 77 | 1009.3 |
| 20260830215116 | 28 | 192 | 14.5 | 20.9 | 0.00 | 0.00 | 0.00 | 76 | 1009.3 |
| 20260830214954 | 28 | 188 | 16.1 | 20.9 | 0.00 | 0.00 | 0.00 | 77 | 1009.3 |
| 20260830214919 | 28 | 194 | 14.5 | 20.9 | 0.00 | 0.00 | 0.00 | 77 | 1009.2 |
| 20260830214803 | 28 | 194 | 14.5 | 20.9 | 0.00 | 0.00 | 0.00 | 76 | 1009.3 |
| 20260830214708 | 28 | 189 | 14.5 | 20.9 | 0.00 | 0.00 | 0.00 | 77 | 1009.3 |
| 20260830214557 | 28 | 200 | 14.5 | 20.9 | 0.00 | 0.00 | 0.00 | 76 | 1009.4 |
| 20260830214502 | 28 | 203 | 12.9 | 20.9 | 0.00 | 0.00 | 0.00 | 76 | 1009.4 |
| 20260830214406 | 28 | 180 | 14.5 | 20.9 | 0.00 | 0.00 | 0.00 | 76 | 1009.4 |
| 20260830214331 | 28 | 202 | 14.5 | 20.9 | 0.00 | 0.00 | 0.00 | 76 | 1009.4 |
| 20260830214215 | 28 | 163 | 14.5 | 20.9 | 0.00 | 0.00 | 0.00 | 77 | 1009.4 |
| 20260830214120 | 28 | 192 | 14.5 | 20.9 | 0.00 | 0.00 | 0.00 | 76 | 1009.4 |
| 20260830213958 | 28 | 219 | 14.5 | 20.9 | 0.00 | 0.00 | 0.00 | 76 | 1009.5 |
| 20260830213923 | 28 | 189 | 11.3 | 19.3 | 0.00 | 0.00 | 0.00 | 76 | 1009.5 |
| 20260830213811 | 28 | 188 | 8.0 | 17.7 | 0.00 | 0.00 | 0.00 | 76 | 1009.5 |
| 20260830213737 | 28 | 205 | 8.0 | 17.7 | 0.00 | 0.00 | 0.00 | 76 | 1009.6 |
| 20260830213554 | 28 | 200 | 11.3 | 17.7 | 0.00 | 0.00 | 0.00 | 76 | 1009.5 |
| 20260830213519 | 28 | 189 | 14.5 | 17.7 | 0.00 | 0.00 | 0.00 | 76 | 1009.6 |
| 20260830213402 | 28 | 203 | 14.5 | 20.9 | 0.00 | 0.00 | 0.00 | 76 | 1009.6 |
| 20260830213326 | 28 | 194 | 14.5 | 20.9 | 0.00 | 0.00 | 0.00 | 76 | 1009.6 |
| 20260830213230 | 28 | 205 | 14.5 | 20.9 | 0.00 | 0.00 | 0.00 | 76 | 1009.6 |
| 20260830213057 | 28 | 209 | 12.9 | 22.5 | 0.00 | 0.00 | 0.00 | 76 | 1009.6 |
| 20260830213002 | 28 | 227 | 11.3 | 22.5 | 0.00 | 0.00 | 0.00 | 76 | 1009.6 |
| 20260830212927 | 28 | 196 | 11.3 | 22.5 | 0.00 | 0.00 | 0.00 | 76 | 1009.6 |
| 20260830212810 | 28 | 202 | 12.9 | 22.5 | 0.00 | 0.00 | 0.00 | 76 | 1009.6 |
| 20260830212716 | 28 | 167 | 14.5 | 22.5 | 0.00 | 0.00 | 0.00 | 76 | 1009.6 |
| 20260830212554 | 28 | 180 | 12.9 | 22.5 | 0.00 | 0.00 | 0.00 | 76 | 1009.6 |
| 20260830212458 | 28 | 205 | 12.9 | 22.5 | 0.00 | 0.00 | 0.00 | 77 | 1009.5 |
| 20260830212407 | 28 | 229 | 12.9 | 22.5 | 0.00 | 0.00 | 0.00 | 76 | 1009.5 |
| 20260830212312 | 28 | 191 | 12.9 | 22.5 | 0.00 | 0.00 | 0.00 | 77 | 1009.6 |
| 20260830212218 | 28 | 180 | 12.9 | 22.5 | 0.00 | 0.00 | 0.00 | 76 | 1009.6 |
| 20260830212056 | 28 | 238 | 14.5 | 22.5 | 0.00 | 0.00 | 0.00 | 76 | 1009.6 |
| 20260830212001 | 28 | 204 | 12.9 | 22.5 | 0.00 | 0.00 | 0.00 | 77 | 1009.7 |
| 20260830211906 | 28 | 215 | 11.3 | 20.9 | 0.00 | 0.00 | 0.00 | 77 | 1009.7 |
| 20260830211816 | 28 | 193 | 9.7 | 20.9 | 0.00 | 0.00 | 0.00 | 77 | 1009.7 |
| 20260830211654 | 28 | 218 | 9.7 | 20.9 | 0.00 | 0.00 | 0.00 | 77 | 1009.6 |
| 20260830211558 | 28 | 203 | 9.7 | 20.9 | 0.00 | 0.00 | 0.00 | 78 | 1009.7 |
| 20260830211504 | 28 | 229 | 12.9 | 22.5 | 0.00 | 0.00 | 0.00 | 77 | 1009.7 |
| 20260830211408 | 28 | 222 | 14.5 | 22.5 | 0.00 | 0.00 | 0.00 | 77 | 1009.7 |
| 20260830211257 | 28 | 216 | 12.9 | 22.5 | 0.00 | 0.00 | 0.00 | 76 | 1009.7 |
| 20260830211202 | 28 | 211 | 11.3 | 22.5 | 0.00 | 0.00 | 0.00 | 77 | 1009.7 |
| 20260830211107 | 28 | 213 | 12.9 | 22.5 | 0.00 | 0.00 | 0.00 | 77 | 1009.7 |
| 20260830211012 | 28 | 202 | 14.5 | 22.5 | 0.00 | 0.00 | 0.00 | 76 | 1009.7 |
| 20260830210857 | 28 | 222 | 17.7 | 22.5 | 0.00 | 0.00 | 0.00 | 75 | 1009.6 |
| 20260830210822 | 28 | 207 | 16.1 | 22.5 | 0.00 | 0.00 | 0.00 | 76 | 1009.7 |
| 20260830210705 | 28 | 198 | 14.5 | 22.5 | 0.00 | 0.00 | 0.00 | 77 | 1009.7 |
| 20260830210554 | 28 | 225 | 14.5 | 20.9 | 0.00 | 0.00 | 0.00 | 76 | 1009.6 |
| 20260830210459 | 28 | 209 | 16.1 | 20.9 | 0.00 | 0.00 | 0.00 | 76 | 1009.7 |
| 20260830210404 | 28 | 204 | 16.1 | 22.5 | 0.00 | 0.00 | 0.00 | 77 | 1009.7 |
| 20260830210308 | 28 | 190 | 16.1 | 22.5 | 0.00 | 0.00 | 0.00 | 77 | 1009.7 |
| 20260830210213 | 28 | 207 | 16.1 | 22.5 | 0.00 | 0.00 | 0.00 | 77 | 1009.6 |
| 20260830210118 | 28 | 172 | 12.9 | 22.5 | 0.00 | 0.00 | 0.00 | 77 | 1009.6 |
| 20260830210026 | 28 | 174 | 14.5 | 22.5 | 0.00 | 0.00 | 0.00 | 78 | 1009.7 |
| 20260830205909 | 28 | 196 | 16.1 | 22.5 | 0.00 | 0.00 | 0.00 | 77 | 1009.7 |
| 20260830205813 | 28 | 205 | 16.1 | 22.5 | 0.00 | 0.00 | 0.00 | 77 | 1009.6 |
| 20260830205718 | 27 | 202 | 16.1 | 27.4 | 0.00 | 0.00 | 0.00 | 78 | 1009.6 |
| 20260830205602 | 27 | 224 | 16.1 | 27.4 | 0.00 | 0.00 | 0.00 | 78 | 1009.7 |
| 20260830205507 | 27 | 184 | 16.1 | 27.4 | 0.00 | 0.00 | 0.00 | 77 | 1009.7 |
| 20260830205412 | 27 | 208 | 17.7 | 27.4 | 0.00 | 0.00 | 0.00 | 77 | 1009.7 |
| 20260830205320 | 27 | 216 | 17.7 | 27.4 | 0.00 | 0.00 | 0.00 | 77 | 1009.8 |
| 20260830205203 | 27 | 213 | 17.7 | 27.4 | 0.00 | 0.00 | 0.00 | 77 | 1009.8 |
| 20260830205108 | 27 | 219 | 17.7 | 27.4 | 0.00 | 0.00 | 0.00 | 77 | 1009.8 |
| 20260830205033 | 27 | 236 | 19.3 | 27.4 | 0.00 | 0.00 | 0.00 | 77 | 1009.7 |
| 20260830204857 | 27 | 239 | 16.1 | 25.7 | 0.00 | 0.00 | 0.00 | 79 | 1009.7 |
| 20260830204801 | 27 | 242 | 12.9 | 20.9 | 0.00 | 0.00 | 0.00 | 79 | 1009.8 |
| 20260830204726 | 27 | 218 | 11.3 | 17.7 | 0.00 | 0.00 | 0.00 | 79 | 1009.7 |
| 20260830204554 | 27 | 207 | 12.9 | 17.7 | 0.00 | 0.00 | 0.00 | 79 | 1009.8 |
| 20260830204519 | 27 | 187 | 12.9 | 19.3 | 0.00 | 0.00 | 0.00 | 80 | 1009.8 |
| 20260830204403 | 27 | 186 | 11.3 | 19.3 | 0.00 | 0.00 | 0.00 | 79 | 1009.8 |
| 20260830204308 | 27 | 175 | 9.7 | 19.3 | 0.00 | 0.00 | 0.00 | 80 | 1009.8 |
| 20260830204212 | 27 | 184 | 9.7 | 19.3 | 0.00 | 0.00 | 0.00 | 79 | 1009.9 |
| 20260830204057 | 27 | 150 | 9.7 | 19.3 | 0.00 | 0.00 | 0.00 | 80 | 1009.8 |
| 20260830204006 | 27 | 215 | 11.3 | 19.3 | 0.00 | 0.00 | 0.00 | 79 | 1009.9 |
| 20260830203911 | 27 | 209 | 12.9 | 24.1 | 0.00 | 0.00 | 0.00 | 80 | 1009.9 |
| 20260830203816 | 27 | 194 | 12.9 | 24.1 | 0.00 | 0.00 | 0.00 | 80 | 1009.9 |
| 20260830203654 | 27 | 190 | 12.9 | 24.1 | 0.00 | 0.00 | 0.00 | 80 | 1009.9 |
| 20260830203559 | 27 | 209 | 11.3 | 24.1 | 0.00 | 0.00 | 0.00 | 79 | 1009.9 |
| 20260830203504 | 27 | 192 | 11.3 | 24.1 | 0.00 | 0.00 | 0.00 | 80 | 1009.9 |
| 20260830203413 | 27 | 194 | 12.9 | 24.1 | 0.00 | 0.00 | 0.00 | 80 | 1009.9 |
| 20260830203318 | 27 | 163 | 12.9 | 24.1 | 0.00 | 0.00 | 0.00 | 79 | 1009.9 |
| 20260830203156 | 27 | 181 | 12.9 | 22.5 | 0.00 | 0.00 | 0.00 | 79 | 1010.0 |
| 20260830203101 | 27 | 216 | 12.9 | 22.5 | 0.00 | 0.00 | 0.00 | 79 | 1009.9 |
| 20260830203005 | 27 | 159 | 12.9 | 19.3 | 0.00 | 0.00 | 0.00 | 79 | 1009.9 |
| 20260830202910 | 27 | 169 | 12.9 | 22.5 | 0.00 | 0.00 | 0.00 | 80 | 1009.9 |
| 20260830202759 | 27 | 139 | 12.9 | 22.5 | 0.00 | 0.00 | 0.00 | 79 | 1009.8 |
| 20260830202703 | 27 | 195 | 14.5 | 22.5 | 0.00 | 0.00 | 0.00 | 80 | 1009.8 |
| 20260830202608 | 27 | 200 | 14.5 | 22.5 | 0.00 | 0.00 | 0.00 | 80 | 1009.8 |
| 20260830202533 | 27 | 191 | 12.9 | 22.5 | 0.00 | 0.00 | 0.00 | 80 | 1009.8 |
| 20260830202356 | 27 | 211 | 12.9 | 22.5 | 0.00 | 0.00 | 0.00 | 80 | 1009.8 |
| 20260830202301 | 27 | 173 | 14.5 | 22.5 | 0.00 | 0.00 | 0.00 | 80 | 1009.7 |
| 20260830202226 | 27 | 152 | 11.3 | 22.5 | 0.00 | 0.00 | 0.00 | 80 | 1009.7 |
| 20260830202054 | 27 | 171 | 8.0 | 16.1 | 0.00 | 0.00 | 0.00 | 82 | 1009.7 |
| 20260830202018 | 27 | 180 | 9.7 | 16.1 | 0.00 | 0.00 | 0.00 | 82 | 1009.7 |
| 20260830201856 | 27 | 173 | 11.3 | 17.7 | 0.00 | 0.00 | 0.00 | 81 | 1009.8 |
| 20260830201801 | 27 | 207 | 11.3 | 17.7 | 0.00 | 0.00 | 0.00 | 81 | 1009.7 |
| 20260830201706 | 27 | 184 | 11.3 | 17.7 | 0.00 | 0.00 | 0.00 | 80 | 1009.6 |
| 20260830201555 | 27 | 198 | 9.7 | 17.7 | 0.00 | 0.00 | 0.00 | 81 | 1009.6 |
| 20260830201500 | 27 | 164 | 9.7 | 17.7 | 0.00 | 0.00 | 0.00 | 81 | 1009.7 |
| 20260830201405 | 27 | 171 | 9.7 | 17.7 | 0.00 | 0.00 | 0.00 | 81 | 1009.6 |
| 20260830201310 | 27 | 162 | 11.3 | 17.7 | 0.00 | 0.00 | 0.00 | 80 | 1009.6 |
| 20260830201215 | 27 | 189 | 12.9 | 17.7 | 0.00 | 0.00 | 0.00 | 80 | 1009.8 |
| 20260830201059 | 27 | 211 | 12.9 | 16.1 | 0.00 | 0.00 | 0.00 | 80 | 1009.7 |
| 20260830201024 | 27 | 194 | 11.3 | 19.3 | 0.00 | 0.00 | 0.00 | 80 | 1009.6 |
| 20260830200912 | 27 | 170 | 11.3 | 19.3 | 0.00 | 0.00 | 0.00 | 80 | 1009.6 |
| 20260830200816 | 27 | 186 | 12.9 | 19.3 | 0.00 | 0.00 | 0.00 | 80 | 1009.5 |
| 20260830200654 | 27 | 163 | 11.3 | 24.1 | 0.00 | 0.00 | 0.00 | 80 | 1009.6 |
| 20260830200558 | 27 | 171 | 9.7 | 24.1 | 0.00 | 0.00 | 0.00 | 81 | 1009.6 |
| 20260830200503 | 27 | 114 | 11.3 | 24.1 | 0.00 | 0.00 | 0.00 | 81 | 1009.7 |
| 20260830200428 | 27 | 155 | 12.9 | 24.1 | 0.00 | 0.00 | 0.00 | 80 | 1009.7 |
| 20260830200332 | 27 | 190 | 12.9 | 24.1 | 0.00 | 0.00 | 0.00 | 81 | 1009.7 |
| 20260830200200 | 26 | 184 | 12.9 | 24.1 | 0.00 | 0.00 | 0.00 | 81 | 1009.7 |
| 20260830200105 | 26 | 145 | 11.3 | 24.1 | 0.00 | 0.00 | 0.00 | 80 | 1009.7 |
| 20260830200009 | 26 | 153 | 14.5 | 24.1 | 0.00 | 0.00 | 0.00 | 80 | 1009.7 |
| 20260830195934 | 26 | 157 | 17.7 | 24.1 | 0.00 | 0.00 | 0.00 | 80 | 1009.7 |
| 20260830195818 | 27 | 193 | 17.7 | 24.1 | 0.00 | 0.00 | 0.00 | 80 | 1009.8 |
| 20260830195656 | 27 | 211 | 12.9 | 24.1 | 0.00 | 0.00 | 0.00 | 80 | 1009.7 |
| 20260830195605 | 27 | 201 | 12.9 | 22.5 | 0.00 | 0.00 | 0.00 | 81 | 1009.6 |
| 20260830195510 | 27 | 154 | 11.3 | 22.5 | 0.00 | 0.00 | 0.00 | 81 | 1009.6 |
| 20260830195355 | 26 | 173 | 11.3 | 25.7 | 0.00 | 0.00 | 0.00 | 81 | 1009.6 |
| 20260830195259 | 26 | 148 | 11.3 | 25.7 | 0.00 | 0.00 | 0.00 | 81 | 1009.6 |
| 20260830195203 | 26 | 120 | 11.3 | 25.7 | 0.00 | 0.00 | 0.00 | 81 | 1009.5 |
| 20260830195128 | 26 | 161 | 12.9 | 25.7 | 0.00 | 0.00 | 0.00 | 80 | 1009.5 |
| 20260830195032 | 26 | 196 | 14.5 | 25.7 | 0.00 | 0.00 | 0.00 | 80 | 1009.6 |
| 20260830194900 | 26 | 148 | 16.1 | 25.7 | 0.00 | 0.00 | 0.00 | 80 | 1009.5 |
| 20260830194805 | 26 | 150 | 14.5 | 25.7 | 0.00 | 0.00 | 0.00 | 80 | 1009.6 |
| 20260830194729 | 26 | 171 | 12.9 | 25.7 | 0.00 | 0.00 | 0.00 | 81 | 1009.6 |
| 20260830194633 | 26 | 190 | 14.5 | 25.7 | 0.00 | 0.00 | 0.00 | 81 | 1009.7 |
| 20260830194537 | 26 | 167 | 12.9 | 24.1 | 0.00 | 0.00 | 0.00 | 81 | 1009.7 |
| 20260830194354 | 26 | 191 | 14.5 | 24.1 | 0.00 | 0.00 | 0.00 | 81 | 1009.7 |
| 20260830194259 | 26 | 181 | 14.5 | 24.1 | 0.00 | 0.00 | 0.00 | 81 | 1009.8 |
| 20260830194203 | 26 | 179 | 14.5 | 24.1 | 0.00 | 0.00 | 0.00 | 81 | 1009.8 |
| 20260830194128 | 26 | 145 | 14.5 | 24.1 | 0.00 | 0.00 | 0.00 | 81 | 1009.8 |
| 20260830194012 | 26 | 198 | 14.5 | 24.1 | 0.00 | 0.00 | 0.00 | 81 | 1009.8 |
| 20260830193857 | 26 | 204 | 14.5 | 27.4 | 0.00 | 0.00 | 0.00 | 81 | 1009.9 |
| 20260830193759 | 26 | 138 | 12.9 | 27.4 | 0.00 | 0.00 | 0.00 | 82 | 1010.0 |
| 20260830193703 | 26 | 167 | 12.9 | 27.4 | 0.00 | 0.00 | 0.00 | 82 | 1009.9 |
| 20260830193628 | 26 | 168 | 14.5 | 27.4 | 0.00 | 0.00 | 0.00 | 82 | 1009.9 |
| 20260830193456 | 26 | 172 | 14.5 | 27.4 | 0.00 | 0.00 | 0.00 | 81 | 1010.0 |
| 20260830193420 | 26 | 191 | 16.1 | 27.4 | 0.00 | 0.00 | 0.00 | 82 | 1010.1 |
| 20260830193324 | 26 | 155 | 16.1 | 27.4 | 0.00 | 0.00 | 0.00 | 82 | 1010.1 |
| 20260830193207 | 26 | 142 | 16.1 | 27.4 | 0.00 | 0.00 | 0.00 | 83 | 1010.1 |
| 20260830193112 | 26 | 150 | 14.5 | 27.4 | 0.00 | 0.00 | 0.00 | 82 | 1010.1 |
| 20260830193017 | 26 | 140 | 12.9 | 25.7 | 0.00 | 0.00 | 0.00 | 82 | 1010.1 |
| 20260830192900 | 26 | 163 | 12.9 | 25.7 | 0.00 | 0.00 | 0.00 | 83 | 1010.2 |
| 20260830192824 | 26 | 157 | 12.9 | 25.7 | 0.00 | 0.00 | 0.00 | 82 | 1010.2 |
| 20260830192712 | 26 | 165 | 12.9 | 25.7 | 0.00 | 0.00 | 0.00 | 82 | 1010.2 |
| 20260830192556 | 26 | 142 | 11.3 | 25.7 | 0.00 | 0.00 | 0.00 | 83 | 1010.2 |
| 20260830192500 | 26 | 169 | 8.0 | 20.9 | 0.00 | 0.00 | 0.00 | 83 | 1010.2 |
| 20260830192405 | 26 | 161 | 11.3 | 20.9 | 0.00 | 0.00 | 0.00 | 82 | 1010.2 |
| 20260830192310 | 26 | 140 | 12.9 | 20.9 | 0.00 | 0.00 | 0.00 | 82 | 1010.2 |
| 20260830192159 | 26 | 150 | 14.5 | 20.9 | 0.00 | 0.00 | 0.00 | 82 | 1010.3 |
| 20260830192103 | 26 | 134 | 12.9 | 20.9 | 0.00 | 0.00 | 0.00 | 82 | 1010.4 |
| 20260830192028 | 26 | 151 | 11.3 | 20.9 | 0.00 | 0.00 | 0.00 | 82 | 1010.4 |
| 20260830191913 | 26 | 155 | 11.3 | 17.7 | 0.00 | 0.00 | 0.00 | 82 | 1010.4 |
| 20260830191818 | 26 | 206 | 12.9 | 17.7 | 0.00 | 0.00 | 0.00 | 82 | 1010.4 |
| 20260830191655 | 26 | 175 | 14.5 | 17.7 | 0.00 | 0.00 | 0.00 | 82 | 1010.5 |
| 20260830191600 | 26 | 199 | 12.9 | 19.3 | 0.00 | 0.00 | 0.00 | 82 | 1010.6 |
| 20260830191508 | 26 | 173 | 11.3 | 19.3 | 0.00 | 0.00 | 0.00 | 83 | 1010.6 |
| 20260830191354 | 26 | 185 | 9.7 | 19.3 | 0.00 | 0.00 | 0.00 | 82 | 1010.7 |
| 20260830191259 | 26 | 154 | 9.7 | 17.7 | 0.00 | 0.00 | 0.00 | 83 | 1010.7 |
| 20260830191204 | 26 | 176 | 6.4 | 17.7 | 0.00 | 0.00 | 0.00 | 83 | 1010.7 |
| 20260830191129 | 26 | 154 | 8.0 | 17.7 | 0.00 | 0.00 | 0.00 | 83 | 1010.7 |
| 20260830191013 | 26 | 150 | 9.7 | 17.7 | 0.00 | 0.00 | 0.00 | 82 | 1010.8 |
| 20260830190901 | 26 | 165 | 12.9 | 17.7 | 0.00 | 0.00 | 0.00 | 82 | 1010.8 |
| 20260830190806 | 26 | 148 | 12.9 | 19.3 | 0.00 | 0.00 | 0.00 | 82 | 1010.8 |
| 20260830190732 | 26 | 166 | 11.3 | 20.9 | 0.00 | 0.00 | 0.00 | 83 | 1010.8 |
| 20260830190615 | 25 | 196 | 11.3 | 17.7 | 0.00 | 0.00 | 0.00 | 83 | 1010.7 |
| 20260830190459 | 25 | 194 | 11.3 | 17.7 | 0.00 | 0.00 | 0.00 | 82 | 1010.7 |
| 20260830190404 | 25 | 195 | 11.3 | 17.7 | 0.00 | 0.00 | 0.00 | 82 | 1010.8 |
| 20260830190328 | 25 | 165 | 12.9 | 17.7 | 0.00 | 0.00 | 0.00 | 82 | 1010.8 |
| 20260830190156 | 25 | 163 | 11.3 | 17.7 | 0.00 | 0.00 | 0.00 | 83 | 1010.7 |
| 20260830190100 | 25 | 171 | 9.7 | 17.7 | 0.00 | 0.00 | 0.00 | 83 | 1010.8 |
| 20260830190005 | 25 | 146 | 8.0 | 17.7 | 0.00 | 0.00 | 0.00 | 83 | 1010.7 |
| 20260830185909 | 25 | 159 | 8.0 | 17.7 | 0.00 | 0.00 | 0.00 | 83 | 1010.7 |
| 20260830185754 | 25 | 171 | 8.0 | 17.7 | 0.00 | 0.00 | 0.00 | 83 | 1010.8 |
| 20260830185720 | 25 | 171 | 11.3 | 17.7 | 0.00 | 0.00 | 0.00 | 82 | 1010.8 |
| 20260830185607 | 25 | 169 | 11.3 | 17.7 | 0.00 | 0.00 | 0.00 | 82 | 1010.8 |
| 20260830185512 | 25 | 158 | 11.3 | 17.7 | 0.00 | 0.00 | 0.00 | 82 | 1010.9 |
| 20260830185357 | 25 | 176 | 9.7 | 17.7 | 0.00 | 0.00 | 0.00 | 82 | 1010.9 |
| 20260830185302 | 25 | 161 | 11.3 | 17.7 | 0.00 | 0.00 | 0.00 | 82 | 1010.8 |
| 20260830185206 | 25 | 157 | 11.3 | 17.7 | 0.00 | 0.00 | 0.00 | 83 | 1010.8 |
| 20260830185111 | 25 | 175 | 12.9 | 17.7 | 0.00 | 0.00 | 0.00 | 82 | 1010.9 |
| 20260830185001 | 25 | 195 | 14.5 | 20.9 | 0.00 | 0.00 | 0.00 | 82 | 1010.9 |
| 20260830184906 | 25 | 171 | 12.9 | 20.9 | 0.00 | 0.00 | 0.00 | 82 | 1010.8 |
| 20260830184810 | 26 | 163 | 14.5 | 20.9 | 0.00 | 0.00 | 0.00 | 82 | 1010.8 |
| 20260830184656 | 26 | 183 | 12.9 | 20.9 | 0.00 | 0.00 | 0.00 | 82 | 1010.7 |
| 20260830184601 | 26 | 136 | 11.3 | 20.9 | 0.00 | 0.00 | 0.00 | 83 | 1010.8 |
| 20260830184505 | 26 | 163 | 12.9 | 20.9 | 0.00 | 0.00 | 0.00 | 83 | 1010.7 |
| 20260830184413 | 26 | 136 | 12.9 | 25.7 | 0.00 | 0.00 | 0.00 | 82 | 1010.7 |
| 20260830184315 | 26 | 147 | 11.3 | 25.7 | 0.00 | 0.00 | 0.00 | 84 | 1010.6 |
| 20260830184159 | 25 | 153 | 9.7 | 25.7 | 0.00 | 0.00 | 0.00 | 84 | 1010.7 |
| 20260830184122 | 25 | 119 | 9.7 | 25.7 | 0.00 | 0.00 | 0.00 | 83 | 1010.6 |
| 20260830184025 | 25 | 173 | 9.7 | 25.7 | 0.00 | 0.00 | 0.00 | 83 | 1010.6 |
| 20260830183907 | 25 | 161 | 12.9 | 25.7 | 0.00 | 0.00 | 0.00 | 83 | 1010.6 |
| 20260830183811 | 25 | 149 | 12.9 | 25.7 | 0.00 | 0.00 | 0.00 | 83 | 1010.6 |
| 20260830183714 | 25 | 163 | 14.5 | 25.7 | 0.00 | 0.00 | 0.00 | 83 | 1010.6 |
| 20260830183601 | 25 | 192 | 11.3 | 25.7 | 0.00 | 0.00 | 0.00 | 83 | 1010.7 |
| 20260830183524 | 25 | 194 | 11.3 | 27.4 | 0.00 | 0.00 | 0.00 | 84 | 1010.6 |
| 20260830183408 | 25 | 168 | 11.3 | 20.9 | 0.00 | 0.00 | 0.00 | 83 | 1010.6 |
| 20260830183331 | 25 | 138 | 14.5 | 20.9 | 0.00 | 0.00 | 0.00 | 84 | 1010.7 |
| 20260830183215 | 25 | 148 | 14.5 | 19.3 | 0.00 | 0.00 | 0.00 | 84 | 1010.6 |
| 20260830183058 | 25 | 182 | 14.5 | 19.3 | 0.00 | 0.00 | 0.00 | 84 | 1010.6 |
| 20260830183002 | 25 | 194 | 14.5 | 19.3 | 0.00 | 0.00 | 0.00 | 84 | 1010.6 |
| 20260830182911 | 25 | 195 | 12.9 | 16.1 | 0.00 | 0.00 | 0.00 | 84 | 1010.6 |
| 20260830182756 | 25 | 164 | 11.3 | 16.1 | 0.00 | 0.00 | 0.00 | 84 | 1010.6 |
| 20260830182701 | 25 | 188 | 11.3 | 17.7 | 0.00 | 0.00 | 0.00 | 84 | 1010.6 |
| 20260830182625 | 25 | 190 | 9.7 | 12.9 | 0.00 | 0.00 | 0.00 | 84 | 1010.6 |
| 20260830182505 | 25 | 165 | 9.7 | 16.1 | 0.00 | 0.00 | 0.00 | 84 | 1010.6 |
| 20260830182409 | 25 | 184 | 9.7 | 16.1 | 0.00 | 0.00 | 0.00 | 84 | 1010.6 |
| 20260830182259 | 25 | 161 | 9.7 | 16.1 | 0.00 | 0.00 | 0.00 | 84 | 1010.7 |
| 20260830182203 | 25 | 161 | 9.7 | 19.3 | 0.00 | 0.00 | 0.00 | 84 | 1010.7 |
| 20260830182108 | 25 | 143 | 9.7 | 19.3 | 0.00 | 0.00 | 0.00 | 84 | 1010.7 |
| 20260830182033 | 25 | 167 | 9.7 | 19.3 | 0.00 | 0.00 | 0.00 | 84 | 1010.7 |
| 20260830181857 | 25 | 190 | 9.7 | 19.3 | 0.00 | 0.00 | 0.00 | 84 | 1010.7 |
| 20260830181801 | 25 | 142 | 9.7 | 19.3 | 0.00 | 0.00 | 0.00 | 84 | 1010.8 |
| 20260830181706 | 25 | 184 | 11.3 | 19.3 | 0.00 | 0.00 | 0.00 | 83 | 1010.9 |
| 20260830181555 | 25 | 182 | 12.9 | 19.3 | 0.00 | 0.00 | 0.00 | 84 | 1011.0 |
| 20260830181520 | 25 | 195 | 12.9 | 19.3 | 0.00 | 0.00 | 0.00 | 84 | 1011.0 |
| 20260830181357 | 25 | 192 | 11.3 | 24.1 | 0.00 | 0.00 | 0.00 | 84 | 1011.0 |
| 20260830181302 | 25 | 188 | 8.0 | 24.1 | 0.00 | 0.00 | 0.00 | 84 | 1011.1 |
| 20260830181206 | 25 | 166 | 9.7 | 24.1 | 0.00 | 0.00 | 0.00 | 84 | 1011.1 |
| 20260830181056 | 25 | 180 | 12.9 | 24.1 | 0.00 | 0.00 | 0.00 | 83 | 1011.1 |
| 20260830181001 | 25 | 193 | 12.9 | 24.1 | 0.00 | 0.00 | 0.00 | 83 | 1011.1 |
| 20260830180905 | 25 | 180 | 12.9 | 24.1 | 0.00 | 0.00 | 0.00 | 83 | 1011.1 |
| 20260830180829 | 25 | 182 | 12.9 | 24.1 | 0.00 | 0.00 | 0.00 | 83 | 1011.1 |
| 20260830180733 | 25 | 169 | 14.5 | 24.1 | 0.00 | 0.00 | 0.00 | 83 | 1011.2 |
| 20260830180557 | 25 | 159 | 12.9 | 22.5 | 0.00 | 0.00 | 0.00 | 83 | 1011.2 |
| 20260830180522 | 25 | 191 | 11.3 | 17.7 | 0.00 | 0.00 | 0.00 | 84 | 1011.2 |
| 20260830180425 | 25 | 198 | 12.9 | 17.7 | 0.00 | 0.00 | 0.00 | 84 | 1011.1 |
| 20260830180312 | 25 | 177 | 14.5 | 17.7 | 0.00 | 0.00 | 0.00 | 84 | 1011.1 |
| 20260830180158 | 25 | 202 | 11.3 | 16.1 | 0.00 | 0.00 | 0.00 | 84 | 1011.1 |
| 20260830180006 | 25 | 198 | 9.7 | 16.1 | 0.00 | 0.00 | 0.00 | 84 | 1011.1 |
| 20260830175911 | 25 | 171 | 11.3 | 16.1 | 0.00 | 0.00 | 0.00 | 84 | 1011.1 |
| 20260830175816 | 25 | 169 | 9.7 | 16.1 | 0.00 | 0.00 | 0.00 | 84 | 1011.0 |
| 20260830175704 | 25 | 174 | 9.7 | 16.1 | 0.00 | 0.00 | 0.00 | 84 | 1011.0 |
| 20260830175608 | 25 | 178 | 11.3 | 17.7 | 0.00 | 0.00 | 0.00 | 84 | 1011.0 |
| 20260830175454 | 25 | 190 | 11.3 | 20.9 | 0.00 | 0.00 | 0.00 | 84 | 1011.2 |
| 20260830175418 | 25 | 182 | 11.3 | 20.9 | 0.00 | 0.00 | 0.00 | 84 | 1011.2 |
| 20260830175305 | 25 | 207 | 11.3 | 20.9 | 0.00 | 0.00 | 0.00 | 84 | 1011.2 |
| 20260830175206 | 25 | 190 | 9.7 | 20.9 | 0.00 | 0.00 | 0.00 | 84 | 1011.2 |
| 20260830175056 | 25 | 184 | 8.0 | 20.9 | 0.00 | 0.00 | 0.00 | 85 | 1011.2 |
| 20260830175000 | 25 | 206 | 11.3 | 20.9 | 0.00 | 0.00 | 0.00 | 85 | 1011.3 |
| 20260830174925 | 25 | 188 | 14.5 | 20.9 | 0.00 | 0.00 | 0.00 | 85 | 1011.2 |
| 20260830174808 | 25 | 186 | 14.5 | 20.9 | 0.00 | 0.00 | 0.00 | 84 | 1011.2 |
| 20260830174654 | 25 | 150 | 12.9 | 20.9 | 0.00 | 0.00 | 0.00 | 84 | 1011.2 |
| 20260830174558 | 25 | 190 | 12.9 | 17.7 | 0.00 | 0.00 | 0.00 | 85 | 1011.2 |
| 20260830174503 | 25 | 194 | 11.3 | 16.1 | 0.00 | 0.00 | 0.00 | 85 | 1011.1 |
| 20260830174431 | 25 | 169 | 11.3 | 14.5 | 0.00 | 0.00 | 0.00 | 85 | 1011.1 |
| 20260830174254 | 25 | 169 | 11.3 | 19.3 | 0.00 | 0.00 | 0.00 | 85 | 1011.2 |
| 20260830174200 | 25 | 202 | 11.3 | 19.3 | 0.00 | 0.00 | 0.00 | 85 | 1011.1 |
| 20260830174105 | 25 | 195 | 9.7 | 19.3 | 0.00 | 0.00 | 0.00 | 85 | 1011.2 |
| 20260830174010 | 25 | 199 | 8.0 | 19.3 | 0.00 | 0.00 | 0.00 | 85 | 1011.2 |
| 20260830173854 | 25 | 169 | 9.7 | 19.3 | 0.00 | 0.00 | 0.00 | 85 | 1011.2 |
| 20260830173804 | 25 | 204 | 11.3 | 19.3 | 0.00 | 0.00 | 0.00 | 85 | 1011.1 |
| 20260830173709 | 25 | 215 | 11.3 | 19.3 | 0.00 | 0.00 | 0.00 | 85 | 1011.1 |
| 20260830173634 | 25 | 189 | 12.9 | 19.3 | 0.00 | 0.00 | 0.00 | 85 | 1011.2 |
| 20260830173457 | 25 | 173 | 12.9 | 19.3 | 0.00 | 0.00 | 0.00 | 85 | 1011.2 |
| 20260830173401 | 24 | 189 | 12.9 | 17.7 | 0.00 | 0.00 | 0.00 | 85 | 1011.1 |
| 20260830173305 | 25 | 180 | 9.7 | 17.7 | 0.00 | 0.00 | 0.00 | 85 | 1011.1 |
| 20260830173154 | 24 | 171 | 11.3 | 17.7 | 0.00 | 0.00 | 0.00 | 85 | 1011.2 |
| 20260830173058 | 25 | 170 | 12.9 | 17.7 | 0.00 | 0.00 | 0.00 | 85 | 1011.2 |
| 20260830173003 | 25 | 191 | 11.3 | 16.1 | 0.00 | 0.00 | 0.00 | 85 | 1011.2 |
| 20260830172907 | 25 | 202 | 11.3 | 16.1 | 0.00 | 0.00 | 0.00 | 85 | 1011.2 |
| 20260830172812 | 25 | 201 | 11.3 | 16.1 | 0.00 | 0.00 | 0.00 | 85 | 1011.2 |
| 20260830172658 | 24 | 202 | 12.9 | 16.1 | 0.00 | 0.00 | 0.00 | 85 | 1011.3 |
| 20260830172607 | 24 | 184 | 12.9 | 16.1 | 0.00 | 0.00 | 0.00 | 85 | 1011.3 |
| 20260830172511 | 24 | 188 | 11.3 | 16.1 | 0.00 | 0.00 | 0.00 | 85 | 1011.2 |
| 20260830172416 | 24 | 213 | 11.3 | 16.1 | 0.00 | 0.00 | 0.00 | 86 | 1011.2 |
| 20260830172300 | 24 | 213 | 9.7 | 16.1 | 0.00 | 0.00 | 0.00 | 86 | 1011.2 |
| 20260830172204 | 24 | 188 | 8.0 | 16.1 | 0.00 | 0.00 | 0.00 | 86 | 1011.1 |
| 20260830172129 | 24 | 231 | 8.0 | 16.1 | 0.00 | 0.00 | 0.00 | 85 | 1011.1 |
| 20260830171956 | 24 | 194 | 9.7 | 16.1 | 0.00 | 0.00 | 0.00 | 85 | 1011.1 |
| 20260830171901 | 24 | 174 | 9.7 | 16.1 | 0.00 | 0.00 | 0.00 | 85 | 1011.1 |
| 20260830171805 | 24 | 182 | 11.3 | 16.1 | 0.00 | 0.00 | 0.00 | 85 | 1011.1 |
| 20260830171709 | 24 | 190 | 11.3 | 16.1 | 0.00 | 0.00 | 0.00 | 85 | 1011.1 |
| 20260830171634 | 24 | 196 | 11.3 | 16.1 | 0.00 | 0.00 | 0.00 | 85 | 1011.1 |
| 20260830171518 | 24 | 202 | 11.3 | 16.1 | 0.00 | 0.00 | 0.00 | 85 | 1011.1 |
| 20260830171355 | 24 | 197 | 12.9 | 16.1 | 0.00 | 0.00 | 0.00 | 85 | 1011.0 |
| 20260830171325 | 24 | 211 | 12.9 | 16.1 | 0.00 | 0.00 | 0.00 | 85 | 1011.0 |
| 20260830171209 | 24 | 220 | 11.3 | 16.1 | 0.00 | 0.00 | 0.00 | 86 | 1011.0 |
| 20260830171113 | 24 | 205 | 11.3 | 16.1 | 0.00 | 0.00 | 0.00 | 85 | 1010.9 |
| 20260830170958 | 24 | 138 | 11.3 | 16.1 | 0.00 | 0.00 | 0.00 | 85 | 1011.0 |
| 20260830170901 | 24 | 161 | 11.3 | 16.1 | 0.00 | 0.00 | 0.00 | 86 | 1010.9 |
| 20260830170804 | 24 | 129 | 11.3 | 16.1 | 0.00 | 0.00 | 0.00 | 86 | 1010.9 |
| 20260830170713 | 24 | 176 | 9.7 | 16.1 | 0.00 | 0.00 | 0.00 | 86 | 1010.9 |
| 20260830170617 | 24 | 163 | 9.7 | 14.5 | 0.00 | 0.00 | 0.00 | 86 | 1010.9 |
| 20260830170454 | 24 | 180 | 11.3 | 14.5 | 0.00 | 0.00 | 0.00 | 85 | 1010.9 |
| 20260830170358 | 24 | 170 | 11.3 | 14.5 | 0.00 | 0.00 | 0.00 | 85 | 1011.0 |
| 20260830170324 | 24 | 171 | 9.7 | 16.1 | 0.00 | 0.00 | 0.00 | 86 | 1010.9 |
| 20260830170207 | 24 | 163 | 8.0 | 16.1 | 0.00 | 0.00 | 0.00 | 85 | 1010.9 |
| 20260830170056 | 24 | 167 | 6.4 | 16.1 | 0.00 | 0.00 | 0.00 | 86 | 1011.0 |
| 20260830170000 | 24 | 161 | 8.0 | 16.1 | 0.00 | 0.00 | 0.00 | 86 | 1011.0 |
| 20260830165905 | 24 | 177 | 9.7 | 16.1 | 0.00 | 0.00 | 0.00 | 86 | 1010.9 |
| 20260830165810 | 24 | 167 | 11.3 | 16.1 | 0.00 | 0.00 | 0.00 | 86 | 1010.9 |
| 20260830165654 | 24 | 155 | 11.3 | 16.1 | 0.00 | 0.00 | 0.00 | 85 | 1010.9 |
| 20260830165558 | 24 | 178 | 11.3 | 16.1 | 0.00 | 0.00 | 0.00 | 85 | 1010.9 |
| 20260830165507 | 24 | 161 | 11.3 | 16.1 | 0.00 | 0.00 | 0.00 | 86 | 1010.9 |
| 20260830165432 | 24 | 200 | 9.7 | 16.1 | 0.00 | 0.00 | 0.00 | 86 | 1011.0 |
| 20260830165316 | 24 | 191 | 8.0 | 16.1 | 0.00 | 0.00 | 0.00 | 86 | 1010.9 |
| 20260830165159 | 24 | 171 | 6.4 | 12.9 | 0.00 | 0.00 | 0.00 | 86 | 1010.9 |
| 20260830165123 | 24 | 150 | 6.4 | 12.9 | 0.00 | 0.00 | 0.00 | 86 | 1010.9 |
| 20260830165007 | 24 | 141 | 8.0 | 12.9 | 0.00 | 0.00 | 0.00 | 86 | 1010.9 |
| 20260830164913 | 24 | 126 | 8.0 | 12.9 | 0.00 | 0.00 | 0.00 | 86 | 1010.9 |
| 20260830164817 | 24 | 171 | 6.4 | 14.5 | 0.00 | 0.00 | 0.00 | 87 | 1010.9 |
| 20260830164725 | 23 | 156 | 6.4 | 12.9 | 0.00 | 0.00 | 0.00 | 87 | 1011.0 |
| 20260830164628 | 23 | 164 | 6.4 | 14.5 | 0.00 | 0.00 | 0.00 | 87 | 1011.0 |
| 20260830164512 | 23 | 159 | 8.0 | 16.1 | 0.00 | 0.00 | 0.00 | 87 | 1010.9 |
| 20260830164356 | 23 | 175 | 6.4 | 16.1 | 0.00 | 0.00 | 0.00 | 87 | 1010.9 |
| 20260830164301 | 23 | 169 | 6.4 | 16.1 | 0.00 | 0.00 | 0.00 | 87 | 1010.8 |
| 20260830164205 | 23 | 166 | 6.4 | 16.1 | 0.00 | 0.00 | 0.00 | 87 | 1010.8 |
| 20260830164054 | 23 | 157 | 4.8 | 16.1 | 0.00 | 0.00 | 0.00 | 88 | 1010.8 |
| 20260830163959 | 23 | 142 | 6.4 | 16.1 | 0.00 | 0.00 | 0.00 | 88 | 1010.8 |
| 20260830163903 | 23 | 148 | 9.7 | 16.1 | 0.00 | 0.00 | 0.00 | 87 | 1010.8 |
| 20260830163808 | 23 | 132 | 9.7 | 16.1 | 0.00 | 0.00 | 0.00 | 87 | 1010.8 |
| 20260830163653 | 23 | 154 | 9.7 | 14.5 | 0.00 | 0.00 | 0.00 | 87 | 1010.8 |
| 20260830163559 | 23 | 124 | 8.0 | 14.5 | 0.00 | 0.00 | 0.00 | 87 | 1010.8 |
| 20260830163507 | 23 | 155 | 6.4 | 14.5 | 0.00 | 0.00 | 0.00 | 87 | 1010.8 |
| 20260830163412 | 23 | 123 | 6.4 | 16.1 | 0.00 | 0.00 | 0.00 | 88 | 1010.8 |
| 20260830163337 | 23 | 132 | 6.4 | 16.1 | 0.00 | 0.00 | 0.00 | 87 | 1010.7 |
| 20260830163153 | 23 | 137 | 6.4 | 17.7 | 0.00 | 0.00 | 0.00 | 87 | 1010.8 |
| 20260830163058 | 23 | 162 | 8.0 | 17.7 | 0.00 | 0.00 | 0.00 | 87 | 1010.8 |
| 20260830163022 | 23 | 167 | 8.0 | 17.7 | 0.00 | 0.00 | 0.00 | 87 | 1010.8 |
| 20260830162907 | 23 | 140 | 6.4 | 17.7 | 0.00 | 0.00 | 0.00 | 87 | 1010.8 |
| 20260830162755 | 23 | 134 | 6.4 | 17.7 | 0.00 | 0.00 | 0.00 | 87 | 1010.7 |
| 20260830162719 | 23 | 128 | 9.7 | 17.7 | 0.00 | 0.00 | 0.00 | 87 | 1010.7 |
| 20260830162623 | 23 | 153 | 11.3 | 17.7 | 0.00 | 0.00 | 0.00 | 87 | 1010.6 |
| 20260830162505 | 23 | 153 | 11.3 | 17.7 | 0.00 | 0.00 | 0.00 | 87 | 1010.7 |
| 20260830162410 | 23 | 146 | 11.3 | 17.7 | 0.00 | 0.00 | 0.00 | 87 | 1010.7 |
| 20260830162315 | 23 | 175 | 8.0 | 16.1 | 0.00 | 0.00 | 0.00 | 87 | 1010.7 |
| 20260830162219 | 23 | 190 | 8.0 | 16.1 | 0.00 | 0.00 | 0.00 | 87 | 1010.7 |
| 20260830162102 | 23 | 155 | 8.0 | 16.1 | 0.00 | 0.00 | 0.00 | 87 | 1010.7 |
| 20260830162011 | 23 | 161 | 8.0 | 16.1 | 0.00 | 0.00 | 0.00 | 87 | 1010.7 |
| 20260830161938 | 23 | 171 | 9.7 | 17.7 | 0.00 | 0.00 | 0.00 | 87 | 1010.8 |
| 20260830161754 | 23 | 171 | 9.7 | 17.7 | 0.00 | 0.00 | 0.00 | 87 | 1010.7 |
| 20260830161700 | 23 | 173 | 8.0 | 17.7 | 0.00 | 0.00 | 0.00 | 87 | 1010.7 |
| 20260830161605 | 23 | 178 | 9.7 | 17.7 | 0.00 | 0.00 | 0.00 | 87 | 1010.7 |
| 20260830161509 | 23 | 192 | 11.3 | 17.7 | 0.00 | 0.00 | 0.00 | 87 | 1010.7 |
| 20260830161358 | 23 | 163 | 11.3 | 17.7 | 0.00 | 0.00 | 0.00 | 87 | 1010.7 |
| 20260830161303 | 23 | 146 | 12.9 | 17.7 | 0.00 | 0.00 | 0.00 | 87 | 1010.7 |
| 20260830161207 | 23 | 183 | 12.9 | 17.7 | 0.00 | 0.00 | 0.00 | 87 | 1010.7 |
| 20260830161112 | 23 | 153 | 12.9 | 17.7 | 0.00 | 0.00 | 0.00 | 87 | 1010.7 |
| 20260830160958 | 23 | 202 | 9.7 | 17.7 | 0.00 | 0.00 | 0.00 | 87 | 1010.7 |
| 20260830160902 | 23 | 182 | 9.7 | 17.7 | 0.00 | 0.00 | 0.00 | 87 | 1010.7 |
| 20260830160827 | 23 | 171 | 8.0 | 17.7 | 0.00 | 0.00 | 0.00 | 87 | 1010.7 |
| 20260830160717 | 23 | 173 | 9.7 | 17.7 | 0.00 | 0.00 | 0.00 | 87 | 1010.8 |
| 20260830160555 | 23 | 184 | 11.3 | 17.7 | 0.00 | 0.00 | 0.00 | 87 | 1010.7 |
| 20260830160459 | 23 | 146 | 12.9 | 17.7 | 0.00 | 0.00 | 0.00 | 87 | 1010.6 |
| 20260830160405 | 23 | 206 | 9.7 | 17.7 | 0.00 | 0.00 | 0.00 | 87 | 1010.7 |
| 20260830160309 | 23 | 147 | 11.3 | 17.7 | 0.00 | 0.00 | 0.00 | 87 | 1010.7 |
| 20260830160158 | 23 | 159 | 9.7 | 17.7 | 0.00 | 0.00 | 0.00 | 87 | 1010.7 |
| 20260830160104 | 23 | 180 | 8.0 | 19.3 | 0.00 | 0.00 | 0.00 | 87 | 1010.7 |
| 20260830160009 | 23 | 165 | 8.0 | 19.3 | 0.00 | 0.00 | 0.00 | 87 | 1010.7 |
| 20260830155913 | 23 | 167 | 8.0 | 19.3 | 0.00 | 0.00 | 0.00 | 87 | 1010.7 |
| 20260830155818 | 23 | 148 | 9.7 | 19.3 | 0.00 | 0.00 | 0.00 | 87 | 1010.8 |
| 20260830155655 | 23 | 175 | 11.3 | 19.3 | 0.00 | 0.00 | 0.00 | 87 | 1010.9 |
| 20260830155619 | 23 | 152 | 11.3 | 19.3 | 0.00 | 0.00 | 0.00 | 87 | 1010.9 |
| 20260830155506 | 23 | 161 | 12.9 | 19.3 | 0.00 | 0.00 | 0.00 | 87 | 1010.9 |
| 20260830155411 | 23 | 142 | 11.3 | 19.3 | 0.00 | 0.00 | 0.00 | 87 | 1010.9 |
| 20260830155317 | 23 | 153 | 8.0 | 17.7 | 0.00 | 0.00 | 0.00 | 87 | 1010.8 |
| 20260830155155 | 23 | 140 | 9.7 | 17.7 | 0.00 | 0.00 | 0.00 | 87 | 1010.9 |
| 20260830155059 | 23 | 145 | 11.3 | 17.7 | 0.00 | 0.00 | 0.00 | 87 | 1011.0 |
| 20260830155025 | 23 | 189 | 12.9 | 17.7 | 0.00 | 0.00 | 0.00 | 87 | 1010.9 |
| 20260830154913 | 23 | 184 | 11.3 | 17.7 | 0.00 | 0.00 | 0.00 | 87 | 1010.9 |
| 20260830154819 | 23 | 139 | 11.3 | 17.7 | 0.00 | 0.00 | 0.00 | 87 | 1010.9 |
| 20260830154656 | 23 | 192 | 9.7 | 17.7 | 0.00 | 0.00 | 0.00 | 87 | 1010.8 |
| 20260830154602 | 23 | 158 | 11.3 | 17.7 | 0.00 | 0.00 | 0.00 | 87 | 1010.8 |
| 20260830154507 | 23 | 127 | 11.3 | 17.7 | 0.00 | 0.00 | 0.00 | 87 | 1010.8 |
| 20260830154411 | 23 | 147 | 8.0 | 17.7 | 0.00 | 0.00 | 0.00 | 87 | 1010.7 |
| 20260830154319 | 23 | 167 | 6.4 | 17.7 | 0.00 | 0.00 | 0.00 | 87 | 1010.7 |
| 20260830154157 | 23 | 156 | 9.7 | 17.7 | 0.00 | 0.00 | 0.00 | 87 | 1010.6 |
| 20260830154102 | 23 | 171 | 9.7 | 17.7 | 0.00 | 0.00 | 0.00 | 88 | 1010.7 |
| 20260830154006 | 23 | 123 | 9.7 | 17.7 | 0.00 | 0.00 | 0.00 | 88 | 1010.7 |
| 20260830153911 | 23 | 148 | 9.7 | 17.7 | 0.00 | 0.00 | 0.00 | 88 | 1010.6 |
| 20260830153816 | 23 | 140 | 8.0 | 17.7 | 0.00 | 0.00 | 0.00 | 88 | 1010.7 |
| 20260830153704 | 23 | 159 | 8.0 | 17.7 | 0.00 | 0.00 | 0.00 | 88 | 1010.7 |
| 20260830153628 | 23 | 158 | 8.0 | 17.7 | 0.00 | 0.00 | 0.00 | 88 | 1010.7 |
| 20260830153512 | 23 | 163 | 8.0 | 17.7 | 0.00 | 0.00 | 0.00 | 88 | 1010.8 |
| 20260830153358 | 23 | 177 | 8.0 | 17.7 | 0.00 | 0.00 | 0.00 | 88 | 1010.8 |
| 20260830153302 | 23 | 163 | 9.7 | 17.7 | 0.00 | 0.00 | 0.00 | 88 | 1010.8 |
| 20260830153207 | 23 | 175 | 9.7 | 17.7 | 0.00 | 0.00 | 0.00 | 88 | 1010.8 |
| 20260830153133 | 23 | 183 | 9.7 | 17.7 | 0.00 | 0.00 | 0.00 | 88 | 1010.8 |
| 20260830153001 | 23 | 172 | 9.7 | 16.1 | 0.00 | 0.00 | 0.00 | 88 | 1010.8 |
| 20260830152906 | 23 | 159 | 9.7 | 16.1 | 0.00 | 0.00 | 0.00 | 87 | 1010.8 |
| 20260830152811 | 23 | 165 | 9.7 | 16.1 | 0.00 | 0.00 | 0.00 | 88 | 1010.8 |
| 20260830152655 | 23 | 188 | 8.0 | 16.1 | 0.00 | 0.00 | 0.00 | 88 | 1010.8 |
| 20260830152601 | 23 | 192 | 8.0 | 16.1 | 0.00 | 0.00 | 0.00 | 88 | 1010.8 |
| 20260830152506 | 23 | 189 | 9.7 | 16.1 | 0.00 | 0.00 | 0.00 | 88 | 1010.8 |
| 20260830152415 | 23 | 190 | 8.0 | 16.1 | 0.00 | 0.00 | 0.00 | 88 | 1010.6 |
| 20260830152258 | 23 | 176 | 8.0 | 16.1 | 0.00 | 0.00 | 0.00 | 88 | 1010.6 |
| 20260830152203 | 23 | 173 | 9.7 | 16.1 | 0.00 | 0.00 | 0.00 | 88 | 1010.5 |
| 20260830152107 | 23 | 215 | 9.7 | 16.1 | 0.00 | 0.00 | 0.00 | 88 | 1010.5 |
| 20260830152012 | 22 | 171 | 9.7 | 16.1 | 0.00 | 0.00 | 0.00 | 89 | 1010.4 |
| 20260830151856 | 22 | 166 | 9.7 | 16.1 | 0.00 | 0.00 | 0.00 | 89 | 1010.4 |
| 20260830151805 | 22 | 188 | 11.3 | 16.1 | 0.00 | 0.00 | 0.00 | 88 | 1010.5 |
| 20260830151709 | 22 | 138 | 11.3 | 16.1 | 0.00 | 0.00 | 0.00 | 88 | 1010.5 |
| 20260830151554 | 22 | 179 | 11.3 | 16.1 | 0.00 | 0.00 | 0.00 | 89 | 1010.4 |
| 20260830151459 | 22 | 191 | 12.9 | 17.7 | 0.00 | 0.00 | 0.00 | 89 | 1010.4 |
| 20260830151403 | 22 | 196 | 11.3 | 19.3 | 0.00 | 0.00 | 0.00 | 89 | 1010.3 |
| 20260830151308 | 22 | 193 | 8.0 | 19.3 | 0.00 | 0.00 | 0.00 | 89 | 1010.3 |
| 20260830151216 | 22 | 184 | 8.0 | 19.3 | 0.00 | 0.00 | 0.00 | 89 | 1010.2 |
| 20260830151119 | 22 | 161 | 9.7 | 19.3 | 0.00 | 0.00 | 0.00 | 89 | 1010.3 |
| 20260830150956 | 22 | 178 | 11.3 | 19.3 | 0.00 | 0.00 | 0.00 | 89 | 1010.2 |
| 20260830150921 | 22 | 180 | 11.3 | 19.3 | 0.00 | 0.00 | 0.00 | 89 | 1010.3 |
| 20260830150805 | 22 | 137 | 11.3 | 19.3 | 0.00 | 0.00 | 0.00 | 89 | 1010.2 |
| 20260830150710 | 22 | 152 | 12.9 | 19.3 | 0.00 | 0.00 | 0.00 | 88 | 1010.2 |
| 20260830150559 | 22 | 159 | 12.9 | 19.3 | 0.00 | 0.00 | 0.00 | 89 | 1010.4 |
| 20260830150503 | 22 | 169 | 11.3 | 16.1 | 0.00 | 0.00 | 0.00 | 89 | 1010.6 |
| 20260830150428 | 22 | 207 | 9.7 | 16.1 | 0.00 | 0.00 | 0.00 | 90 | 1010.6 |
| 20260830150312 | 22 | 196 | 9.7 | 12.9 | 0.00 | 0.00 | 0.00 | 90 | 1010.6 |
| 20260830150238 | 22 | 171 | 9.7 | 12.9 | 0.00 | 0.00 | 0.00 | 90 | 1010.6 |
| 20260830150055 | 22 | 175 | 9.7 | 12.9 | 0.00 | 0.03 | 0.00 | 90 | 1010.7 |
| 20260830145959 | 22 | 184 | 8.0 | 12.9 | 0.00 | 0.03 | 0.00 | 90 | 1010.7 |
| 20260830145909 | 22 | 198 | 8.0 | 14.5 | 0.00 | 0.03 | 0.00 | 91 | 1010.7 |
| 20260830145813 | 22 | 159 | 9.7 | 14.5 | 0.00 | 0.03 | 0.00 | 91 | 1010.8 |
| 20260830145658 | 22 | 154 | 8.0 | 14.5 | 0.00 | 0.03 | 0.00 | 91 | 1010.9 |
| 20260830145622 | 22 | 139 | 6.4 | 14.5 | 0.00 | 0.03 | 0.00 | 91 | 1010.8 |
| 20260830145507 | 22 | 146 | 6.4 | 14.5 | 0.00 | 0.03 | 0.00 | 91 | 1010.8 |
| 20260830145411 | 22 | 171 | 6.4 | 14.5 | 0.00 | 0.03 | 0.00 | 91 | 1010.9 |
| 20260830145301 | 22 | 168 | 8.0 | 14.5 | 0.00 | 0.03 | 0.00 | 90 | 1010.8 |
| 20260830145205 | 22 | 169 | 9.7 | 14.5 | 0.00 | 0.03 | 0.00 | 91 | 1010.9 |
| 20260830145129 | 22 | 162 | 9.7 | 14.5 | 0.00 | 0.03 | 0.00 | 91 | 1010.9 |
| 20260830145033 | 22 | 169 | 6.4 | 12.9 | 0.00 | 0.03 | 0.00 | 91 | 1010.9 |
| 20260830144858 | 21 | 166 | 6.4 | 12.9 | 0.00 | 0.03 | 0.00 | 91 | 1010.8 |
| 20260830144803 | 21 | 153 | 6.4 | 12.9 | 0.00 | 0.03 | 0.00 | 91 | 1010.8 |
| 20260830144708 | 21 | 159 | 6.4 | 12.9 | 0.00 | 0.03 | 0.00 | 91 | 1010.8 |
| 20260830144556 | 21 | 155 | 6.4 | 12.9 | 0.00 | 0.03 | 0.00 | 91 | 1010.8 |
| 20260830144501 | 21 | 153 | 8.0 | 12.9 | 0.00 | 0.03 | 0.00 | 91 | 1010.8 |
| 20260830144406 | 21 | 149 | 8.0 | 16.1 | 0.00 | 0.03 | 0.00 | 91 | 1010.8 |
| 20260830144311 | 21 | 159 | 6.4 | 16.1 | 0.00 | 0.03 | 0.00 | 92 | 1010.8 |
| 20260830144156 | 21 | 153 | 8.0 | 16.1 | 0.00 | 0.03 | 0.00 | 92 | 1010.8 |
| 20260830144101 | 21 | 147 | 9.7 | 16.1 | 0.00 | 0.03 | 0.00 | 93 | 1010.8 |
| 20260830144009 | 21 | 198 | 8.0 | 16.1 | 0.00 | 0.03 | 0.00 | 93 | 1010.8 |
| 20260830143853 | 21 | 178 | 6.4 | 16.1 | 0.00 | 0.03 | 0.00 | 93 | 1010.9 |
| 20260830143759 | 21 | 194 | 6.4 | 16.1 | 0.00 | 0.03 | 0.00 | 93 | 1010.8 |
| 20260830143704 | 21 | 187 | 8.0 | 16.1 | 0.00 | 0.03 | 0.00 | 93 | 1010.8 |
| 20260830143628 | 21 | 168 | 9.7 | 16.1 | 0.00 | 0.03 | 0.00 | 93 | 1010.8 |
| 20260830143512 | 21 | 169 | 9.7 | 14.5 | 0.00 | 0.03 | 0.00 | 93 | 1010.8 |
| 20260830143401 | 21 | 136 | 8.0 | 14.5 | 0.00 | 0.03 | 0.00 | 93 | 1010.7 |
| 20260830143306 | 21 | 168 | 8.0 | 14.5 | 0.00 | 0.03 | 0.00 | 94 | 1010.7 |
| 20260830143206 | 21 | 159 | 9.7 | 14.5 | 0.00 | 0.03 | 0.00 | 94 | 1010.7 |
| 20260830143130 | 21 | 153 | 9.7 | 14.5 | 0.00 | 0.03 | 0.00 | 94 | 1010.8 |
| 20260830142954 | 21 | 183 | 6.4 | 14.5 | 0.00 | 0.03 | 0.00 | 94 | 1010.8 |
| 20260830142858 | 21 | 171 | 6.4 | 14.5 | 0.00 | 0.03 | 0.00 | 94 | 1010.8 |
| 20260830142803 | 21 | 188 | 8.0 | 14.5 | 0.00 | 0.03 | 0.00 | 94 | 1010.8 |
| 20260830142727 | 21 | 186 | 11.3 | 14.5 | 0.00 | 0.03 | 0.00 | 94 | 1010.8 |
| 20260830142554 | 21 | 202 | 11.3 | 14.5 | 0.00 | 0.03 | 0.00 | 95 | 1010.7 |
| 20260830142459 | 20 | 193 | 9.7 | 12.9 | 0.00 | 0.03 | 0.00 | 94 | 1010.8 |
| 20260830142403 | 20 | 201 | 8.0 | 11.3 | 0.00 | 0.03 | 0.00 | 94 | 1010.7 |
| 20260830142308 | 20 | 184 | 6.4 | 11.3 | 0.00 | 0.03 | 0.00 | 94 | 1010.8 |
| 20260830142209 | 20 | 169 | 4.8 | 11.3 | 0.00 | 0.03 | 0.00 | 94 | 1010.8 |
| 20260830142057 | 20 | 169 | 6.4 | 11.3 | 0.00 | 0.03 | 0.00 | 94 | 1010.8 |
| 20260830142002 | 20 | 169 | 6.4 | 11.3 | 0.00 | 0.03 | 0.00 | 94 | 1010.8 |
| 20260830141907 | 20 | 163 | 6.4 | 11.3 | 0.00 | 0.03 | 0.00 | 94 | 1010.8 |
| 20260830141812 | 20 | 164 | 6.4 | 11.3 | 0.00 | 0.03 | 0.00 | 94 | 1010.8 |
| 20260830141717 | 20 | 170 | 6.4 | 11.3 | 0.00 | 0.03 | 0.00 | 94 | 1010.7 |
| 20260830141554 | 20 | 171 | 8.0 | 11.3 | 0.00 | 0.03 | 0.00 | 94 | 1010.7 |
| 20260830141504 | 20 | 198 | 8.0 | 11.3 | 0.00 | 0.03 | 0.00 | 94 | 1010.7 |
| 20260830141428 | 20 | 188 | 9.7 | 11.3 | 0.00 | 0.03 | 0.00 | 94 | 1010.7 |
| 20260830141332 | 20 | 184 | 8.0 | 11.3 | 0.00 | 0.03 | 0.00 | 95 | 1010.8 |
| 20260830141238 | 20 | 199 | 6.4 | 11.3 | 0.00 | 0.03 | 0.00 | 95 | 1010.8 |
| 20260830141055 | 20 | 194 | 4.8 | 12.9 | 0.00 | 0.03 | 0.00 | 95 | 1010.7 |
| 20260830141020 | 20 | 194 | 6.4 | 12.9 | 0.00 | 0.03 | 0.00 | 94 | 1010.7 |
| 20260830140904 | 20 | 194 | 6.4 | 12.9 | 0.00 | 0.03 | 0.00 | 94 | 1010.7 |
| 20260830140808 | 20 | 197 | 8.0 | 12.9 | 0.00 | 0.03 | 0.00 | 94 | 1010.7 |
| 20260830140717 | 20 | 141 | 8.0 | 12.9 | 0.00 | 0.03 | 0.00 | 95 | 1010.7 |
| 20260830140601 | 20 | 184 | 8.0 | 12.9 | 0.00 | 0.03 | 0.00 | 95 | 1010.7 |
| 20260830140506 | 20 | 168 | 8.0 | 12.9 | 0.00 | 0.03 | 0.00 | 95 | 1010.7 |
| 20260830140410 | 20 | 172 | 9.7 | 12.9 | 0.00 | 0.03 | 0.00 | 95 | 1010.6 |
| 20260830140317 | 20 | 192 | 8.0 | 12.9 | 0.00 | 0.03 | 0.00 | 95 | 1010.7 |
| 20260830140154 | 20 | 196 | 6.4 | 12.9 | 0.00 | 0.36 | 0.00 | 95 | 1010.6 |
| 20260830140119 | 20 | 168 | 6.4 | 12.9 | 0.00 | 0.36 | 0.00 | 95 | 1010.7 |
| 20260830140008 | 20 | 174 | 8.0 | 12.9 | 0.00 | 0.36 | 0.00 | 95 | 1010.7 |
| 20260830135912 | 20 | 163 | 8.0 | 12.9 | 0.00 | 0.36 | 0.00 | 95 | 1010.6 |
| 20260830135817 | 20 | 165 | 8.0 | 14.5 | 0.00 | 0.36 | 0.00 | 95 | 1010.6 |
| 20260830135654 | 20 | 158 | 8.0 | 12.9 | 0.00 | 0.36 | 0.00 | 95 | 1010.6 |
| 20260830135619 | 20 | 153 | 6.4 | 12.9 | 0.00 | 0.36 | 0.00 | 95 | 1010.7 |
| 20260830135503 | 20 | 161 | 6.4 | 12.9 | 0.00 | 0.36 | 0.00 | 95 | 1010.8 |
| 20260830135412 | 20 | 183 | 6.4 | 12.9 | 0.00 | 0.36 | 0.00 | 95 | 1010.8 |
| 20260830135338 | 20 | 167 | 6.4 | 12.9 | 0.00 | 0.36 | 0.00 | 95 | 1010.8 |
| 20260830135155 | 20 | 173 | 6.4 | 12.9 | 0.00 | 0.36 | 0.00 | 95 | 1010.8 |
| 20260830135059 | 20 | 192 | 8.0 | 12.9 | 0.00 | 0.36 | 0.00 | 95 | 1010.7 |
| 20260830135003 | 20 | 187 | 8.0 | 12.9 | 0.00 | 0.36 | 0.00 | 95 | 1010.6 |
| 20260830134908 | 20 | 144 | 8.0 | 12.9 | 0.00 | 0.36 | 0.00 | 95 | 1010.6 |
| 20260830134834 | 20 | 182 | 8.0 | 12.9 | 0.00 | 0.36 | 0.00 | 95 | 1010.6 |
| 20260830134701 | 20 | 166 | 6.4 | 14.5 | 0.00 | 0.36 | 0.00 | 95 | 1010.6 |
| 20260830134607 | 20 | 173 | 6.4 | 14.5 | 0.00 | 0.36 | 0.00 | 95 | 1010.6 |
| 20260830134531 | 20 | 175 | 4.8 | 14.5 | 0.00 | 0.36 | 0.00 | 95 | 1010.6 |
| 20260830134434 | 20 | 159 | 4.8 | 14.5 | 0.00 | 0.36 | 0.00 | 95 | 1010.6 |
| 20260830134318 | 20 | 158 | 4.8 | 14.5 | 0.00 | 0.36 | 0.00 | 95 | 1010.6 |
| 20260830134157 | 20 | 157 | 9.7 | 14.5 | 0.00 | 0.36 | 0.00 | 95 | 1010.6 |
| 20260830134102 | 20 | 155 | 9.7 | 14.5 | 0.00 | 0.36 | 0.00 | 96 | 1010.6 |
| 20260830134010 | 20 | 157 | 8.0 | 11.3 | 0.00 | 0.36 | 0.00 | 95 | 1010.6 |
| 20260830133916 | 20 | 169 | 8.0 | 11.3 | 0.00 | 0.36 | 0.00 | 95 | 1010.7 |
| 20260830133759 | 20 | 174 | 8.0 | 11.3 | 0.00 | 0.36 | 0.00 | 95 | 1010.7 |
| 20260830133703 | 20 | 159 | 8.0 | 11.3 | 0.00 | 0.36 | 0.00 | 95 | 1010.8 |
| 20260830133608 | 20 | 163 | 8.0 | 11.3 | 0.00 | 0.36 | 0.00 | 96 | 1010.8 |
| 20260830133453 | 20 | 157 | 6.4 | 11.3 | 0.00 | 0.36 | 0.00 | 96 | 1010.9 |
| 20260830133403 | 20 | 146 | 3.2 | 11.3 | 0.00 | 0.36 | 0.00 | 96 | 1010.9 |
| 20260830133307 | 20 | 132 | 3.2 | 11.3 | 0.00 | 0.36 | 0.00 | 96 | 1010.9 |
| 20260830133212 | 20 | 130 | 4.8 | 11.3 | 0.00 | 0.36 | 0.00 | 96 | 1010.9 |
| 20260830133118 | 20 | 130 | 6.4 | 11.3 | 0.00 | 0.36 | 0.00 | 96 | 1010.9 |
| 20260830132956 | 20 | 138 | 6.4 | 11.3 | 0.00 | 0.36 | 0.00 | 95 | 1011.1 |
| 20260830132901 | 20 | 159 | 6.4 | 11.3 | 0.00 | 0.36 | 0.00 | 95 | 1011.1 |
| 20260830132809 | 20 | 162 | 6.4 | 11.3 | 0.00 | 0.36 | 0.00 | 95 | 1011.1 |
| 20260830132714 | 19 | 159 | 4.8 | 9.7 | 0.00 | 0.36 | 0.00 | 95 | 1011.0 |
| 20260830132619 | 19 | 130 | 4.8 | 8.0 | 0.00 | 0.36 | 0.00 | 96 | 1011.0 |
| 20260830132457 | 19 | 139 | 4.8 | 8.0 | 0.00 | 0.36 | 0.00 | 96 | 1011.0 |
| 20260830132402 | 19 | 139 | 4.8 | 11.3 | 0.00 | 0.36 | 0.00 | 95 | 1011.0 |
| 20260830132306 | 19 | 138 | 4.8 | 11.3 | 0.00 | 0.36 | 0.00 | 95 | 1011.0 |
| 20260830132154 | 19 | 143 | 4.8 | 11.3 | 0.00 | 0.36 | 0.00 | 96 | 1011.0 |
| 20260830132058 | 19 | 143 | 4.8 | 11.3 | 0.00 | 0.36 | 0.00 | 96 | 1011.1 |
| 20260830132003 | 19 | 168 | 3.2 | 11.3 | 0.00 | 0.36 | 0.00 | 96 | 1011.1 |
| 20260830131928 | 19 | 130 | 3.2 | 11.3 | 0.00 | 0.36 | 0.00 | 96 | 1011.1 |
| 20260830131831 | 19 | 130 | 4.8 | 11.3 | 0.00 | 0.36 | 0.00 | 96 | 1011.0 |
| 20260830131655 | 19 | 105 | 4.8 | 11.3 | 0.00 | 0.36 | 0.00 | 96 | 1010.9 |
| 20260830131600 | 19 | 102 | 6.4 | 11.3 | 0.00 | 0.36 | 0.00 | 96 | 1010.8 |
| 20260830131509 | 19 | 156 | 8.0 | 11.3 | 0.00 | 0.36 | 0.00 | 96 | 1010.8 |
| 20260830131433 | 19 | 175 | 8.0 | 12.9 | 0.00 | 0.36 | 0.00 | 96 | 1010.8 |
| 20260830131319 | 19 | 158 | 6.4 | 11.3 | 0.00 | 0.36 | 0.00 | 96 | 1010.7 |
| 20260830131156 | 19 | 145 | 6.4 | 12.9 | 0.00 | 0.36 | 0.00 | 96 | 1010.6 |
| 20260830131101 | 19 | 139 | 6.4 | 12.9 | 0.00 | 0.36 | 0.00 | 96 | 1010.6 |
| 20260830131006 | 19 | 161 | 6.4 | 12.9 | 0.00 | 0.36 | 0.00 | 96 | 1010.6 |
| 20260830130854 | 19 | 159 | 8.0 | 12.9 | 0.00 | 0.36 | 0.00 | 96 | 1010.6 |
| 20260830130800 | 19 | 161 | 9.7 | 12.9 | 0.00 | 0.36 | 0.00 | 96 | 1010.5 |
| 20260830130725 | 19 | 157 | 8.0 | 12.9 | 0.00 | 0.36 | 0.00 | 96 | 1010.7 |
| 20260830130608 | 19 | 172 | 8.0 | 12.9 | 0.00 | 0.36 | 0.00 | 96 | 1010.7 |
| 20260830130454 | 19 | 165 | 6.4 | 12.9 | 0.00 | 0.36 | 0.00 | 96 | 1010.7 |
| 20260830130418 | 19 | 163 | 6.4 | 12.9 | 0.00 | 0.36 | 0.00 | 96 | 1010.8 |
| 20260830130301 | 19 | 165 | 6.4 | 12.9 | 0.00 | 0.36 | 0.00 | 96 | 1010.8 |
| 20260830130230 | 19 | 164 | 6.4 | 12.9 | 0.00 | 0.36 | 0.00 | 96 | 1010.8 |
| 20260830130134 | 19 | 175 | 6.4 | 8.0 | 0.00 | 0.58 | 0.00 | 96 | 1010.9 |
| 20260830125958 | 19 | 163 | 6.4 | 9.7 | 0.00 | 0.58 | 0.00 | 96 | 1010.9 |
| 20260830125902 | 19 | 162 | 4.8 | 9.7 | 0.00 | 0.58 | 0.00 | 96 | 1010.9 |
| 20260830125807 | 19 | 161 | 6.4 | 9.7 | 0.00 | 0.58 | 0.00 | 96 | 1010.9 |
| 20260830125710 | 19 | 162 | 6.4 | 9.7 | 0.00 | 0.58 | 0.00 | 96 | 1010.9 |
| 20260830125614 | 19 | 160 | 6.4 | 11.3 | 0.00 | 0.58 | 0.00 | 96 | 1011.0 |
| 20260830125503 | 19 | 159 | 4.8 | 11.3 | 0.00 | 0.58 | 0.00 | 96 | 1011.0 |
| 20260830125408 | 19 | 161 | 4.8 | 11.3 | 0.00 | 0.58 | 0.00 | 96 | 1011.0 |
| 20260830125312 | 19 | 158 | 3.2 | 11.3 | 0.00 | 0.58 | 0.00 | 96 | 1010.9 |
| 20260830125238 | 19 | 157 | 3.2 | 11.3 | 0.00 | 0.58 | 0.00 | 96 | 1010.9 |
| 20260830125055 | 19 | 157 | 3.2 | 11.3 | 0.00 | 0.58 | 0.00 | 96 | 1010.9 |
| 20260830125000 | 19 | 156 | 4.8 | 11.3 | 0.00 | 0.58 | 0.00 | 96 | 1010.9 |
| 20260830124905 | 19 | 156 | 6.4 | 11.3 | 0.00 | 0.58 | 0.00 | 96 | 1011.0 |
| 20260830124754 | 19 | 155 | 4.8 | 11.3 | 0.00 | 0.58 | 0.00 | 96 | 1011.0 |
| 20260830124658 | 19 | 171 | 3.2 | 9.7 | 0.00 | 0.58 | 0.00 | 96 | 1011.0 |
| 20260830124603 | 19 | 171 | 3.2 | 9.7 | 0.00 | 0.58 | 0.00 | 96 | 1011.0 |
| 20260830124508 | 19 | 171 | 4.8 | 9.7 | 0.00 | 0.58 | 0.00 | 96 | 1011.0 |
| 20260830124412 | 19 | 171 | 4.8 | 9.7 | 0.00 | 0.58 | 0.00 | 96 | 1011.0 |
| 20260830124317 | 19 | 153 | 3.2 | 8.0 | 0.00 | 0.58 | 0.00 | 96 | 1011.1 |
| 20260830124206 | 19 | 153 | 3.2 | 8.0 | 0.00 | 0.58 | 0.00 | 96 | 1011.1 |
| 20260830124110 | 19 | 152 | 3.2 | 8.0 | 0.00 | 0.58 | 0.00 | 96 | 1011.1 |
| 20260830123955 | 19 | 152 | 4.8 | 8.0 | 0.00 | 0.58 | 0.00 | 96 | 1011.1 |
| 20260830123901 | 19 | 152 | 4.8 | 8.0 | 0.00 | 0.58 | 0.00 | 96 | 1011.1 |
| 20260830123805 | 19 | 153 | 3.2 | 8.0 | 0.00 | 0.58 | 0.00 | 96 | 1011.1 |
| 20260830123655 | 19 | 153 | 3.2 | 11.3 | 0.00 | 0.58 | 0.00 | 96 | 1011.1 |
| 20260830123600 | 19 | 153 | 3.2 | 11.3 | 0.00 | 0.58 | 0.00 | 96 | 1011.1 |
| 20260830123504 | 19 | 153 | 3.2 | 11.3 | 0.00 | 0.58 | 0.00 | 96 | 1011.0 |
| 20260830123429 | 19 | 152 | 1.6 | 11.3 | 0.00 | 0.58 | 0.00 | 96 | 1011.0 |
| 20260830123254 | 19 | 152 | 1.6 | 11.3 | 0.00 | 0.58 | 0.00 | 96 | 1010.9 |
| 20260830123218 | 19 | 152 | 3.2 | 11.3 | 0.00 | 0.58 | 0.00 | 96 | 1010.9 |
| 20260830123101 | 19 | 152 | 4.8 | 11.3 | 0.00 | 0.58 | 0.00 | 96 | 1010.8 |
| 20260830123010 | 19 | 152 | 6.4 | 11.3 | 0.00 | 0.58 | 0.00 | 96 | 1010.8 |
| 20260830122916 | 19 | 165 | 8.0 | 11.3 | 0.00 | 0.58 | 0.00 | 96 | 1010.7 |
| 20260830122759 | 19 | 159 | 8.0 | 12.9 | 0.00 | 0.58 | 0.00 | 96 | 1010.7 |
| 20260830122724 | 19 | 161 | 6.4 | 12.9 | 0.00 | 0.58 | 0.00 | 96 | 1010.6 |
| 20260830122607 | 18 | 162 | 8.0 | 12.9 | 0.00 | 0.58 | 0.00 | 96 | 1010.6 |
| 20260830122511 | 18 | 161 | 8.0 | 12.9 | 0.00 | 0.58 | 0.00 | 96 | 1010.6 |
| 20260830122416 | 19 | 158 | 6.4 | 12.9 | 0.00 | 0.58 | 0.00 | 96 | 1010.7 |
| 20260830122300 | 18 | 164 | 6.4 | 12.9 | 0.00 | 0.58 | 0.00 | 96 | 1010.6 |
| 20260830122210 | 18 | 159 | 4.8 | 12.9 | 0.00 | 0.58 | 0.00 | 96 | 1010.6 |
| 20260830122056 | 18 | 159 | 6.4 | 12.9 | 0.00 | 0.58 | 0.00 | 96 | 1010.5 |
| 20260830122001 | 18 | 157 | 6.4 | 12.9 | 0.00 | 0.58 | 0.00 | 96 | 1010.6 |
| 20260830121906 | 18 | 158 | 6.4 | 11.3 | 0.00 | 0.58 | 0.00 | 96 | 1010.6 |
| 20260830121812 | 18 | 155 | 6.4 | 11.3 | 0.00 | 0.58 | 0.00 | 96 | 1010.5 |
| 20260830121702 | 18 | 166 | 6.4 | 9.7 | 0.00 | 0.58 | 0.00 | 96 | 1010.6 |
| 20260830121608 | 18 | 170 | 6.4 | 11.3 | 0.00 | 0.58 | 0.00 | 96 | 1010.6 |
| 20260830121454 | 18 | 153 | 6.4 | 11.3 | 0.00 | 0.58 | 0.00 | 96 | 1010.6 |
| 20260830121400 | 18 | 152 | 6.4 | 11.3 | 0.00 | 0.58 | 0.00 | 96 | 1010.6 |
| 20260830121305 | 18 | 158 | 4.8 | 9.7 | 0.00 | 0.58 | 0.00 | 96 | 1010.6 |
| 20260830121211 | 18 | 158 | 4.8 | 8.0 | 0.00 | 0.58 | 0.00 | 96 | 1010.6 |
| 20260830121122 | 18 | 157 | 3.2 | 8.0 | 0.00 | 0.58 | 0.00 | 96 | 1010.8 |
| 20260830121027 | 18 | 157 | 1.6 | 8.0 | 0.00 | 0.58 | 0.00 | 96 | 1010.8 |
| 20260830120931 | 18 | 157 | 1.6 | 4.8 | 0.00 | 0.58 | 0.00 | 96 | 1010.8 |
| 20260830120816 | 18 | 155 | 1.6 | 8.0 | 0.00 | 0.58 | 0.00 | 96 | 1010.7 |
| 20260830120653 | 18 | 155 | 1.6 | 8.0 | 0.00 | 0.58 | 0.00 | 96 | 1010.7 |
| 20260830120559 | 18 | 156 | 1.6 | 8.0 | 0.00 | 0.58 | 0.00 | 96 | 1010.7 |
| 20260830120505 | 18 | 156 | 1.6 | 8.0 | 0.00 | 0.58 | 0.00 | 96 | 1010.7 |
| 20260830120355 | 18 | 156 | 1.6 | 8.0 | 0.00 | 0.58 | 0.00 | 96 | 1010.7 |
| 20260830120300 | 18 | 156 | 1.6 | 8.0 | 0.00 | 0.58 | 0.00 | 96 | 1010.7 |
| 20260830120206 | 18 | 156 | 3.2 | 8.0 | 0.00 | 0.58 | 0.00 | 96 | 1010.5 |
| 20260830120111 | 18 | 156 | 3.2 | 8.0 | 0.00 | 0.69 | 0.00 | 96 | 1010.5 |
| 20260830120018 | 18 | 156 | 3.2 | 8.0 | 0.00 | 0.69 | 0.00 | 96 | 1010.5 |
| 20260830115903 | 18 | 156 | 4.8 | 8.0 | 0.00 | 0.69 | 0.00 | 96 | 1010.5 |
| 20260830115812 | 18 | 156 | 4.8 | 8.0 | 0.00 | 0.69 | 0.00 | 96 | 1010.5 |
| 20260830115657 | 18 | 147 | 3.2 | 8.0 | 0.00 | 0.69 | 0.00 | 96 | 1010.4 |
| 20260830115603 | 18 | 145 | 3.2 | 8.0 | 0.00 | 0.69 | 0.00 | 96 | 1010.4 |
| 20260830115528 | 18 | 145 | 1.6 | 8.0 | 0.00 | 0.69 | 0.00 | 96 | 1010.4 |
| 20260830115413 | 18 | 145 | 1.6 | 8.0 | 0.00 | 0.69 | 0.00 | 96 | 1010.4 |
| 20260830115258 | 18 | 145 | 3.2 | 8.0 | 0.00 | 0.69 | 0.00 | 96 | 1010.3 |
| 20260830115208 | 18 | 145 | 4.8 | 8.0 | 0.00 | 0.69 | 0.00 | 96 | 1010.3 |
| 20260830115055 | 18 | 172 | 4.8 | 9.7 | 0.00 | 0.69 | 0.00 | 96 | 1010.2 |
| 20260830115001 | 18 | 188 | 4.8 | 9.7 | 0.00 | 0.69 | 0.00 | 96 | 1010.2 |
| 20260830114926 | 18 | 157 | 4.8 | 9.7 | 0.00 | 0.69 | 0.00 | 96 | 1010.2 |
| 20260830114812 | 18 | 151 | 4.8 | 9.7 | 0.00 | 0.69 | 0.00 | 96 | 1010.1 |
| 20260830114657 | 18 | 150 | 4.8 | 9.7 | 0.00 | 0.69 | 0.00 | 96 | 1010.2 |
| 20260830114608 | 18 | 150 | 4.8 | 8.0 | 0.00 | 0.69 | 0.00 | 96 | 1010.2 |
| 20260830114533 | 18 | 147 | 4.8 | 8.0 | 0.00 | 0.69 | 0.00 | 96 | 1010.2 |
| 20260830114358 | 18 | 161 | 3.2 | 9.7 | 0.00 | 0.69 | 0.00 | 96 | 1010.3 |
| 20260830114304 | 18 | 178 | 3.2 | 4.8 | 0.00 | 0.69 | 0.00 | 96 | 1010.3 |
| 20260830114210 | 18 | 178 | 1.6 | 4.8 | 0.00 | 0.69 | 0.00 | 96 | 1010.3 |
| 20260830114055 | 18 | 178 | 3.2 | 4.8 | 0.00 | 0.69 | 0.00 | 96 | 1010.4 |
| 20260830114006 | 18 | 178 | 3.2 | 4.8 | 0.00 | 0.69 | 0.00 | 96 | 1010.4 |
| 20260830113911 | 18 | 178 | 1.6 | 4.8 | 0.00 | 0.69 | 0.00 | 96 | 1010.5 |
| 20260830113757 | 18 | 178 | 1.6 | 4.8 | 0.00 | 0.69 | 0.00 | 96 | 1010.5 |
| 20260830113703 | 18 | 178 | 3.2 | 4.8 | 0.00 | 0.69 | 0.00 | 96 | 1010.5 |
| 20260830113628 | 18 | 178 | 3.2 | 4.8 | 0.00 | 0.69 | 0.00 | 96 | 1010.5 |
| 20260830113453 | 18 | 179 | 3.2 | 4.8 | 0.00 | 0.69 | 0.00 | 96 | 1010.4 |
| 20260830113419 | 18 | 179 | 3.2 | 4.8 | 0.00 | 0.69 | 0.00 | 96 | 1010.4 |
| 20260830113309 | 18 | 179 | 3.2 | 4.8 | 0.00 | 0.69 | 0.00 | 96 | 1010.4 |
| 20260830113154 | 18 | 179 | 3.2 | 4.8 | 0.00 | 0.69 | 0.00 | 96 | 1010.4 |
| 20260830113100 | 18 | 179 | 3.2 | 4.8 | 0.00 | 0.69 | 0.00 | 96 | 1010.4 |
| 20260830113025 | 18 | 179 | 3.2 | 4.8 | 0.00 | 0.69 | 0.00 | 96 | 1010.5 |
| 20260830112910 | 18 | 180 | 3.2 | 4.8 | 0.00 | 0.69 | 0.00 | 96 | 1010.5 |
| 20260830112815 | 18 | 180 | 3.2 | 4.8 | 0.00 | 0.69 | 0.00 | 96 | 1010.5 |
| 20260830112720 | 18 | 180 | 3.2 | 4.8 | 0.00 | 0.69 | 0.00 | 96 | 1010.5 |
| 20260830112609 | 18 | 180 | 1.6 | 4.8 | 0.00 | 0.69 | 0.00 | 96 | 1010.5 |
| 20260830112454 | 18 | 180 | 3.2 | 4.8 | 0.00 | 0.69 | 0.00 | 96 | 1010.5 |
| 20260830112326 | 18 | 180 | 3.2 | 4.8 | 0.00 | 0.69 | 0.00 | 96 | 1010.4 |
| 20260830112232 | 18 | 180 | 1.6 | 4.8 | 0.00 | 0.69 | 0.00 | 96 | 1010.4 |
| 20260830112057 | 18 | 180 | 1.6 | 4.8 | 0.00 | 0.69 | 0.00 | 96 | 1010.5 |
| 20260830112007 | 18 | 180 | 1.6 | 4.8 | 0.00 | 0.69 | 0.00 | 96 | 1010.5 |
| 20260830111913 | 18 | 180 | 1.6 | 4.8 | 0.00 | 0.69 | 0.00 | 96 | 1010.5 |
| 20260830111758 | 18 | 180 | 3.2 | 4.8 | 0.00 | 0.69 | 0.00 | 96 | 1010.5 |
| 20260830111705 | 18 | 180 | 3.2 | 4.8 | 0.00 | 0.69 | 0.00 | 96 | 1010.5 |
| 20260830111610 | 18 | 180 | 3.2 | 4.8 | 0.00 | 0.69 | 0.00 | 96 | 1010.5 |
| 20260830111517 | 18 | 180 | 3.2 | 4.8 | 0.00 | 0.69 | 0.00 | 96 | 1010.6 |
| 20260830111405 | 18 | 180 | 3.2 | 4.8 | 0.00 | 0.69 | 0.00 | 96 | 1010.6 |
| 20260830111311 | 18 | 180 | 3.2 | 4.8 | 0.00 | 0.69 | 0.00 | 96 | 1010.5 |
| 20260830111157 | 18 | 180 | 1.6 | 4.8 | 0.00 | 0.69 | 0.00 | 96 | 1010.6 |
| 20260830111102 | 18 | 180 | 1.6 | 4.8 | 0.00 | 0.69 | 0.00 | 96 | 1010.5 |
| 20260830111008 | 18 | 180 | 1.6 | 4.8 | 0.00 | 0.69 | 0.00 | 96 | 1010.5 |
| 20260830110854 | 18 | 180 | 1.6 | 4.8 | 0.00 | 0.69 | 0.00 | 95 | 1010.5 |
| 20260830110805 | 18 | 180 | 1.6 | 4.8 | 0.00 | 0.69 | 0.00 | 96 | 1010.4 |
| 20260830110711 | 18 | 180 | 1.6 | 4.8 | 0.00 | 0.69 | 0.00 | 96 | 1010.4 |
| 20260830110557 | 18 | 180 | 1.6 | 4.8 | 0.00 | 0.69 | 0.00 | 95 | 1010.4 |
| 20260830110502 | 18 | 180 | 3.2 | 4.8 | 0.00 | 0.69 | 0.00 | 95 | 1010.4 |
| 20260830110408 | 18 | 180 | 3.2 | 4.8 | 0.00 | 0.69 | 0.00 | 95 | 1010.4 |
| 20260830110258 | 18 | 180 | 3.2 | 4.8 | 0.00 | 0.69 | 0.00 | 95 | 1010.4 |
| 20260830110203 | 18 | 180 | 3.2 | 4.8 | 0.00 | 0.76 | 0.00 | 95 | 1010.4 |
| 20260830110109 | 18 | 180 | 3.2 | 4.8 | 0.00 | 0.76 | 0.00 | 95 | 1010.4 |
| 20260830110016 | 18 | 180 | 1.6 | 4.8 | 0.00 | 0.76 | 0.00 | 95 | 1010.5 |
| 20260830105900 | 18 | 180 | 1.6 | 4.8 | 0.00 | 0.76 | 0.00 | 95 | 1010.5 |
| 20260830105806 | 18 | 180 | 1.6 | 4.8 | 0.00 | 0.76 | 0.00 | 95 | 1010.5 |
| 20260830105710 | 18 | 180 | 3.2 | 4.8 | 0.00 | 0.76 | 0.00 | 95 | 1010.5 |
| 20260830105559 | 18 | 180 | 3.2 | 4.8 | 0.00 | 0.76 | 0.00 | 95 | 1010.5 |
| 20260830105505 | 18 | 180 | 3.2 | 4.8 | 0.00 | 0.76 | 0.00 | 95 | 1010.5 |
| 20260830105411 | 18 | 180 | 3.2 | 6.4 | 0.00 | 0.76 | 0.00 | 95 | 1010.5 |
| 20260830105257 | 18 | 180 | 3.2 | 6.4 | 0.00 | 0.76 | 0.00 | 95 | 1010.6 |
| 20260830105202 | 18 | 180 | 3.2 | 6.4 | 0.00 | 0.76 | 0.00 | 95 | 1010.7 |
| 20260830105107 | 18 | 180 | 3.2 | 6.4 | 0.00 | 0.76 | 0.00 | 95 | 1010.7 |
| 20260830104957 | 18 | 180 | 3.2 | 6.4 | 0.00 | 0.76 | 0.00 | 95 | 1010.8 |
| 20260830104904 | 18 | 180 | 3.2 | 6.4 | 0.00 | 0.76 | 0.00 | 95 | 1010.8 |
| 20260830104810 | 18 | 180 | 3.2 | 6.4 | 0.00 | 0.76 | 0.00 | 95 | 1010.8 |
| 20260830104715 | 18 | 180 | 4.8 | 6.4 | 0.00 | 0.76 | 0.00 | 95 | 1010.8 |
| 20260830104600 | 18 | 180 | 4.8 | 6.4 | 0.00 | 0.76 | 0.00 | 95 | 1010.8 |
| 20260830104505 | 18 | 181 | 4.8 | 4.8 | 0.00 | 0.76 | 0.00 | 95 | 1010.8 |
| 20260830104356 | 18 | 182 | 4.8 | 4.8 | 0.00 | 0.76 | 0.00 | 95 | 1010.9 |
| 20260830104302 | 18 | 182 | 3.2 | 4.8 | 0.00 | 0.76 | 0.00 | 95 | 1010.9 |
| 20260830104207 | 18 | 182 | 3.2 | 4.8 | 0.00 | 0.76 | 0.00 | 95 | 1010.9 |
| 20260830104112 | 18 | 182 | 3.2 | 4.8 | 0.00 | 0.76 | 0.00 | 95 | 1010.9 |
| 20260830103957 | 18 | 182 | 3.2 | 4.8 | 0.00 | 0.76 | 0.00 | 95 | 1010.8 |
| 20260830103924 | 18 | 182 | 3.2 | 4.8 | 0.00 | 0.76 | 0.00 | 95 | 1010.9 |
| 20260830103812 | 18 | 182 | 4.8 | 4.8 | 0.00 | 0.76 | 0.00 | 95 | 1010.9 |
| 20260830103658 | 18 | 183 | 3.2 | 4.8 | 0.00 | 0.76 | 0.00 | 95 | 1010.8 |
| 20260830103605 | 19 | 183 | 3.2 | 4.8 | 0.00 | 0.76 | 0.00 | 95 | 1010.9 |
| 20260830103510 | 19 | 183 | 3.2 | 4.8 | 0.00 | 0.76 | 0.00 | 95 | 1010.9 |
| 20260830103357 | 19 | 183 | 3.2 | 3.2 | 0.00 | 0.76 | 0.00 | 95 | 1010.7 |
| 20260830103306 | 19 | 183 | 1.6 | 3.2 | 0.00 | 0.76 | 0.00 | 95 | 1010.7 |
| 20260830103212 | 19 | 183 | 1.6 | 3.2 | 0.00 | 0.76 | 0.00 | 95 | 1010.8 |
| 20260830103058 | 19 | 183 | 1.6 | 3.2 | 0.00 | 0.76 | 0.00 | 95 | 1010.6 |
| 20260830103004 | 19 | 183 | 1.6 | 3.2 | 0.00 | 0.76 | 0.00 | 95 | 1010.6 |
| 20260830102910 | 19 | 183 | 1.6 | 3.2 | 0.00 | 0.76 | 0.00 | 95 | 1010.6 |
| 20260830102705 | 19 | 183 | 1.6 | 6.4 | 0.00 | 0.76 | 0.00 | 95 | 1010.6 |
| 20260830102610 | 19 | 183 | 1.6 | 6.4 | 0.00 | 0.76 | 0.00 | 95 | 1010.6 |
| 20260830102457 | 19 | 183 | 1.6 | 6.4 | 0.00 | 0.76 | 0.00 | 95 | 1010.6 |
| 20260830102403 | 19 | 183 | 1.6 | 8.0 | 0.00 | 0.76 | 0.00 | 95 | 1010.6 |
| 20260830102308 | 19 | 183 | 1.6 | 8.0 | 0.00 | 0.76 | 0.00 | 95 | 1010.6 |
| 20260830102158 | 19 | 183 | 1.6 | 8.0 | 0.00 | 0.76 | 0.00 | 95 | 1010.5 |
| 20260830102124 | 19 | 183 | 3.2 | 8.0 | 0.00 | 0.76 | 0.00 | 95 | 1010.5 |
| 20260830102029 | 19 | 183 | 3.2 | 8.0 | 0.00 | 0.76 | 0.00 | 95 | 1010.5 |
| 20260830101853 | 19 | 183 | 3.2 | 8.0 | 0.00 | 0.76 | 0.00 | 95 | 1010.5 |
| 20260830101759 | 19 | 183 | 3.2 | 8.0 | 0.00 | 0.76 | 0.00 | 95 | 1010.4 |
| 20260830101705 | 19 | 183 | 4.8 | 8.0 | 0.00 | 0.76 | 0.00 | 95 | 1010.4 |
| 20260830101611 | 19 | 183 | 4.8 | 8.0 | 0.00 | 0.76 | 0.00 | 95 | 1010.5 |
| 20260830101522 | 19 | 183 | 3.2 | 8.0 | 0.00 | 0.76 | 0.00 | 95 | 1010.4 |
| 20260830101426 | 19 | 182 | 3.2 | 8.0 | 0.00 | 0.76 | 0.00 | 95 | 1010.4 |
| 20260830101312 | 19 | 182 | 3.2 | 8.0 | 0.00 | 0.76 | 0.00 | 95 | 1010.4 |
| 20260830101158 | 19 | 182 | 3.2 | 8.0 | 0.00 | 0.76 | 0.00 | 95 | 1010.3 |
| 20260830101124 | 19 | 183 | 1.6 | 8.0 | 0.00 | 0.76 | 0.00 | 95 | 1010.2 |
| 20260830101008 | 19 | 183 | 1.6 | 8.0 | 0.00 | 0.76 | 0.00 | 95 | 1010.2 |
| 20260830100853 | 19 | 183 | 3.2 | 8.0 | 0.00 | 0.76 | 0.00 | 95 | 1010.3 |
| 20260830100823 | 19 | 183 | 3.2 | 8.0 | 0.00 | 0.76 | 0.00 | 95 | 1010.3 |
| 20260830100709 | 19 | 183 | 3.2 | 8.0 | 0.00 | 0.76 | 0.00 | 95 | 1010.3 |
| 20260830100554 | 19 | 182 | 3.2 | 8.0 | 0.00 | 0.76 | 0.00 | 95 | 1010.3 |
| 20260830100500 | 19 | 182 | 4.8 | 8.0 | 0.00 | 0.76 | 0.00 | 95 | 1010.3 |
| 20260830100405 | 19 | 182 | 3.2 | 8.0 | 0.00 | 0.76 | 0.00 | 95 | 1010.3 |
| 20260830100311 | 19 | 182 | 3.2 | 8.0 | 0.00 | 0.76 | 0.00 | 95 | 1010.3 |
| 20260830100201 | 19 | 182 | 4.8 | 8.0 | 0.00 | 0.76 | 0.00 | 95 | 1010.3 |
| 20260830100107 | 19 | 182 | 6.4 | 8.0 | 0.00 | 0.76 | 0.00 | 95 | 1010.3 |
| 20260830095954 | 19 | 182 | 6.4 | 8.0 | 0.00 | 0.76 | 0.00 | 95 | 1010.2 |
| 20260830095919 | 19 | 181 | 6.4 | 8.0 | 0.00 | 0.76 | 0.00 | 95 | 1010.2 |
| 20260830095804 | 19 | 180 | 6.4 | 8.0 | 0.00 | 0.76 | 0.00 | 95 | 1010.2 |
| 20260830095710 | 19 | 178 | 6.4 | 8.0 | 0.00 | 0.76 | 0.00 | 95 | 1010.2 |
| 20260830095559 | 19 | 178 | 4.8 | 8.0 | 0.00 | 0.76 | 0.00 | 95 | 1010.1 |
| 20260830095505 | 19 | 174 | 4.8 | 8.0 | 0.00 | 0.76 | 0.00 | 95 | 1010.1 |
| 20260830095431 | 19 | 175 | 6.4 | 8.0 | 0.00 | 0.76 | 0.00 | 95 | 1010.1 |
| 20260830095256 | 19 | 173 | 6.4 | 9.7 | 0.00 | 0.76 | 0.00 | 95 | 1010.1 |
| 20260830095221 | 19 | 168 | 6.4 | 9.7 | 0.00 | 0.76 | 0.00 | 95 | 1010.1 |
| 20260830095126 | 19 | 167 | 6.4 | 9.7 | 0.00 | 0.76 | 0.00 | 95 | 1010.1 |
| 20260830095012 | 19 | 172 | 4.8 | 8.0 | 0.00 | 0.76 | 0.00 | 95 | 1010.0 |
| 20260830094901 | 19 | 171 | 4.8 | 8.0 | 0.00 | 0.76 | 0.00 | 95 | 1010.1 |
| 20260830094807 | 19 | 173 | 4.8 | 8.0 | 0.00 | 0.76 | 0.00 | 95 | 1010.1 |
| 20260830094713 | 19 | 173 | 4.8 | 8.0 | 0.00 | 0.76 | 0.00 | 95 | 1010.1 |
| 20260830094558 | 19 | 172 | 4.8 | 8.0 | 0.00 | 0.76 | 0.00 | 95 | 1010.2 |
| 20260830094504 | 19 | 172 | 4.8 | 8.0 | 0.00 | 0.76 | 0.00 | 95 | 1010.2 |
| 20260830094410 | 19 | 173 | 4.8 | 9.7 | 0.00 | 0.76 | 0.00 | 95 | 1010.2 |
| 20260830094316 | 19 | 173 | 6.4 | 9.7 | 0.00 | 0.76 | 0.00 | 95 | 1010.1 |
| 20260830094204 | 19 | 184 | 4.8 | 9.7 | 0.00 | 0.76 | 0.00 | 95 | 1010.2 |
| 20260830094129 | 19 | 184 | 3.2 | 9.7 | 0.00 | 0.76 | 0.00 | 95 | 1010.2 |
| 20260830093954 | 19 | 190 | 3.2 | 9.7 | 0.00 | 0.76 | 0.00 | 95 | 1010.3 |
| 20260830093900 | 19 | 190 | 4.8 | 9.7 | 0.00 | 0.76 | 0.00 | 95 | 1010.3 |
| 20260830093805 | 19 | 190 | 4.8 | 9.7 | 0.00 | 0.76 | 0.00 | 95 | 1010.3 |
| 20260830093712 | 19 | 190 | 6.4 | 9.7 | 0.00 | 0.76 | 0.00 | 95 | 1010.3 |
| 20260830093621 | 19 | 190 | 6.4 | 9.7 | 0.00 | 0.76 | 0.00 | 95 | 1010.3 |
| 20260830093506 | 19 | 189 | 6.4 | 9.7 | 0.00 | 0.76 | 0.00 | 95 | 1010.3 |
| 20260830093412 | 19 | 188 | 6.4 | 9.7 | 0.00 | 0.76 | 0.00 | 95 | 1010.2 |
| 20260830093318 | 19 | 187 | 4.8 | 9.7 | 0.00 | 0.76 | 0.00 | 95 | 1010.3 |
| 20260830093203 | 19 | 187 | 6.4 | 9.7 | 0.00 | 0.76 | 0.00 | 95 | 1010.2 |
| 20260830093108 | 19 | 187 | 6.4 | 9.7 | 0.00 | 0.76 | 0.00 | 95 | 1010.2 |
| 20260830093015 | 19 | 188 | 6.4 | 9.7 | 0.00 | 0.76 | 0.00 | 95 | 1010.2 |
| 20260830092923 | 19 | 188 | 6.4 | 9.7 | 0.00 | 0.76 | 0.00 | 95 | 1010.2 |
| 20260830092808 | 19 | 188 | 6.4 | 9.7 | 0.00 | 0.76 | 0.00 | 95 | 1010.2 |